<?xml version="1.0" encoding="UTF-8" standalone="no" ?>
<gpx xmlns="http://www.topografix.com/GPX/1/1" xmlns:xsi="http://www.w3.org/2001/XMLSchema-instance" xsi:schemaLocation="http://www.topografix.com/GPX/1/1 http://www.topografix.com/GPX/1/1/gpx.xsd" version="1.1" creator="VisuGPX - https://www.visugpx.com">
  <metadata>
    <name>puy des goules et sarcouy</name>
  </metadata>
  <trk>
    <name><![CDATA[Nouveau tracé 25/08/2021 08:12:58]]></name>
    <extensions>
      <line xmlns="http://www.topografix.com/GPX/gpx_style/0/2">
        <color>0000FF</color>
        <width>4</width>
      </line>
    </extensions>
    <trkseg>
      <trkpt lat="45.80451" lon="2.9871">
        <ele>972.6</ele>
        <time>2021-08-25T06:12:55Z</time>
      </trkpt>
      <trkpt lat="45.8045" lon="2.98709">
        <ele>973</ele>
        <time>2021-08-25T06:13:00Z</time>
      </trkpt>
      <trkpt lat="45.80449" lon="2.98709">
        <ele>975.1</ele>
        <time>2021-08-25T06:13:05Z</time>
      </trkpt>
      <trkpt lat="45.80449" lon="2.9871">
        <ele>975.5</ele>
        <time>2021-08-25T06:13:06Z</time>
      </trkpt>
      <trkpt lat="45.80443" lon="2.98709">
        <ele>978.5</ele>
        <time>2021-08-25T06:13:25Z</time>
      </trkpt>
      <trkpt lat="45.80439" lon="2.98707">
        <ele>980.1</ele>
        <time>2021-08-25T06:13:42Z</time>
      </trkpt>
      <trkpt lat="45.80436" lon="2.98708">
        <ele>980</ele>
        <time>2021-08-25T06:13:45Z</time>
      </trkpt>
      <trkpt lat="45.80433" lon="2.98714">
        <ele>978.8</ele>
        <time>2021-08-25T06:13:49Z</time>
      </trkpt>
      <trkpt lat="45.80432" lon="2.98716">
        <ele>978.4</ele>
        <time>2021-08-25T06:13:50Z</time>
      </trkpt>
      <trkpt lat="45.80428" lon="2.98729">
        <ele>976.1</ele>
        <time>2021-08-25T06:13:57Z</time>
      </trkpt>
      <trkpt lat="45.80424" lon="2.98735">
        <ele>974.7</ele>
        <time>2021-08-25T06:14:01Z</time>
      </trkpt>
      <trkpt lat="45.80423" lon="2.98736">
        <ele>974.2</ele>
        <time>2021-08-25T06:14:02Z</time>
      </trkpt>
      <trkpt lat="45.80417" lon="2.98743">
        <ele>972</ele>
        <time>2021-08-25T06:14:07Z</time>
      </trkpt>
      <trkpt lat="45.8041" lon="2.98747">
        <ele>969.8</ele>
        <time>2021-08-25T06:14:12Z</time>
      </trkpt>
      <trkpt lat="45.80409" lon="2.98747">
        <ele>969.3</ele>
        <time>2021-08-25T06:14:13Z</time>
      </trkpt>
      <trkpt lat="45.804" lon="2.98753">
        <ele>968.3</ele>
        <time>2021-08-25T06:14:20Z</time>
      </trkpt>
      <trkpt lat="45.80395" lon="2.98755">
        <ele>968.1</ele>
        <time>2021-08-25T06:14:24Z</time>
      </trkpt>
      <trkpt lat="45.80393" lon="2.98755">
        <ele>968.1</ele>
        <time>2021-08-25T06:14:25Z</time>
      </trkpt>
      <trkpt lat="45.80388" lon="2.98758">
        <ele>966.6</ele>
        <time>2021-08-25T06:14:30Z</time>
      </trkpt>
      <trkpt lat="45.80382" lon="2.98757">
        <ele>965.5</ele>
        <time>2021-08-25T06:14:34Z</time>
      </trkpt>
      <trkpt lat="45.80378" lon="2.98758">
        <ele>964.5</ele>
        <time>2021-08-25T06:14:37Z</time>
      </trkpt>
      <trkpt lat="45.80377" lon="2.98758">
        <ele>964.2</ele>
        <time>2021-08-25T06:14:38Z</time>
      </trkpt>
      <trkpt lat="45.80367" lon="2.98763">
        <ele>962.6</ele>
        <time>2021-08-25T06:14:54Z</time>
      </trkpt>
      <trkpt lat="45.80363" lon="2.98773">
        <ele>963.8</ele>
        <time>2021-08-25T06:15:01Z</time>
      </trkpt>
      <trkpt lat="45.80362" lon="2.98774">
        <ele>964.2</ele>
        <time>2021-08-25T06:15:02Z</time>
      </trkpt>
      <trkpt lat="45.80361" lon="2.98777">
        <ele>965</ele>
        <time>2021-08-25T06:15:05Z</time>
      </trkpt>
      <trkpt lat="45.80362" lon="2.98781">
        <ele>965.6</ele>
        <time>2021-08-25T06:15:08Z</time>
      </trkpt>
      <trkpt lat="45.80368" lon="2.98794">
        <ele>967.8</ele>
        <time>2021-08-25T06:15:18Z</time>
      </trkpt>
      <trkpt lat="45.80369" lon="2.98795">
        <ele>968</ele>
        <time>2021-08-25T06:15:19Z</time>
      </trkpt>
      <trkpt lat="45.80372" lon="2.98804">
        <ele>969.4</ele>
        <time>2021-08-25T06:15:26Z</time>
      </trkpt>
      <trkpt lat="45.80373" lon="2.98817">
        <ele>970.9</ele>
        <time>2021-08-25T06:15:33Z</time>
      </trkpt>
      <trkpt lat="45.80373" lon="2.98819">
        <ele>971.1</ele>
        <time>2021-08-25T06:15:34Z</time>
      </trkpt>
      <trkpt lat="45.80371" lon="2.9883">
        <ele>972.1</ele>
        <time>2021-08-25T06:15:41Z</time>
      </trkpt>
      <trkpt lat="45.80371" lon="2.98842">
        <ele>972.5</ele>
        <time>2021-08-25T06:15:47Z</time>
      </trkpt>
      <trkpt lat="45.80371" lon="2.98844">
        <ele>972.6</ele>
        <time>2021-08-25T06:15:48Z</time>
      </trkpt>
      <trkpt lat="45.80368" lon="2.98861">
        <ele>972.6</ele>
        <time>2021-08-25T06:15:57Z</time>
      </trkpt>
      <trkpt lat="45.8037" lon="2.98864">
        <ele>973</ele>
        <time>2021-08-25T06:16:01Z</time>
      </trkpt>
      <trkpt lat="45.80371" lon="2.98867">
        <ele>973.1</ele>
        <time>2021-08-25T06:16:02Z</time>
      </trkpt>
      <trkpt lat="45.80374" lon="2.98873">
        <ele>973.5</ele>
        <time>2021-08-25T06:16:09Z</time>
      </trkpt>
      <trkpt lat="45.80376" lon="2.9888">
        <ele>974</ele>
        <time>2021-08-25T06:16:15Z</time>
      </trkpt>
      <trkpt lat="45.80376" lon="2.98887">
        <ele>974</ele>
        <time>2021-08-25T06:16:18Z</time>
      </trkpt>
      <trkpt lat="45.80376" lon="2.98889">
        <ele>974</ele>
        <time>2021-08-25T06:16:19Z</time>
      </trkpt>
      <trkpt lat="45.80377" lon="2.98896">
        <ele>973.9</ele>
        <time>2021-08-25T06:16:22Z</time>
      </trkpt>
      <trkpt lat="45.8038" lon="2.98904">
        <ele>973.4</ele>
        <time>2021-08-25T06:16:26Z</time>
      </trkpt>
      <trkpt lat="45.80383" lon="2.98907">
        <ele>973</ele>
        <time>2021-08-25T06:16:28Z</time>
      </trkpt>
      <trkpt lat="45.80384" lon="2.98909">
        <ele>972.7</ele>
        <time>2021-08-25T06:16:29Z</time>
      </trkpt>
      <trkpt lat="45.80391" lon="2.98916">
        <ele>971.7</ele>
        <time>2021-08-25T06:16:33Z</time>
      </trkpt>
      <trkpt lat="45.80393" lon="2.98918">
        <ele>971.1</ele>
        <time>2021-08-25T06:16:35Z</time>
      </trkpt>
      <trkpt lat="45.80397" lon="2.98924">
        <ele>969.9</ele>
        <time>2021-08-25T06:16:38Z</time>
      </trkpt>
      <trkpt lat="45.80398" lon="2.98926">
        <ele>969.5</ele>
        <time>2021-08-25T06:16:39Z</time>
      </trkpt>
      <trkpt lat="45.80402" lon="2.98934">
        <ele>968.4</ele>
        <time>2021-08-25T06:16:42Z</time>
      </trkpt>
      <trkpt lat="45.80405" lon="2.98948">
        <ele>967.4</ele>
        <time>2021-08-25T06:16:48Z</time>
      </trkpt>
      <trkpt lat="45.80405" lon="2.9895">
        <ele>967.3</ele>
        <time>2021-08-25T06:16:49Z</time>
      </trkpt>
      <trkpt lat="45.80409" lon="2.98967">
        <ele>967</ele>
        <time>2021-08-25T06:16:55Z</time>
      </trkpt>
      <trkpt lat="45.8041" lon="2.98973">
        <ele>967</ele>
        <time>2021-08-25T06:16:58Z</time>
      </trkpt>
      <trkpt lat="45.8041" lon="2.98976">
        <ele>967.4</ele>
        <time>2021-08-25T06:16:59Z</time>
      </trkpt>
      <trkpt lat="45.80412" lon="2.98983">
        <ele>967</ele>
        <time>2021-08-25T06:17:02Z</time>
      </trkpt>
      <trkpt lat="45.80413" lon="2.98998">
        <ele>967.2</ele>
        <time>2021-08-25T06:17:08Z</time>
      </trkpt>
      <trkpt lat="45.80413" lon="2.99">
        <ele>967.2</ele>
        <time>2021-08-25T06:17:09Z</time>
      </trkpt>
      <trkpt lat="45.80417" lon="2.99021">
        <ele>968.7</ele>
        <time>2021-08-25T06:17:18Z</time>
      </trkpt>
      <trkpt lat="45.80418" lon="2.99023">
        <ele>968.8</ele>
        <time>2021-08-25T06:17:19Z</time>
      </trkpt>
      <trkpt lat="45.80421" lon="2.99045">
        <ele>970.3</ele>
        <time>2021-08-25T06:17:28Z</time>
      </trkpt>
      <trkpt lat="45.80421" lon="2.99047">
        <ele>970.3</ele>
        <time>2021-08-25T06:17:29Z</time>
      </trkpt>
      <trkpt lat="45.80423" lon="2.99056">
        <ele>970.4</ele>
        <time>2021-08-25T06:17:33Z</time>
      </trkpt>
      <trkpt lat="45.80424" lon="2.99067">
        <ele>970.7</ele>
        <time>2021-08-25T06:17:38Z</time>
      </trkpt>
      <trkpt lat="45.80424" lon="2.9907">
        <ele>970.8</ele>
        <time>2021-08-25T06:17:39Z</time>
      </trkpt>
      <trkpt lat="45.80425" lon="2.99075">
        <ele>971</ele>
        <time>2021-08-25T06:17:42Z</time>
      </trkpt>
      <trkpt lat="45.8043" lon="2.99091">
        <ele>970.6</ele>
        <time>2021-08-25T06:17:49Z</time>
      </trkpt>
      <trkpt lat="45.80431" lon="2.99093">
        <ele>970.4</ele>
        <time>2021-08-25T06:17:50Z</time>
      </trkpt>
      <trkpt lat="45.80436" lon="2.99104">
        <ele>970.4</ele>
        <time>2021-08-25T06:17:55Z</time>
      </trkpt>
      <trkpt lat="45.8044" lon="2.9911">
        <ele>970.9</ele>
        <time>2021-08-25T06:17:59Z</time>
      </trkpt>
      <trkpt lat="45.80441" lon="2.99112">
        <ele>971.1</ele>
        <time>2021-08-25T06:18:00Z</time>
      </trkpt>
      <trkpt lat="45.80449" lon="2.99119">
        <ele>972.9</ele>
        <time>2021-08-25T06:18:05Z</time>
      </trkpt>
      <trkpt lat="45.80456" lon="2.99122">
        <ele>974.8</ele>
        <time>2021-08-25T06:18:09Z</time>
      </trkpt>
      <trkpt lat="45.80458" lon="2.99122">
        <ele>975.1</ele>
        <time>2021-08-25T06:18:10Z</time>
      </trkpt>
      <trkpt lat="45.80469" lon="2.99123">
        <ele>976.8</ele>
        <time>2021-08-25T06:18:18Z</time>
      </trkpt>
      <trkpt lat="45.80472" lon="2.99123">
        <ele>976.9</ele>
        <time>2021-08-25T06:18:20Z</time>
      </trkpt>
      <trkpt lat="45.80474" lon="2.9912">
        <ele>977</ele>
        <time>2021-08-25T06:18:22Z</time>
      </trkpt>
      <trkpt lat="45.80475" lon="2.99118">
        <ele>977.1</ele>
        <time>2021-08-25T06:18:23Z</time>
      </trkpt>
      <trkpt lat="45.8048" lon="2.99101">
        <ele>977.9</ele>
        <time>2021-08-25T06:18:32Z</time>
      </trkpt>
      <trkpt lat="45.80483" lon="2.99097">
        <ele>978.2</ele>
        <time>2021-08-25T06:18:35Z</time>
      </trkpt>
      <trkpt lat="45.80483" lon="2.99095">
        <ele>978.4</ele>
        <time>2021-08-25T06:18:36Z</time>
      </trkpt>
      <trkpt lat="45.8049" lon="2.99087">
        <ele>977</ele>
        <time>2021-08-25T06:18:43Z</time>
      </trkpt>
      <trkpt lat="45.80494" lon="2.99078">
        <ele>975.6</ele>
        <time>2021-08-25T06:18:47Z</time>
      </trkpt>
      <trkpt lat="45.80495" lon="2.99075">
        <ele>975.2</ele>
        <time>2021-08-25T06:18:48Z</time>
      </trkpt>
      <trkpt lat="45.805" lon="2.99055">
        <ele>974.2</ele>
        <time>2021-08-25T06:18:59Z</time>
      </trkpt>
      <trkpt lat="45.80501" lon="2.99055">
        <ele>974.4</ele>
        <time>2021-08-25T06:19:00Z</time>
      </trkpt>
      <trkpt lat="45.80502" lon="2.99045">
        <ele>975</ele>
        <time>2021-08-25T06:19:09Z</time>
      </trkpt>
      <trkpt lat="45.80503" lon="2.99032">
        <ele>975.2</ele>
        <time>2021-08-25T06:19:17Z</time>
      </trkpt>
      <trkpt lat="45.80504" lon="2.9903">
        <ele>975.3</ele>
        <time>2021-08-25T06:19:18Z</time>
      </trkpt>
      <trkpt lat="45.80505" lon="2.9902">
        <ele>975.4</ele>
        <time>2021-08-25T06:19:22Z</time>
      </trkpt>
      <trkpt lat="45.80508" lon="2.99007">
        <ele>975.1</ele>
        <time>2021-08-25T06:19:27Z</time>
      </trkpt>
      <trkpt lat="45.80508" lon="2.99005">
        <ele>975</ele>
        <time>2021-08-25T06:19:28Z</time>
      </trkpt>
      <trkpt lat="45.80516" lon="2.98985">
        <ele>972.8</ele>
        <time>2021-08-25T06:19:37Z</time>
      </trkpt>
      <trkpt lat="45.80517" lon="2.98982">
        <ele>972.5</ele>
        <time>2021-08-25T06:19:38Z</time>
      </trkpt>
      <trkpt lat="45.80523" lon="2.98961">
        <ele>970.3</ele>
        <time>2021-08-25T06:19:47Z</time>
      </trkpt>
      <trkpt lat="45.80524" lon="2.98959">
        <ele>970.2</ele>
        <time>2021-08-25T06:19:48Z</time>
      </trkpt>
      <trkpt lat="45.80533" lon="2.98942">
        <ele>968.8</ele>
        <time>2021-08-25T06:19:57Z</time>
      </trkpt>
      <trkpt lat="45.80533" lon="2.9894">
        <ele>968.7</ele>
        <time>2021-08-25T06:19:58Z</time>
      </trkpt>
      <trkpt lat="45.80543" lon="2.98921">
        <ele>969.9</ele>
        <time>2021-08-25T06:20:09Z</time>
      </trkpt>
      <trkpt lat="45.80544" lon="2.98919">
        <ele>969.9</ele>
        <time>2021-08-25T06:20:10Z</time>
      </trkpt>
      <trkpt lat="45.80548" lon="2.98907">
        <ele>970.6</ele>
        <time>2021-08-25T06:20:15Z</time>
      </trkpt>
      <trkpt lat="45.80552" lon="2.98901">
        <ele>971</ele>
        <time>2021-08-25T06:20:19Z</time>
      </trkpt>
      <trkpt lat="45.80553" lon="2.989">
        <ele>971</ele>
        <time>2021-08-25T06:20:20Z</time>
      </trkpt>
      <trkpt lat="45.80563" lon="2.9888">
        <ele>974.2</ele>
        <time>2021-08-25T06:20:45Z</time>
      </trkpt>
      <trkpt lat="45.80564" lon="2.98879">
        <ele>974.4</ele>
        <time>2021-08-25T06:20:46Z</time>
      </trkpt>
      <trkpt lat="45.80569" lon="2.98873">
        <ele>974.9</ele>
        <time>2021-08-25T06:20:51Z</time>
      </trkpt>
      <trkpt lat="45.80579" lon="2.9887">
        <ele>975.9</ele>
        <time>2021-08-25T06:20:58Z</time>
      </trkpt>
      <trkpt lat="45.8058" lon="2.9887">
        <ele>975.9</ele>
        <time>2021-08-25T06:20:59Z</time>
      </trkpt>
      <trkpt lat="45.80589" lon="2.98866">
        <ele>977.1</ele>
        <time>2021-08-25T06:21:04Z</time>
      </trkpt>
      <trkpt lat="45.80593" lon="2.9886">
        <ele>978.7</ele>
        <time>2021-08-25T06:21:08Z</time>
      </trkpt>
      <trkpt lat="45.80594" lon="2.98859">
        <ele>979.1</ele>
        <time>2021-08-25T06:21:09Z</time>
      </trkpt>
      <trkpt lat="45.80602" lon="2.98843">
        <ele>980</ele>
        <time>2021-08-25T06:21:18Z</time>
      </trkpt>
      <trkpt lat="45.80603" lon="2.98841">
        <ele>979.7</ele>
        <time>2021-08-25T06:21:19Z</time>
      </trkpt>
      <trkpt lat="45.80613" lon="2.98824">
        <ele>978.3</ele>
        <time>2021-08-25T06:21:28Z</time>
      </trkpt>
      <trkpt lat="45.80614" lon="2.98822">
        <ele>978.3</ele>
        <time>2021-08-25T06:21:29Z</time>
      </trkpt>
      <trkpt lat="45.80617" lon="2.9881">
        <ele>977.9</ele>
        <time>2021-08-25T06:21:34Z</time>
      </trkpt>
      <trkpt lat="45.80622" lon="2.98805">
        <ele>978.1</ele>
        <time>2021-08-25T06:21:38Z</time>
      </trkpt>
      <trkpt lat="45.80624" lon="2.98805">
        <ele>977.7</ele>
        <time>2021-08-25T06:21:39Z</time>
      </trkpt>
      <trkpt lat="45.80633" lon="2.98804">
        <ele>977.9</ele>
        <time>2021-08-25T06:21:45Z</time>
      </trkpt>
      <trkpt lat="45.80638" lon="2.98805">
        <ele>978.3</ele>
        <time>2021-08-25T06:21:48Z</time>
      </trkpt>
      <trkpt lat="45.8064" lon="2.98805">
        <ele>978.5</ele>
        <time>2021-08-25T06:21:49Z</time>
      </trkpt>
      <trkpt lat="45.80646" lon="2.98804">
        <ele>978.7</ele>
        <time>2021-08-25T06:21:52Z</time>
      </trkpt>
      <trkpt lat="45.80649" lon="2.98802">
        <ele>979.1</ele>
        <time>2021-08-25T06:21:54Z</time>
      </trkpt>
      <trkpt lat="45.80651" lon="2.98799">
        <ele>979.4</ele>
        <time>2021-08-25T06:21:56Z</time>
      </trkpt>
      <trkpt lat="45.80654" lon="2.98796">
        <ele>979.4</ele>
        <time>2021-08-25T06:21:58Z</time>
      </trkpt>
      <trkpt lat="45.80655" lon="2.98794">
        <ele>979.4</ele>
        <time>2021-08-25T06:21:59Z</time>
      </trkpt>
      <trkpt lat="45.80656" lon="2.98771">
        <ele>979.3</ele>
        <time>2021-08-25T06:22:08Z</time>
      </trkpt>
      <trkpt lat="45.80657" lon="2.98769">
        <ele>979.3</ele>
        <time>2021-08-25T06:22:09Z</time>
      </trkpt>
      <trkpt lat="45.80657" lon="2.98764">
        <ele>979.3</ele>
        <time>2021-08-25T06:22:11Z</time>
      </trkpt>
      <trkpt lat="45.80658" lon="2.98758">
        <ele>979.3</ele>
        <time>2021-08-25T06:22:14Z</time>
      </trkpt>
      <trkpt lat="45.8066" lon="2.98755">
        <ele>979.3</ele>
        <time>2021-08-25T06:22:16Z</time>
      </trkpt>
      <trkpt lat="45.80664" lon="2.98754">
        <ele>979.4</ele>
        <time>2021-08-25T06:22:18Z</time>
      </trkpt>
      <trkpt lat="45.80665" lon="2.98754">
        <ele>979.5</ele>
        <time>2021-08-25T06:22:19Z</time>
      </trkpt>
      <trkpt lat="45.8068" lon="2.98752">
        <ele>980.9</ele>
        <time>2021-08-25T06:22:28Z</time>
      </trkpt>
      <trkpt lat="45.80682" lon="2.98751">
        <ele>980.9</ele>
        <time>2021-08-25T06:22:29Z</time>
      </trkpt>
      <trkpt lat="45.80684" lon="2.98749">
        <ele>981</ele>
        <time>2021-08-25T06:22:31Z</time>
      </trkpt>
      <trkpt lat="45.80686" lon="2.98742">
        <ele>981.1</ele>
        <time>2021-08-25T06:22:35Z</time>
      </trkpt>
      <trkpt lat="45.80685" lon="2.98727">
        <ele>980.5</ele>
        <time>2021-08-25T06:22:43Z</time>
      </trkpt>
      <trkpt lat="45.80685" lon="2.98725">
        <ele>980.4</ele>
        <time>2021-08-25T06:22:44Z</time>
      </trkpt>
      <trkpt lat="45.80683" lon="2.98706">
        <ele>979.8</ele>
        <time>2021-08-25T06:22:53Z</time>
      </trkpt>
      <trkpt lat="45.80683" lon="2.98703">
        <ele>979.8</ele>
        <time>2021-08-25T06:22:54Z</time>
      </trkpt>
      <trkpt lat="45.80683" lon="2.9868">
        <ele>978.2</ele>
        <time>2021-08-25T06:23:06Z</time>
      </trkpt>
      <trkpt lat="45.80683" lon="2.98678">
        <ele>977.9</ele>
        <time>2021-08-25T06:23:07Z</time>
      </trkpt>
      <trkpt lat="45.80679" lon="2.98658">
        <ele>975.8</ele>
        <time>2021-08-25T06:23:19Z</time>
      </trkpt>
      <trkpt lat="45.80679" lon="2.98656">
        <ele>975.6</ele>
        <time>2021-08-25T06:23:20Z</time>
      </trkpt>
      <trkpt lat="45.80681" lon="2.98641">
        <ele>974</ele>
        <time>2021-08-25T06:23:28Z</time>
      </trkpt>
      <trkpt lat="45.8068" lon="2.98633">
        <ele>973.6</ele>
        <time>2021-08-25T06:23:31Z</time>
      </trkpt>
      <trkpt lat="45.80679" lon="2.98631">
        <ele>973.5</ele>
        <time>2021-08-25T06:23:32Z</time>
      </trkpt>
      <trkpt lat="45.80676" lon="2.98607">
        <ele>971.7</ele>
        <time>2021-08-25T06:23:43Z</time>
      </trkpt>
      <trkpt lat="45.80676" lon="2.98603">
        <ele>971.7</ele>
        <time>2021-08-25T06:23:44Z</time>
      </trkpt>
      <trkpt lat="45.80675" lon="2.9859">
        <ele>971.1</ele>
        <time>2021-08-25T06:23:51Z</time>
      </trkpt>
      <trkpt lat="45.80678" lon="2.98589">
        <ele>971</ele>
        <time>2021-08-25T06:23:56Z</time>
      </trkpt>
      <trkpt lat="45.80683" lon="2.98591">
        <ele>971.2</ele>
        <time>2021-08-25T06:24:00Z</time>
      </trkpt>
      <trkpt lat="45.80686" lon="2.98593">
        <ele>971.2</ele>
        <time>2021-08-25T06:24:03Z</time>
      </trkpt>
      <trkpt lat="45.80687" lon="2.98594">
        <ele>971.3</ele>
        <time>2021-08-25T06:24:04Z</time>
      </trkpt>
      <trkpt lat="45.80694" lon="2.98599">
        <ele>971.8</ele>
        <time>2021-08-25T06:24:10Z</time>
      </trkpt>
      <trkpt lat="45.80701" lon="2.98606">
        <ele>972.1</ele>
        <time>2021-08-25T06:24:16Z</time>
      </trkpt>
      <trkpt lat="45.80702" lon="2.98607">
        <ele>972.3</ele>
        <time>2021-08-25T06:24:17Z</time>
      </trkpt>
      <trkpt lat="45.8071" lon="2.98612">
        <ele>972.6</ele>
        <time>2021-08-25T06:24:22Z</time>
      </trkpt>
      <trkpt lat="45.80718" lon="2.98614">
        <ele>972.8</ele>
        <time>2021-08-25T06:24:27Z</time>
      </trkpt>
      <trkpt lat="45.80719" lon="2.98613">
        <ele>972.9</ele>
        <time>2021-08-25T06:24:28Z</time>
      </trkpt>
      <trkpt lat="45.80723" lon="2.98614">
        <ele>973</ele>
        <time>2021-08-25T06:24:31Z</time>
      </trkpt>
      <trkpt lat="45.80729" lon="2.98618">
        <ele>973.1</ele>
        <time>2021-08-25T06:24:37Z</time>
      </trkpt>
      <trkpt lat="45.80731" lon="2.98618">
        <ele>973</ele>
        <time>2021-08-25T06:24:40Z</time>
      </trkpt>
      <trkpt lat="45.80736" lon="2.98616">
        <ele>972.5</ele>
        <time>2021-08-25T06:24:45Z</time>
      </trkpt>
      <trkpt lat="45.80737" lon="2.98615">
        <ele>972.4</ele>
        <time>2021-08-25T06:24:46Z</time>
      </trkpt>
      <trkpt lat="45.80746" lon="2.98604">
        <ele>971.1</ele>
        <time>2021-08-25T06:24:56Z</time>
      </trkpt>
      <trkpt lat="45.8075" lon="2.98601">
        <ele>970.8</ele>
        <time>2021-08-25T06:24:59Z</time>
      </trkpt>
      <trkpt lat="45.80752" lon="2.986">
        <ele>970.6</ele>
        <time>2021-08-25T06:25:00Z</time>
      </trkpt>
      <trkpt lat="45.8076" lon="2.98593">
        <ele>969.5</ele>
        <time>2021-08-25T06:25:07Z</time>
      </trkpt>
      <trkpt lat="45.80767" lon="2.98591">
        <ele>969.4</ele>
        <time>2021-08-25T06:25:13Z</time>
      </trkpt>
      <trkpt lat="45.80769" lon="2.9859">
        <ele>969.6</ele>
        <time>2021-08-25T06:25:14Z</time>
      </trkpt>
      <trkpt lat="45.80783" lon="2.98581">
        <ele>970.7</ele>
        <time>2021-08-25T06:25:24Z</time>
      </trkpt>
      <trkpt lat="45.80784" lon="2.98581">
        <ele>970.7</ele>
        <time>2021-08-25T06:25:25Z</time>
      </trkpt>
      <trkpt lat="45.80798" lon="2.9858">
        <ele>970.8</ele>
        <time>2021-08-25T06:25:37Z</time>
      </trkpt>
      <trkpt lat="45.80802" lon="2.98576">
        <ele>970.5</ele>
        <time>2021-08-25T06:25:42Z</time>
      </trkpt>
      <trkpt lat="45.80804" lon="2.98573">
        <ele>970.5</ele>
        <time>2021-08-25T06:25:43Z</time>
      </trkpt>
      <trkpt lat="45.80815" lon="2.98558">
        <ele>970.8</ele>
        <time>2021-08-25T06:25:58Z</time>
      </trkpt>
      <trkpt lat="45.80819" lon="2.98553">
        <ele>970.6</ele>
        <time>2021-08-25T06:26:02Z</time>
      </trkpt>
      <trkpt lat="45.8082" lon="2.98552">
        <ele>970.6</ele>
        <time>2021-08-25T06:26:03Z</time>
      </trkpt>
      <trkpt lat="45.80828" lon="2.98547">
        <ele>970.3</ele>
        <time>2021-08-25T06:26:10Z</time>
      </trkpt>
      <trkpt lat="45.80834" lon="2.9854">
        <ele>970.3</ele>
        <time>2021-08-25T06:26:15Z</time>
      </trkpt>
      <trkpt lat="45.80836" lon="2.98539">
        <ele>970.4</ele>
        <time>2021-08-25T06:26:16Z</time>
      </trkpt>
      <trkpt lat="45.80841" lon="2.98535">
        <ele>970.4</ele>
        <time>2021-08-25T06:26:20Z</time>
      </trkpt>
      <trkpt lat="45.80848" lon="2.98525">
        <ele>969.8</ele>
        <time>2021-08-25T06:26:28Z</time>
      </trkpt>
      <trkpt lat="45.80849" lon="2.98524">
        <ele>969.8</ele>
        <time>2021-08-25T06:26:29Z</time>
      </trkpt>
      <trkpt lat="45.80864" lon="2.9851">
        <ele>970.4</ele>
        <time>2021-08-25T06:26:38Z</time>
      </trkpt>
      <trkpt lat="45.80866" lon="2.98508">
        <ele>970.5</ele>
        <time>2021-08-25T06:26:39Z</time>
      </trkpt>
      <trkpt lat="45.80872" lon="2.98503">
        <ele>970.3</ele>
        <time>2021-08-25T06:26:44Z</time>
      </trkpt>
      <trkpt lat="45.80875" lon="2.98497">
        <ele>970.2</ele>
        <time>2021-08-25T06:26:49Z</time>
      </trkpt>
      <trkpt lat="45.80876" lon="2.98493">
        <ele>970</ele>
        <time>2021-08-25T06:26:52Z</time>
      </trkpt>
      <trkpt lat="45.80877" lon="2.98491">
        <ele>970</ele>
        <time>2021-08-25T06:26:53Z</time>
      </trkpt>
      <trkpt lat="45.80881" lon="2.98485">
        <ele>970</ele>
        <time>2021-08-25T06:26:57Z</time>
      </trkpt>
      <trkpt lat="45.80888" lon="2.98478">
        <ele>970.2</ele>
        <time>2021-08-25T06:27:03Z</time>
      </trkpt>
      <trkpt lat="45.80889" lon="2.98477">
        <ele>970.1</ele>
        <time>2021-08-25T06:27:04Z</time>
      </trkpt>
      <trkpt lat="45.80895" lon="2.98472">
        <ele>970.2</ele>
        <time>2021-08-25T06:27:08Z</time>
      </trkpt>
      <trkpt lat="45.809" lon="2.98464">
        <ele>970.4</ele>
        <time>2021-08-25T06:27:13Z</time>
      </trkpt>
      <trkpt lat="45.80902" lon="2.98463">
        <ele>970.4</ele>
        <time>2021-08-25T06:27:14Z</time>
      </trkpt>
      <trkpt lat="45.8091" lon="2.98447">
        <ele>970.8</ele>
        <time>2021-08-25T06:27:26Z</time>
      </trkpt>
      <trkpt lat="45.80911" lon="2.98445">
        <ele>970.9</ele>
        <time>2021-08-25T06:27:27Z</time>
      </trkpt>
      <trkpt lat="45.80922" lon="2.98432">
        <ele>971.4</ele>
        <time>2021-08-25T06:27:36Z</time>
      </trkpt>
      <trkpt lat="45.80923" lon="2.98431">
        <ele>971.5</ele>
        <time>2021-08-25T06:27:37Z</time>
      </trkpt>
      <trkpt lat="45.80925" lon="2.98426">
        <ele>971.8</ele>
        <time>2021-08-25T06:27:40Z</time>
      </trkpt>
      <trkpt lat="45.80935" lon="2.98411">
        <ele>972.7</ele>
        <time>2021-08-25T06:27:53Z</time>
      </trkpt>
      <trkpt lat="45.80935" lon="2.98411">
        <ele>972.7</ele>
        <time>2021-08-25T06:27:54Z</time>
      </trkpt>
      <trkpt lat="45.8094" lon="2.98405">
        <ele>973.2</ele>
        <time>2021-08-25T06:28:01Z</time>
      </trkpt>
      <trkpt lat="45.80949" lon="2.98397">
        <ele>973.6</ele>
        <time>2021-08-25T06:28:09Z</time>
      </trkpt>
      <trkpt lat="45.8095" lon="2.98396">
        <ele>973.8</ele>
        <time>2021-08-25T06:28:10Z</time>
      </trkpt>
      <trkpt lat="45.80955" lon="2.98392">
        <ele>975.2</ele>
        <time>2021-08-25T06:28:17Z</time>
      </trkpt>
      <trkpt lat="45.80964" lon="2.9839">
        <ele>976.4</ele>
        <time>2021-08-25T06:28:27Z</time>
      </trkpt>
      <trkpt lat="45.80966" lon="2.98387">
        <ele>977.6</ele>
        <time>2021-08-25T06:28:35Z</time>
      </trkpt>
      <trkpt lat="45.80967" lon="2.98386">
        <ele>977.8</ele>
        <time>2021-08-25T06:28:36Z</time>
      </trkpt>
      <trkpt lat="45.80973" lon="2.98382">
        <ele>979.4</ele>
        <time>2021-08-25T06:28:46Z</time>
      </trkpt>
      <trkpt lat="45.80979" lon="2.98376">
        <ele>980.5</ele>
        <time>2021-08-25T06:28:53Z</time>
      </trkpt>
      <trkpt lat="45.80981" lon="2.98375">
        <ele>980.8</ele>
        <time>2021-08-25T06:28:55Z</time>
      </trkpt>
      <trkpt lat="45.80983" lon="2.98374">
        <ele>980.9</ele>
        <time>2021-08-25T06:28:56Z</time>
      </trkpt>
      <trkpt lat="45.80995" lon="2.98367">
        <ele>982.4</ele>
        <time>2021-08-25T06:29:08Z</time>
      </trkpt>
      <trkpt lat="45.80999" lon="2.98362">
        <ele>982.6</ele>
        <time>2021-08-25T06:29:13Z</time>
      </trkpt>
      <trkpt lat="45.81001" lon="2.98361">
        <ele>982.7</ele>
        <time>2021-08-25T06:29:14Z</time>
      </trkpt>
      <trkpt lat="45.81009" lon="2.98345">
        <ele>984.1</ele>
        <time>2021-08-25T06:29:28Z</time>
      </trkpt>
      <trkpt lat="45.8101" lon="2.98344">
        <ele>984.2</ele>
        <time>2021-08-25T06:29:29Z</time>
      </trkpt>
      <trkpt lat="45.81011" lon="2.98343">
        <ele>984.4</ele>
        <time>2021-08-25T06:29:30Z</time>
      </trkpt>
      <trkpt lat="45.81022" lon="2.98333">
        <ele>985.1</ele>
        <time>2021-08-25T06:29:40Z</time>
      </trkpt>
      <trkpt lat="45.81025" lon="2.98328">
        <ele>985.5</ele>
        <time>2021-08-25T06:29:44Z</time>
      </trkpt>
      <trkpt lat="45.81026" lon="2.98327">
        <ele>985.6</ele>
        <time>2021-08-25T06:29:45Z</time>
      </trkpt>
      <trkpt lat="45.81037" lon="2.98307">
        <ele>986.7</ele>
        <time>2021-08-25T06:30:00Z</time>
      </trkpt>
      <trkpt lat="45.81038" lon="2.98305">
        <ele>986.7</ele>
        <time>2021-08-25T06:30:01Z</time>
      </trkpt>
      <trkpt lat="45.81048" lon="2.9829">
        <ele>988.1</ele>
        <time>2021-08-25T06:30:10Z</time>
      </trkpt>
      <trkpt lat="45.81049" lon="2.98288">
        <ele>988.1</ele>
        <time>2021-08-25T06:30:11Z</time>
      </trkpt>
      <trkpt lat="45.81055" lon="2.98278">
        <ele>988.8</ele>
        <time>2021-08-25T06:30:18Z</time>
      </trkpt>
      <trkpt lat="45.81058" lon="2.98269">
        <ele>989.1</ele>
        <time>2021-08-25T06:30:24Z</time>
      </trkpt>
      <trkpt lat="45.81058" lon="2.98267">
        <ele>989.2</ele>
        <time>2021-08-25T06:30:25Z</time>
      </trkpt>
      <trkpt lat="45.81065" lon="2.98246">
        <ele>989.8</ele>
        <time>2021-08-25T06:30:39Z</time>
      </trkpt>
      <trkpt lat="45.81066" lon="2.98245">
        <ele>989.8</ele>
        <time>2021-08-25T06:30:40Z</time>
      </trkpt>
      <trkpt lat="45.81074" lon="2.98235">
        <ele>991.5</ele>
        <time>2021-08-25T06:30:49Z</time>
      </trkpt>
      <trkpt lat="45.81075" lon="2.98228">
        <ele>991.6</ele>
        <time>2021-08-25T06:30:53Z</time>
      </trkpt>
      <trkpt lat="45.81076" lon="2.98226">
        <ele>991.6</ele>
        <time>2021-08-25T06:30:54Z</time>
      </trkpt>
      <trkpt lat="45.81081" lon="2.98216">
        <ele>992.1</ele>
        <time>2021-08-25T06:31:00Z</time>
      </trkpt>
      <trkpt lat="45.81083" lon="2.98214">
        <ele>992.5</ele>
        <time>2021-08-25T06:31:02Z</time>
      </trkpt>
      <trkpt lat="45.81088" lon="2.98212">
        <ele>992.8</ele>
        <time>2021-08-25T06:31:05Z</time>
      </trkpt>
      <trkpt lat="45.81089" lon="2.98212">
        <ele>992.8</ele>
        <time>2021-08-25T06:31:06Z</time>
      </trkpt>
      <trkpt lat="45.811" lon="2.98204">
        <ele>995.2</ele>
        <time>2021-08-25T06:31:13Z</time>
      </trkpt>
      <trkpt lat="45.81108" lon="2.98201">
        <ele>996.6</ele>
        <time>2021-08-25T06:31:16Z</time>
      </trkpt>
      <trkpt lat="45.81109" lon="2.982">
        <ele>997</ele>
        <time>2021-08-25T06:31:17Z</time>
      </trkpt>
      <trkpt lat="45.81118" lon="2.98196">
        <ele>999.4</ele>
        <time>2021-08-25T06:31:22Z</time>
      </trkpt>
      <trkpt lat="45.81122" lon="2.98197">
        <ele>1000</ele>
        <time>2021-08-25T06:31:24Z</time>
      </trkpt>
      <trkpt lat="45.81126" lon="2.98196">
        <ele>1001</ele>
        <time>2021-08-25T06:31:26Z</time>
      </trkpt>
      <trkpt lat="45.81129" lon="2.98197">
        <ele>1001.2</ele>
        <time>2021-08-25T06:31:27Z</time>
      </trkpt>
      <trkpt lat="45.81133" lon="2.98197">
        <ele>1002.1</ele>
        <time>2021-08-25T06:31:29Z</time>
      </trkpt>
      <trkpt lat="45.81146" lon="2.982">
        <ele>1003.2</ele>
        <time>2021-08-25T06:31:36Z</time>
      </trkpt>
      <trkpt lat="45.81148" lon="2.98201">
        <ele>1003.3</ele>
        <time>2021-08-25T06:31:37Z</time>
      </trkpt>
      <trkpt lat="45.81151" lon="2.98204">
        <ele>1003.6</ele>
        <time>2021-08-25T06:31:40Z</time>
      </trkpt>
      <trkpt lat="45.81162" lon="2.98207">
        <ele>1004.1</ele>
        <time>2021-08-25T06:31:46Z</time>
      </trkpt>
      <trkpt lat="45.81164" lon="2.98206">
        <ele>1004.5</ele>
        <time>2021-08-25T06:31:47Z</time>
      </trkpt>
      <trkpt lat="45.81165" lon="2.98207">
        <ele>1004.7</ele>
        <time>2021-08-25T06:31:48Z</time>
      </trkpt>
      <trkpt lat="45.81174" lon="2.98207">
        <ele>1006.3</ele>
        <time>2021-08-25T06:31:54Z</time>
      </trkpt>
      <trkpt lat="45.8118" lon="2.98209">
        <ele>1006.6</ele>
        <time>2021-08-25T06:31:58Z</time>
      </trkpt>
      <trkpt lat="45.81181" lon="2.9821">
        <ele>1006.7</ele>
        <time>2021-08-25T06:31:59Z</time>
      </trkpt>
      <trkpt lat="45.81189" lon="2.98214">
        <ele>1006.7</ele>
        <time>2021-08-25T06:32:05Z</time>
      </trkpt>
      <trkpt lat="45.81195" lon="2.98215">
        <ele>1007.5</ele>
        <time>2021-08-25T06:32:10Z</time>
      </trkpt>
      <trkpt lat="45.81196" lon="2.98217">
        <ele>1007.7</ele>
        <time>2021-08-25T06:32:11Z</time>
      </trkpt>
      <trkpt lat="45.81198" lon="2.98217">
        <ele>1007.8</ele>
        <time>2021-08-25T06:32:12Z</time>
      </trkpt>
      <trkpt lat="45.81205" lon="2.98233">
        <ele>1009.6</ele>
        <time>2021-08-25T06:32:21Z</time>
      </trkpt>
      <trkpt lat="45.81206" lon="2.98234">
        <ele>1009.7</ele>
        <time>2021-08-25T06:32:22Z</time>
      </trkpt>
      <trkpt lat="45.8121" lon="2.98242">
        <ele>1010.1</ele>
        <time>2021-08-25T06:32:27Z</time>
      </trkpt>
      <trkpt lat="45.81219" lon="2.98248">
        <ele>1011.5</ele>
        <time>2021-08-25T06:32:35Z</time>
      </trkpt>
      <trkpt lat="45.8122" lon="2.9825">
        <ele>1011.7</ele>
        <time>2021-08-25T06:32:36Z</time>
      </trkpt>
      <trkpt lat="45.81221" lon="2.9825">
        <ele>1011.9</ele>
        <time>2021-08-25T06:32:37Z</time>
      </trkpt>
      <trkpt lat="45.81223" lon="2.98251">
        <ele>1012.2</ele>
        <time>2021-08-25T06:32:39Z</time>
      </trkpt>
      <trkpt lat="45.81227" lon="2.98256">
        <ele>1012.9</ele>
        <time>2021-08-25T06:32:44Z</time>
      </trkpt>
      <trkpt lat="45.81231" lon="2.98267">
        <ele>1013.8</ele>
        <time>2021-08-25T06:32:50Z</time>
      </trkpt>
      <trkpt lat="45.81232" lon="2.98269">
        <ele>1014</ele>
        <time>2021-08-25T06:32:51Z</time>
      </trkpt>
      <trkpt lat="45.81239" lon="2.98283">
        <ele>1014</ele>
        <time>2021-08-25T06:33:00Z</time>
      </trkpt>
      <trkpt lat="45.8124" lon="2.98289">
        <ele>1014.2</ele>
        <time>2021-08-25T06:33:02Z</time>
      </trkpt>
      <trkpt lat="45.81241" lon="2.98291">
        <ele>1014.2</ele>
        <time>2021-08-25T06:33:03Z</time>
      </trkpt>
      <trkpt lat="45.81244" lon="2.98305">
        <ele>1014.7</ele>
        <time>2021-08-25T06:33:10Z</time>
      </trkpt>
      <trkpt lat="45.81248" lon="2.98311">
        <ele>1015.6</ele>
        <time>2021-08-25T06:33:16Z</time>
      </trkpt>
      <trkpt lat="45.81248" lon="2.98312">
        <ele>1015.7</ele>
        <time>2021-08-25T06:33:17Z</time>
      </trkpt>
      <trkpt lat="45.81254" lon="2.98326">
        <ele>1017.7</ele>
        <time>2021-08-25T06:33:28Z</time>
      </trkpt>
      <trkpt lat="45.81252" lon="2.98333">
        <ele>1019.2</ele>
        <time>2021-08-25T06:33:34Z</time>
      </trkpt>
      <trkpt lat="45.81253" lon="2.98336">
        <ele>1019.7</ele>
        <time>2021-08-25T06:33:35Z</time>
      </trkpt>
      <trkpt lat="45.81253" lon="2.98348">
        <ele>1022.9</ele>
        <time>2021-08-25T06:33:46Z</time>
      </trkpt>
      <trkpt lat="45.81253" lon="2.98345">
        <ele>1027.9</ele>
        <time>2021-08-25T06:33:59Z</time>
      </trkpt>
      <trkpt lat="45.8125" lon="2.98338">
        <ele>1029.7</ele>
        <time>2021-08-25T06:34:05Z</time>
      </trkpt>
      <trkpt lat="45.81248" lon="2.98335">
        <ele>1030.5</ele>
        <time>2021-08-25T06:34:08Z</time>
      </trkpt>
      <trkpt lat="45.81247" lon="2.98334">
        <ele>1030.9</ele>
        <time>2021-08-25T06:34:09Z</time>
      </trkpt>
      <trkpt lat="45.8124" lon="2.98323">
        <ele>1032.3</ele>
        <time>2021-08-25T06:34:18Z</time>
      </trkpt>
      <trkpt lat="45.81237" lon="2.98313">
        <ele>1032.6</ele>
        <time>2021-08-25T06:34:24Z</time>
      </trkpt>
      <trkpt lat="45.81237" lon="2.98312">
        <ele>1032.5</ele>
        <time>2021-08-25T06:34:25Z</time>
      </trkpt>
      <trkpt lat="45.81234" lon="2.98306">
        <ele>1033.1</ele>
        <time>2021-08-25T06:34:31Z</time>
      </trkpt>
      <trkpt lat="45.81228" lon="2.98299">
        <ele>1033.2</ele>
        <time>2021-08-25T06:34:39Z</time>
      </trkpt>
      <trkpt lat="45.81225" lon="2.98293">
        <ele>1032.7</ele>
        <time>2021-08-25T06:34:46Z</time>
      </trkpt>
      <trkpt lat="45.81225" lon="2.98293">
        <ele>1032.7</ele>
        <time>2021-08-25T06:34:47Z</time>
      </trkpt>
      <trkpt lat="45.81222" lon="2.98291">
        <ele>1032.6</ele>
        <time>2021-08-25T06:34:49Z</time>
      </trkpt>
      <trkpt lat="45.81213" lon="2.9828">
        <ele>1031.5</ele>
        <time>2021-08-25T06:35:00Z</time>
      </trkpt>
      <trkpt lat="45.81212" lon="2.98279">
        <ele>1031.4</ele>
        <time>2021-08-25T06:35:01Z</time>
      </trkpt>
      <trkpt lat="45.81205" lon="2.9827">
        <ele>1030.7</ele>
        <time>2021-08-25T06:35:08Z</time>
      </trkpt>
      <trkpt lat="45.812" lon="2.98259">
        <ele>1029.6</ele>
        <time>2021-08-25T06:35:17Z</time>
      </trkpt>
      <trkpt lat="45.812" lon="2.98258">
        <ele>1029.5</ele>
        <time>2021-08-25T06:35:18Z</time>
      </trkpt>
      <trkpt lat="45.81199" lon="2.98254">
        <ele>1029.3</ele>
        <time>2021-08-25T06:35:20Z</time>
      </trkpt>
      <trkpt lat="45.8119" lon="2.98241">
        <ele>1027.9</ele>
        <time>2021-08-25T06:35:31Z</time>
      </trkpt>
      <trkpt lat="45.81189" lon="2.9824">
        <ele>1027.7</ele>
        <time>2021-08-25T06:35:32Z</time>
      </trkpt>
      <trkpt lat="45.81176" lon="2.98222">
        <ele>1026.1</ele>
        <time>2021-08-25T06:35:42Z</time>
      </trkpt>
      <trkpt lat="45.81174" lon="2.98221">
        <ele>1025.8</ele>
        <time>2021-08-25T06:35:43Z</time>
      </trkpt>
      <trkpt lat="45.81168" lon="2.98214">
        <ele>1025</ele>
        <time>2021-08-25T06:35:47Z</time>
      </trkpt>
      <trkpt lat="45.81158" lon="2.98208">
        <ele>1023.5</ele>
        <time>2021-08-25T06:35:53Z</time>
      </trkpt>
      <trkpt lat="45.81157" lon="2.98207">
        <ele>1023.3</ele>
        <time>2021-08-25T06:35:54Z</time>
      </trkpt>
      <trkpt lat="45.81155" lon="2.98207">
        <ele>1023.1</ele>
        <time>2021-08-25T06:35:55Z</time>
      </trkpt>
      <trkpt lat="45.81151" lon="2.98204">
        <ele>1022.6</ele>
        <time>2021-08-25T06:35:57Z</time>
      </trkpt>
      <trkpt lat="45.81144" lon="2.982">
        <ele>1021.9</ele>
        <time>2021-08-25T06:36:01Z</time>
      </trkpt>
      <trkpt lat="45.81138" lon="2.98198">
        <ele>1021.7</ele>
        <time>2021-08-25T06:36:04Z</time>
      </trkpt>
      <trkpt lat="45.81136" lon="2.98197">
        <ele>1021.7</ele>
        <time>2021-08-25T06:36:05Z</time>
      </trkpt>
      <trkpt lat="45.81133" lon="2.98193">
        <ele>1021.6</ele>
        <time>2021-08-25T06:36:07Z</time>
      </trkpt>
      <trkpt lat="45.81128" lon="2.98184">
        <ele>1021.9</ele>
        <time>2021-08-25T06:36:11Z</time>
      </trkpt>
      <trkpt lat="45.81126" lon="2.98176">
        <ele>1022</ele>
        <time>2021-08-25T06:36:14Z</time>
      </trkpt>
      <trkpt lat="45.81125" lon="2.98174">
        <ele>1022.1</ele>
        <time>2021-08-25T06:36:15Z</time>
      </trkpt>
      <trkpt lat="45.81122" lon="2.98163">
        <ele>1022.8</ele>
        <time>2021-08-25T06:36:20Z</time>
      </trkpt>
      <trkpt lat="45.8112" lon="2.98157">
        <ele>1023.7</ele>
        <time>2021-08-25T06:36:22Z</time>
      </trkpt>
      <trkpt lat="45.81119" lon="2.98151">
        <ele>1024.8</ele>
        <time>2021-08-25T06:36:25Z</time>
      </trkpt>
      <trkpt lat="45.81119" lon="2.98149">
        <ele>1025</ele>
        <time>2021-08-25T06:36:26Z</time>
      </trkpt>
      <trkpt lat="45.81118" lon="2.9814">
        <ele>1025.6</ele>
        <time>2021-08-25T06:36:30Z</time>
      </trkpt>
      <trkpt lat="45.81115" lon="2.98124">
        <ele>1027.5</ele>
        <time>2021-08-25T06:36:37Z</time>
      </trkpt>
      <trkpt lat="45.81114" lon="2.98121">
        <ele>1027.6</ele>
        <time>2021-08-25T06:36:38Z</time>
      </trkpt>
      <trkpt lat="45.81113" lon="2.98106">
        <ele>1027.7</ele>
        <time>2021-08-25T06:36:46Z</time>
      </trkpt>
      <trkpt lat="45.81117" lon="2.98098">
        <ele>1027.7</ele>
        <time>2021-08-25T06:36:51Z</time>
      </trkpt>
      <trkpt lat="45.81118" lon="2.98094">
        <ele>1027.8</ele>
        <time>2021-08-25T06:36:52Z</time>
      </trkpt>
      <trkpt lat="45.81119" lon="2.98083">
        <ele>1028.2</ele>
        <time>2021-08-25T06:36:57Z</time>
      </trkpt>
      <trkpt lat="45.81119" lon="2.98071">
        <ele>1028</ele>
        <time>2021-08-25T06:37:03Z</time>
      </trkpt>
      <trkpt lat="45.8112" lon="2.98069">
        <ele>1028.2</ele>
        <time>2021-08-25T06:37:04Z</time>
      </trkpt>
      <trkpt lat="45.81121" lon="2.98062">
        <ele>1028</ele>
        <time>2021-08-25T06:37:07Z</time>
      </trkpt>
      <trkpt lat="45.81123" lon="2.98059">
        <ele>1028.1</ele>
        <time>2021-08-25T06:37:08Z</time>
      </trkpt>
      <trkpt lat="45.8113" lon="2.98051">
        <ele>1028</ele>
        <time>2021-08-25T06:37:15Z</time>
      </trkpt>
      <trkpt lat="45.81131" lon="2.9805">
        <ele>1028</ele>
        <time>2021-08-25T06:37:16Z</time>
      </trkpt>
      <trkpt lat="45.81139" lon="2.98041">
        <ele>1028.1</ele>
        <time>2021-08-25T06:37:22Z</time>
      </trkpt>
      <trkpt lat="45.81142" lon="2.98034">
        <ele>1028</ele>
        <time>2021-08-25T06:37:25Z</time>
      </trkpt>
      <trkpt lat="45.81145" lon="2.98032">
        <ele>1028</ele>
        <time>2021-08-25T06:37:26Z</time>
      </trkpt>
      <trkpt lat="45.81151" lon="2.98024">
        <ele>1027.9</ele>
        <time>2021-08-25T06:37:31Z</time>
      </trkpt>
      <trkpt lat="45.81158" lon="2.98017">
        <ele>1027.6</ele>
        <time>2021-08-25T06:37:36Z</time>
      </trkpt>
      <trkpt lat="45.81159" lon="2.98016">
        <ele>1027.5</ele>
        <time>2021-08-25T06:37:37Z</time>
      </trkpt>
      <trkpt lat="45.81162" lon="2.98005">
        <ele>1028.1</ele>
        <time>2021-08-25T06:37:43Z</time>
      </trkpt>
      <trkpt lat="45.81161" lon="2.97992">
        <ele>1027.1</ele>
        <time>2021-08-25T06:37:50Z</time>
      </trkpt>
      <trkpt lat="45.81161" lon="2.9799">
        <ele>1027</ele>
        <time>2021-08-25T06:37:51Z</time>
      </trkpt>
      <trkpt lat="45.81161" lon="2.97988">
        <ele>1026.8</ele>
        <time>2021-08-25T06:37:52Z</time>
      </trkpt>
      <trkpt lat="45.81166" lon="2.97981">
        <ele>1026.4</ele>
        <time>2021-08-25T06:38:01Z</time>
      </trkpt>
      <trkpt lat="45.81166" lon="2.97978">
        <ele>1026.6</ele>
        <time>2021-08-25T06:38:02Z</time>
      </trkpt>
      <trkpt lat="45.81166" lon="2.97971">
        <ele>1026.4</ele>
        <time>2021-08-25T06:38:07Z</time>
      </trkpt>
      <trkpt lat="45.81164" lon="2.97967">
        <ele>1026.2</ele>
        <time>2021-08-25T06:38:11Z</time>
      </trkpt>
      <trkpt lat="45.81164" lon="2.97966">
        <ele>1026.1</ele>
        <time>2021-08-25T06:38:12Z</time>
      </trkpt>
      <trkpt lat="45.81162" lon="2.97953">
        <ele>1025.3</ele>
        <time>2021-08-25T06:38:23Z</time>
      </trkpt>
      <trkpt lat="45.8116" lon="2.97943">
        <ele>1025.1</ele>
        <time>2021-08-25T06:38:29Z</time>
      </trkpt>
      <trkpt lat="45.8116" lon="2.97941">
        <ele>1025.1</ele>
        <time>2021-08-25T06:38:30Z</time>
      </trkpt>
      <trkpt lat="45.81157" lon="2.97936">
        <ele>1025.6</ele>
        <time>2021-08-25T06:38:34Z</time>
      </trkpt>
      <trkpt lat="45.81155" lon="2.97935">
        <ele>1025.8</ele>
        <time>2021-08-25T06:38:36Z</time>
      </trkpt>
      <trkpt lat="45.81151" lon="2.97923">
        <ele>1026.8</ele>
        <time>2021-08-25T06:38:44Z</time>
      </trkpt>
      <trkpt lat="45.8115" lon="2.9792">
        <ele>1027</ele>
        <time>2021-08-25T06:38:45Z</time>
      </trkpt>
      <trkpt lat="45.81148" lon="2.97912">
        <ele>1028</ele>
        <time>2021-08-25T06:38:48Z</time>
      </trkpt>
      <trkpt lat="45.81141" lon="2.97902">
        <ele>1030.5</ele>
        <time>2021-08-25T06:38:57Z</time>
      </trkpt>
      <trkpt lat="45.8114" lon="2.97901">
        <ele>1030.7</ele>
        <time>2021-08-25T06:38:58Z</time>
      </trkpt>
      <trkpt lat="45.81136" lon="2.97897">
        <ele>1031.5</ele>
        <time>2021-08-25T06:39:02Z</time>
      </trkpt>
      <trkpt lat="45.8113" lon="2.97887">
        <ele>1032.9</ele>
        <time>2021-08-25T06:39:10Z</time>
      </trkpt>
      <trkpt lat="45.81127" lon="2.97884">
        <ele>1033.4</ele>
        <time>2021-08-25T06:39:13Z</time>
      </trkpt>
      <trkpt lat="45.81126" lon="2.97883">
        <ele>1033.6</ele>
        <time>2021-08-25T06:39:14Z</time>
      </trkpt>
      <trkpt lat="45.81123" lon="2.97878">
        <ele>1035.1</ele>
        <time>2021-08-25T06:39:21Z</time>
      </trkpt>
      <trkpt lat="45.81121" lon="2.97873">
        <ele>1036.7</ele>
        <time>2021-08-25T06:39:24Z</time>
      </trkpt>
      <trkpt lat="45.81115" lon="2.97864">
        <ele>1040.1</ele>
        <time>2021-08-25T06:39:32Z</time>
      </trkpt>
      <trkpt lat="45.81114" lon="2.97863">
        <ele>1040.5</ele>
        <time>2021-08-25T06:39:33Z</time>
      </trkpt>
      <trkpt lat="45.81109" lon="2.97859">
        <ele>1043.6</ele>
        <time>2021-08-25T06:39:41Z</time>
      </trkpt>
      <trkpt lat="45.81107" lon="2.97856">
        <ele>1045.6</ele>
        <time>2021-08-25T06:39:46Z</time>
      </trkpt>
      <trkpt lat="45.81099" lon="2.9785">
        <ele>1049.1</ele>
        <time>2021-08-25T06:39:58Z</time>
      </trkpt>
      <trkpt lat="45.81098" lon="2.97849">
        <ele>1049.2</ele>
        <time>2021-08-25T06:39:59Z</time>
      </trkpt>
      <trkpt lat="45.81095" lon="2.97844">
        <ele>1051.3</ele>
        <time>2021-08-25T06:40:08Z</time>
      </trkpt>
      <trkpt lat="45.8109" lon="2.9784">
        <ele>1052.8</ele>
        <time>2021-08-25T06:40:20Z</time>
      </trkpt>
      <trkpt lat="45.81083" lon="2.97838">
        <ele>1054.5</ele>
        <time>2021-08-25T06:40:26Z</time>
      </trkpt>
      <trkpt lat="45.81082" lon="2.97838">
        <ele>1054.9</ele>
        <time>2021-08-25T06:40:27Z</time>
      </trkpt>
      <trkpt lat="45.8108" lon="2.97836">
        <ele>1056.6</ele>
        <time>2021-08-25T06:40:32Z</time>
      </trkpt>
      <trkpt lat="45.81077" lon="2.97831">
        <ele>1058.5</ele>
        <time>2021-08-25T06:40:38Z</time>
      </trkpt>
      <trkpt lat="45.81073" lon="2.97828">
        <ele>1060.3</ele>
        <time>2021-08-25T06:40:45Z</time>
      </trkpt>
      <trkpt lat="45.81069" lon="2.97821">
        <ele>1062.8</ele>
        <time>2021-08-25T06:40:53Z</time>
      </trkpt>
      <trkpt lat="45.81068" lon="2.9782">
        <ele>1063</ele>
        <time>2021-08-25T06:40:54Z</time>
      </trkpt>
      <trkpt lat="45.81063" lon="2.97815">
        <ele>1065.3</ele>
        <time>2021-08-25T06:41:01Z</time>
      </trkpt>
      <trkpt lat="45.81058" lon="2.97809">
        <ele>1068.7</ele>
        <time>2021-08-25T06:41:11Z</time>
      </trkpt>
      <trkpt lat="45.81052" lon="2.97807">
        <ele>1070.3</ele>
        <time>2021-08-25T06:41:18Z</time>
      </trkpt>
      <trkpt lat="45.81051" lon="2.97807">
        <ele>1070.5</ele>
        <time>2021-08-25T06:41:19Z</time>
      </trkpt>
      <trkpt lat="45.81048" lon="2.97807">
        <ele>1071.7</ele>
        <time>2021-08-25T06:41:23Z</time>
      </trkpt>
      <trkpt lat="45.81043" lon="2.97804">
        <ele>1074</ele>
        <time>2021-08-25T06:41:30Z</time>
      </trkpt>
      <trkpt lat="45.81038" lon="2.97803">
        <ele>1077</ele>
        <time>2021-08-25T06:41:38Z</time>
      </trkpt>
      <trkpt lat="45.81036" lon="2.97801">
        <ele>1078.4</ele>
        <time>2021-08-25T06:41:42Z</time>
      </trkpt>
      <trkpt lat="45.81034" lon="2.97798">
        <ele>1080.1</ele>
        <time>2021-08-25T06:41:46Z</time>
      </trkpt>
      <trkpt lat="45.81034" lon="2.97797">
        <ele>1080.5</ele>
        <time>2021-08-25T06:41:47Z</time>
      </trkpt>
      <trkpt lat="45.8103" lon="2.9779">
        <ele>1082.8</ele>
        <time>2021-08-25T06:41:54Z</time>
      </trkpt>
      <trkpt lat="45.81025" lon="2.97786">
        <ele>1084.7</ele>
        <time>2021-08-25T06:41:58Z</time>
      </trkpt>
      <trkpt lat="45.81023" lon="2.97779">
        <ele>1087.2</ele>
        <time>2021-08-25T06:42:04Z</time>
      </trkpt>
      <trkpt lat="45.81023" lon="2.97778">
        <ele>1087.5</ele>
        <time>2021-08-25T06:42:05Z</time>
      </trkpt>
      <trkpt lat="45.81016" lon="2.97767">
        <ele>1091.6</ele>
        <time>2021-08-25T06:42:21Z</time>
      </trkpt>
      <trkpt lat="45.8101" lon="2.97761">
        <ele>1095</ele>
        <time>2021-08-25T06:42:31Z</time>
      </trkpt>
      <trkpt lat="45.81009" lon="2.9776">
        <ele>1095.3</ele>
        <time>2021-08-25T06:42:32Z</time>
      </trkpt>
      <trkpt lat="45.81005" lon="2.97754">
        <ele>1097.8</ele>
        <time>2021-08-25T06:42:41Z</time>
      </trkpt>
      <trkpt lat="45.80999" lon="2.97749">
        <ele>1100.4</ele>
        <time>2021-08-25T06:42:52Z</time>
      </trkpt>
      <trkpt lat="45.80994" lon="2.97747">
        <ele>1101.8</ele>
        <time>2021-08-25T06:42:56Z</time>
      </trkpt>
      <trkpt lat="45.80993" lon="2.97747">
        <ele>1102.1</ele>
        <time>2021-08-25T06:42:57Z</time>
      </trkpt>
      <trkpt lat="45.8099" lon="2.97751">
        <ele>1103</ele>
        <time>2021-08-25T06:43:03Z</time>
      </trkpt>
      <trkpt lat="45.80992" lon="2.97756">
        <ele>1103.9</ele>
        <time>2021-08-25T06:43:09Z</time>
      </trkpt>
      <trkpt lat="45.80991" lon="2.97762">
        <ele>1104.9</ele>
        <time>2021-08-25T06:43:13Z</time>
      </trkpt>
      <trkpt lat="45.80992" lon="2.97771">
        <ele>1106.3</ele>
        <time>2021-08-25T06:43:19Z</time>
      </trkpt>
      <trkpt lat="45.80992" lon="2.97772">
        <ele>1106.5</ele>
        <time>2021-08-25T06:43:20Z</time>
      </trkpt>
      <trkpt lat="45.80988" lon="2.97794">
        <ele>1110</ele>
        <time>2021-08-25T06:43:32Z</time>
      </trkpt>
      <trkpt lat="45.80988" lon="2.97796">
        <ele>1110.3</ele>
        <time>2021-08-25T06:43:33Z</time>
      </trkpt>
      <trkpt lat="45.80987" lon="2.97803">
        <ele>1112.1</ele>
        <time>2021-08-25T06:43:38Z</time>
      </trkpt>
      <trkpt lat="45.80988" lon="2.97819">
        <ele>1115.4</ele>
        <time>2021-08-25T06:43:49Z</time>
      </trkpt>
      <trkpt lat="45.80988" lon="2.97821">
        <ele>1115.6</ele>
        <time>2021-08-25T06:43:50Z</time>
      </trkpt>
      <trkpt lat="45.80989" lon="2.97843">
        <ele>1116.9</ele>
        <time>2021-08-25T06:44:03Z</time>
      </trkpt>
      <trkpt lat="45.8099" lon="2.97845">
        <ele>1116.9</ele>
        <time>2021-08-25T06:44:04Z</time>
      </trkpt>
      <trkpt lat="45.80991" lon="2.97867">
        <ele>1116.9</ele>
        <time>2021-08-25T06:44:15Z</time>
      </trkpt>
      <trkpt lat="45.80991" lon="2.97868">
        <ele>1117.1</ele>
        <time>2021-08-25T06:44:16Z</time>
      </trkpt>
      <trkpt lat="45.80993" lon="2.97876">
        <ele>1117.7</ele>
        <time>2021-08-25T06:44:21Z</time>
      </trkpt>
      <trkpt lat="45.80993" lon="2.97889">
        <ele>1119.7</ele>
        <time>2021-08-25T06:44:27Z</time>
      </trkpt>
      <trkpt lat="45.80993" lon="2.97891">
        <ele>1119.9</ele>
        <time>2021-08-25T06:44:28Z</time>
      </trkpt>
      <trkpt lat="45.8099" lon="2.97914">
        <ele>1124.4</ele>
        <time>2021-08-25T06:44:40Z</time>
      </trkpt>
      <trkpt lat="45.8099" lon="2.97915">
        <ele>1124.9</ele>
        <time>2021-08-25T06:44:41Z</time>
      </trkpt>
      <trkpt lat="45.80986" lon="2.97939">
        <ele>1132.5</ele>
        <time>2021-08-25T06:44:56Z</time>
      </trkpt>
      <trkpt lat="45.80985" lon="2.97941">
        <ele>1132.8</ele>
        <time>2021-08-25T06:44:57Z</time>
      </trkpt>
      <trkpt lat="45.8098" lon="2.97965">
        <ele>1141.8</ele>
        <time>2021-08-25T06:45:18Z</time>
      </trkpt>
      <trkpt lat="45.80979" lon="2.97966">
        <ele>1142.2</ele>
        <time>2021-08-25T06:45:19Z</time>
      </trkpt>
      <trkpt lat="45.80979" lon="2.97971">
        <ele>1143.1</ele>
        <time>2021-08-25T06:45:22Z</time>
      </trkpt>
      <trkpt lat="45.80973" lon="2.97981">
        <ele>1145.1</ele>
        <time>2021-08-25T06:45:30Z</time>
      </trkpt>
      <trkpt lat="45.80972" lon="2.97985">
        <ele>1145.8</ele>
        <time>2021-08-25T06:45:33Z</time>
      </trkpt>
      <trkpt lat="45.80971" lon="2.97987">
        <ele>1146</ele>
        <time>2021-08-25T06:45:34Z</time>
      </trkpt>
      <trkpt lat="45.80965" lon="2.98003">
        <ele>1147.9</ele>
        <time>2021-08-25T06:45:44Z</time>
      </trkpt>
      <trkpt lat="45.80962" lon="2.98007">
        <ele>1148.6</ele>
        <time>2021-08-25T06:45:49Z</time>
      </trkpt>
      <trkpt lat="45.80961" lon="2.98008">
        <ele>1148.8</ele>
        <time>2021-08-25T06:45:50Z</time>
      </trkpt>
      <trkpt lat="45.80951" lon="2.98021">
        <ele>1147.8</ele>
        <time>2021-08-25T06:46:04Z</time>
      </trkpt>
      <trkpt lat="45.8095" lon="2.98023">
        <ele>1147.7</ele>
        <time>2021-08-25T06:46:05Z</time>
      </trkpt>
      <trkpt lat="45.80944" lon="2.98032">
        <ele>1147.4</ele>
        <time>2021-08-25T06:46:12Z</time>
      </trkpt>
      <trkpt lat="45.8094" lon="2.98037">
        <ele>1147.4</ele>
        <time>2021-08-25T06:46:15Z</time>
      </trkpt>
      <trkpt lat="45.80938" lon="2.98038">
        <ele>1147.5</ele>
        <time>2021-08-25T06:46:16Z</time>
      </trkpt>
      <trkpt lat="45.80932" lon="2.98044">
        <ele>1148</ele>
        <time>2021-08-25T06:46:21Z</time>
      </trkpt>
      <trkpt lat="45.80926" lon="2.98047">
        <ele>1147.5</ele>
        <time>2021-08-25T06:46:25Z</time>
      </trkpt>
      <trkpt lat="45.80924" lon="2.98048">
        <ele>1147.6</ele>
        <time>2021-08-25T06:46:26Z</time>
      </trkpt>
      <trkpt lat="45.80909" lon="2.98055">
        <ele>1145.8</ele>
        <time>2021-08-25T06:46:36Z</time>
      </trkpt>
      <trkpt lat="45.80907" lon="2.98056">
        <ele>1145.5</ele>
        <time>2021-08-25T06:46:37Z</time>
      </trkpt>
      <trkpt lat="45.80898" lon="2.9806">
        <ele>1144.9</ele>
        <time>2021-08-25T06:46:43Z</time>
      </trkpt>
      <trkpt lat="45.80893" lon="2.98061">
        <ele>1144.8</ele>
        <time>2021-08-25T06:46:46Z</time>
      </trkpt>
      <trkpt lat="45.80891" lon="2.98062">
        <ele>1144.9</ele>
        <time>2021-08-25T06:46:47Z</time>
      </trkpt>
      <trkpt lat="45.80887" lon="2.98062">
        <ele>1144.7</ele>
        <time>2021-08-25T06:46:50Z</time>
      </trkpt>
      <trkpt lat="45.80878" lon="2.98063">
        <ele>1143.8</ele>
        <time>2021-08-25T06:46:56Z</time>
      </trkpt>
      <trkpt lat="45.80876" lon="2.98063">
        <ele>1143.8</ele>
        <time>2021-08-25T06:46:57Z</time>
      </trkpt>
      <trkpt lat="45.8087" lon="2.98062">
        <ele>1142.9</ele>
        <time>2021-08-25T06:47:01Z</time>
      </trkpt>
      <trkpt lat="45.80862" lon="2.98058">
        <ele>1141.2</ele>
        <time>2021-08-25T06:47:08Z</time>
      </trkpt>
      <trkpt lat="45.80861" lon="2.98057">
        <ele>1140.8</ele>
        <time>2021-08-25T06:47:09Z</time>
      </trkpt>
      <trkpt lat="45.80849" lon="2.9805">
        <ele>1137.4</ele>
        <time>2021-08-25T06:47:18Z</time>
      </trkpt>
      <trkpt lat="45.80848" lon="2.98049">
        <ele>1137</ele>
        <time>2021-08-25T06:47:19Z</time>
      </trkpt>
      <trkpt lat="45.80838" lon="2.98037">
        <ele>1133.1</ele>
        <time>2021-08-25T06:47:30Z</time>
      </trkpt>
      <trkpt lat="45.80835" lon="2.98031">
        <ele>1131.5</ele>
        <time>2021-08-25T06:47:35Z</time>
      </trkpt>
      <trkpt lat="45.80834" lon="2.9803">
        <ele>1131.2</ele>
        <time>2021-08-25T06:47:36Z</time>
      </trkpt>
      <trkpt lat="45.80826" lon="2.9801">
        <ele>1128.4</ele>
        <time>2021-08-25T06:47:48Z</time>
      </trkpt>
      <trkpt lat="45.80825" lon="2.98008">
        <ele>1128.2</ele>
        <time>2021-08-25T06:47:49Z</time>
      </trkpt>
      <trkpt lat="45.80818" lon="2.97992">
        <ele>1127.6</ele>
        <time>2021-08-25T06:47:58Z</time>
      </trkpt>
      <trkpt lat="45.80817" lon="2.97989">
        <ele>1127.6</ele>
        <time>2021-08-25T06:47:59Z</time>
      </trkpt>
      <trkpt lat="45.80813" lon="2.97977">
        <ele>1127.5</ele>
        <time>2021-08-25T06:48:05Z</time>
      </trkpt>
      <trkpt lat="45.80812" lon="2.9797">
        <ele>1126.8</ele>
        <time>2021-08-25T06:48:08Z</time>
      </trkpt>
      <trkpt lat="45.80811" lon="2.97968">
        <ele>1126.6</ele>
        <time>2021-08-25T06:48:09Z</time>
      </trkpt>
      <trkpt lat="45.8081" lon="2.97962">
        <ele>1126.3</ele>
        <time>2021-08-25T06:48:12Z</time>
      </trkpt>
      <trkpt lat="45.8081" lon="2.97951">
        <ele>1125.8</ele>
        <time>2021-08-25T06:48:33Z</time>
      </trkpt>
      <trkpt lat="45.80808" lon="2.97944">
        <ele>1126.1</ele>
        <time>2021-08-25T06:48:37Z</time>
      </trkpt>
      <trkpt lat="45.80808" lon="2.97942">
        <ele>1126.1</ele>
        <time>2021-08-25T06:48:38Z</time>
      </trkpt>
      <trkpt lat="45.80808" lon="2.97922">
        <ele>1126.7</ele>
        <time>2021-08-25T06:48:47Z</time>
      </trkpt>
      <trkpt lat="45.80807" lon="2.9792">
        <ele>1126.9</ele>
        <time>2021-08-25T06:48:48Z</time>
      </trkpt>
      <trkpt lat="45.80809" lon="2.97902">
        <ele>1128.4</ele>
        <time>2021-08-25T06:48:57Z</time>
      </trkpt>
      <trkpt lat="45.80809" lon="2.979">
        <ele>1128.5</ele>
        <time>2021-08-25T06:48:58Z</time>
      </trkpt>
      <trkpt lat="45.80811" lon="2.9788">
        <ele>1129.7</ele>
        <time>2021-08-25T06:49:07Z</time>
      </trkpt>
      <trkpt lat="45.80812" lon="2.97877">
        <ele>1129.6</ele>
        <time>2021-08-25T06:49:08Z</time>
      </trkpt>
      <trkpt lat="45.80816" lon="2.97857">
        <ele>1129.7</ele>
        <time>2021-08-25T06:49:17Z</time>
      </trkpt>
      <trkpt lat="45.80816" lon="2.97855">
        <ele>1129.5</ele>
        <time>2021-08-25T06:49:18Z</time>
      </trkpt>
      <trkpt lat="45.80818" lon="2.97842">
        <ele>1130.1</ele>
        <time>2021-08-25T06:49:24Z</time>
      </trkpt>
      <trkpt lat="45.80822" lon="2.97836">
        <ele>1129.8</ele>
        <time>2021-08-25T06:49:29Z</time>
      </trkpt>
      <trkpt lat="45.80822" lon="2.97835">
        <ele>1129.8</ele>
        <time>2021-08-25T06:49:30Z</time>
      </trkpt>
      <trkpt lat="45.8083" lon="2.97815">
        <ele>1128.1</ele>
        <time>2021-08-25T06:49:41Z</time>
      </trkpt>
      <trkpt lat="45.80831" lon="2.97813">
        <ele>1128</ele>
        <time>2021-08-25T06:49:42Z</time>
      </trkpt>
      <trkpt lat="45.8084" lon="2.97796">
        <ele>1127.8</ele>
        <time>2021-08-25T06:49:51Z</time>
      </trkpt>
      <trkpt lat="45.8084" lon="2.97794">
        <ele>1128</ele>
        <time>2021-08-25T06:49:52Z</time>
      </trkpt>
      <trkpt lat="45.80846" lon="2.97784">
        <ele>1128.5</ele>
        <time>2021-08-25T06:49:58Z</time>
      </trkpt>
      <trkpt lat="45.80851" lon="2.97778">
        <ele>1128.8</ele>
        <time>2021-08-25T06:50:02Z</time>
      </trkpt>
      <trkpt lat="45.80852" lon="2.97777">
        <ele>1128.8</ele>
        <time>2021-08-25T06:50:03Z</time>
      </trkpt>
      <trkpt lat="45.80857" lon="2.97768">
        <ele>1130.2</ele>
        <time>2021-08-25T06:50:08Z</time>
      </trkpt>
      <trkpt lat="45.80865" lon="2.97758">
        <ele>1130.9</ele>
        <time>2021-08-25T06:50:16Z</time>
      </trkpt>
      <trkpt lat="45.80867" lon="2.97756">
        <ele>1130.8</ele>
        <time>2021-08-25T06:50:17Z</time>
      </trkpt>
      <trkpt lat="45.8087" lon="2.97754">
        <ele>1130.7</ele>
        <time>2021-08-25T06:50:19Z</time>
      </trkpt>
      <trkpt lat="45.8088" lon="2.97745">
        <ele>1132</ele>
        <time>2021-08-25T06:50:28Z</time>
      </trkpt>
      <trkpt lat="45.80881" lon="2.97744">
        <ele>1131.9</ele>
        <time>2021-08-25T06:50:29Z</time>
      </trkpt>
      <trkpt lat="45.80889" lon="2.97739">
        <ele>1132.3</ele>
        <time>2021-08-25T06:50:35Z</time>
      </trkpt>
      <trkpt lat="45.80894" lon="2.97734">
        <ele>1132.8</ele>
        <time>2021-08-25T06:50:40Z</time>
      </trkpt>
      <trkpt lat="45.80896" lon="2.97733">
        <ele>1133</ele>
        <time>2021-08-25T06:50:41Z</time>
      </trkpt>
      <trkpt lat="45.80911" lon="2.9773">
        <ele>1133.9</ele>
        <time>2021-08-25T06:50:52Z</time>
      </trkpt>
      <trkpt lat="45.80912" lon="2.97729">
        <ele>1133.9</ele>
        <time>2021-08-25T06:50:53Z</time>
      </trkpt>
      <trkpt lat="45.80922" lon="2.97728">
        <ele>1132.8</ele>
        <time>2021-08-25T06:51:00Z</time>
      </trkpt>
      <trkpt lat="45.80926" lon="2.97731">
        <ele>1131.9</ele>
        <time>2021-08-25T06:51:07Z</time>
      </trkpt>
      <trkpt lat="45.80929" lon="2.97731">
        <ele>1131.5</ele>
        <time>2021-08-25T06:51:10Z</time>
      </trkpt>
      <trkpt lat="45.8093" lon="2.97732">
        <ele>1131.4</ele>
        <time>2021-08-25T06:51:11Z</time>
      </trkpt>
      <trkpt lat="45.80935" lon="2.97734">
        <ele>1130.6</ele>
        <time>2021-08-25T06:51:16Z</time>
      </trkpt>
      <trkpt lat="45.80936" lon="2.97738">
        <ele>1129.6</ele>
        <time>2021-08-25T06:51:19Z</time>
      </trkpt>
      <trkpt lat="45.80936" lon="2.97749">
        <ele>1125.7</ele>
        <time>2021-08-25T06:51:28Z</time>
      </trkpt>
      <trkpt lat="45.80936" lon="2.9775">
        <ele>1125.4</ele>
        <time>2021-08-25T06:51:29Z</time>
      </trkpt>
      <trkpt lat="45.80942" lon="2.97761">
        <ele>1121</ele>
        <time>2021-08-25T06:51:39Z</time>
      </trkpt>
      <trkpt lat="45.80945" lon="2.97771">
        <ele>1118.3</ele>
        <time>2021-08-25T06:51:46Z</time>
      </trkpt>
      <trkpt lat="45.80946" lon="2.97772">
        <ele>1118</ele>
        <time>2021-08-25T06:51:47Z</time>
      </trkpt>
      <trkpt lat="45.8095" lon="2.97784">
        <ele>1114.5</ele>
        <time>2021-08-25T06:51:57Z</time>
      </trkpt>
      <trkpt lat="45.80955" lon="2.97795">
        <ele>1113</ele>
        <time>2021-08-25T06:52:04Z</time>
      </trkpt>
      <trkpt lat="45.80956" lon="2.97796">
        <ele>1112.6</ele>
        <time>2021-08-25T06:52:05Z</time>
      </trkpt>
      <trkpt lat="45.8096" lon="2.97798">
        <ele>1112</ele>
        <time>2021-08-25T06:52:08Z</time>
      </trkpt>
      <trkpt lat="45.80964" lon="2.97798">
        <ele>1111.6</ele>
        <time>2021-08-25T06:52:10Z</time>
      </trkpt>
      <trkpt lat="45.80967" lon="2.97796">
        <ele>1111.3</ele>
        <time>2021-08-25T06:52:12Z</time>
      </trkpt>
      <trkpt lat="45.8097" lon="2.97792">
        <ele>1110.8</ele>
        <time>2021-08-25T06:52:15Z</time>
      </trkpt>
      <trkpt lat="45.80971" lon="2.97791">
        <ele>1110.6</ele>
        <time>2021-08-25T06:52:16Z</time>
      </trkpt>
      <trkpt lat="45.80974" lon="2.97783">
        <ele>1111.3</ele>
        <time>2021-08-25T06:52:22Z</time>
      </trkpt>
      <trkpt lat="45.80976" lon="2.97781">
        <ele>1111.4</ele>
        <time>2021-08-25T06:52:24Z</time>
      </trkpt>
      <trkpt lat="45.80981" lon="2.97771">
        <ele>1110.3</ele>
        <time>2021-08-25T06:52:34Z</time>
      </trkpt>
      <trkpt lat="45.80981" lon="2.97769">
        <ele>1110.1</ele>
        <time>2021-08-25T06:52:35Z</time>
      </trkpt>
      <trkpt lat="45.80981" lon="2.97761">
        <ele>1108.3</ele>
        <time>2021-08-25T06:52:42Z</time>
      </trkpt>
      <trkpt lat="45.80979" lon="2.97758">
        <ele>1108.1</ele>
        <time>2021-08-25T06:52:47Z</time>
      </trkpt>
      <trkpt lat="45.80981" lon="2.97757">
        <ele>1109.2</ele>
        <time>2021-08-25T06:52:54Z</time>
      </trkpt>
      <trkpt lat="45.80986" lon="2.97756">
        <ele>1109.1</ele>
        <time>2021-08-25T06:53:00Z</time>
      </trkpt>
      <trkpt lat="45.80989" lon="2.97758">
        <ele>1109.3</ele>
        <time>2021-08-25T06:53:04Z</time>
      </trkpt>
      <trkpt lat="45.8099" lon="2.97759">
        <ele>1109.3</ele>
        <time>2021-08-25T06:53:05Z</time>
      </trkpt>
      <trkpt lat="45.80993" lon="2.97764">
        <ele>1109.5</ele>
        <time>2021-08-25T06:53:10Z</time>
      </trkpt>
      <trkpt lat="45.80999" lon="2.97766">
        <ele>1111.5</ele>
        <time>2021-08-25T06:53:23Z</time>
      </trkpt>
      <trkpt lat="45.81004" lon="2.97771">
        <ele>1111.7</ele>
        <time>2021-08-25T06:53:28Z</time>
      </trkpt>
      <trkpt lat="45.81005" lon="2.97772">
        <ele>1111.5</ele>
        <time>2021-08-25T06:53:29Z</time>
      </trkpt>
      <trkpt lat="45.81015" lon="2.97778">
        <ele>1110.8</ele>
        <time>2021-08-25T06:53:38Z</time>
      </trkpt>
      <trkpt lat="45.81021" lon="2.9778">
        <ele>1110.1</ele>
        <time>2021-08-25T06:53:43Z</time>
      </trkpt>
      <trkpt lat="45.81022" lon="2.9778">
        <ele>1110</ele>
        <time>2021-08-25T06:53:44Z</time>
      </trkpt>
      <trkpt lat="45.81029" lon="2.97785">
        <ele>1109.2</ele>
        <time>2021-08-25T06:53:52Z</time>
      </trkpt>
      <trkpt lat="45.81031" lon="2.97785">
        <ele>1109</ele>
        <time>2021-08-25T06:53:54Z</time>
      </trkpt>
      <trkpt lat="45.81037" lon="2.97788">
        <ele>1108.3</ele>
        <time>2021-08-25T06:53:59Z</time>
      </trkpt>
      <trkpt lat="45.81038" lon="2.97789">
        <ele>1108.2</ele>
        <time>2021-08-25T06:54:00Z</time>
      </trkpt>
      <trkpt lat="45.81055" lon="2.97801">
        <ele>1106.4</ele>
        <time>2021-08-25T06:54:16Z</time>
      </trkpt>
      <trkpt lat="45.81056" lon="2.97802">
        <ele>1106.3</ele>
        <time>2021-08-25T06:54:17Z</time>
      </trkpt>
      <trkpt lat="45.8106" lon="2.97802">
        <ele>1105.7</ele>
        <time>2021-08-25T06:54:22Z</time>
      </trkpt>
      <trkpt lat="45.81065" lon="2.9781">
        <ele>1105</ele>
        <time>2021-08-25T06:54:28Z</time>
      </trkpt>
      <trkpt lat="45.8107" lon="2.97815">
        <ele>1104.2</ele>
        <time>2021-08-25T06:54:33Z</time>
      </trkpt>
      <trkpt lat="45.81071" lon="2.97816">
        <ele>1104.1</ele>
        <time>2021-08-25T06:54:34Z</time>
      </trkpt>
      <trkpt lat="45.81079" lon="2.97824">
        <ele>1102.8</ele>
        <time>2021-08-25T06:54:41Z</time>
      </trkpt>
      <trkpt lat="45.81083" lon="2.9783">
        <ele>1102</ele>
        <time>2021-08-25T06:54:46Z</time>
      </trkpt>
      <trkpt lat="45.81084" lon="2.97831">
        <ele>1101.9</ele>
        <time>2021-08-25T06:54:47Z</time>
      </trkpt>
      <trkpt lat="45.81092" lon="2.97835">
        <ele>1100.2</ele>
        <time>2021-08-25T06:54:54Z</time>
      </trkpt>
      <trkpt lat="45.81097" lon="2.97841">
        <ele>1098.6</ele>
        <time>2021-08-25T06:55:00Z</time>
      </trkpt>
      <trkpt lat="45.81099" lon="2.97843">
        <ele>1097.8</ele>
        <time>2021-08-25T06:55:03Z</time>
      </trkpt>
      <trkpt lat="45.811" lon="2.97843">
        <ele>1097.5</ele>
        <time>2021-08-25T06:55:04Z</time>
      </trkpt>
      <trkpt lat="45.81103" lon="2.97845">
        <ele>1096.8</ele>
        <time>2021-08-25T06:55:07Z</time>
      </trkpt>
      <trkpt lat="45.81114" lon="2.97857">
        <ele>1093.8</ele>
        <time>2021-08-25T06:55:19Z</time>
      </trkpt>
      <trkpt lat="45.81115" lon="2.97858">
        <ele>1093.4</ele>
        <time>2021-08-25T06:55:20Z</time>
      </trkpt>
      <trkpt lat="45.81129" lon="2.97874">
        <ele>1086</ele>
        <time>2021-08-25T06:55:43Z</time>
      </trkpt>
      <trkpt lat="45.8113" lon="2.97875">
        <ele>1085.6</ele>
        <time>2021-08-25T06:55:44Z</time>
      </trkpt>
      <trkpt lat="45.8114" lon="2.97881">
        <ele>1082.3</ele>
        <time>2021-08-25T06:55:54Z</time>
      </trkpt>
      <trkpt lat="45.81147" lon="2.97887">
        <ele>1079.2</ele>
        <time>2021-08-25T06:56:03Z</time>
      </trkpt>
      <trkpt lat="45.81147" lon="2.97888">
        <ele>1078.9</ele>
        <time>2021-08-25T06:56:04Z</time>
      </trkpt>
      <trkpt lat="45.81152" lon="2.97901">
        <ele>1075.1</ele>
        <time>2021-08-25T06:56:17Z</time>
      </trkpt>
      <trkpt lat="45.81158" lon="2.97908">
        <ele>1073.2</ele>
        <time>2021-08-25T06:56:24Z</time>
      </trkpt>
      <trkpt lat="45.81159" lon="2.97909">
        <ele>1073</ele>
        <time>2021-08-25T06:56:25Z</time>
      </trkpt>
      <trkpt lat="45.81167" lon="2.97922">
        <ele>1069.9</ele>
        <time>2021-08-25T06:56:36Z</time>
      </trkpt>
      <trkpt lat="45.81169" lon="2.97928">
        <ele>1069.2</ele>
        <time>2021-08-25T06:56:39Z</time>
      </trkpt>
      <trkpt lat="45.81169" lon="2.97929">
        <ele>1068.9</ele>
        <time>2021-08-25T06:56:40Z</time>
      </trkpt>
      <trkpt lat="45.81175" lon="2.97948">
        <ele>1066.9</ele>
        <time>2021-08-25T06:56:49Z</time>
      </trkpt>
      <trkpt lat="45.81175" lon="2.97949">
        <ele>1066.7</ele>
        <time>2021-08-25T06:56:50Z</time>
      </trkpt>
      <trkpt lat="45.81177" lon="2.97967">
        <ele>1065</ele>
        <time>2021-08-25T06:56:59Z</time>
      </trkpt>
      <trkpt lat="45.8118" lon="2.9797">
        <ele>1064.5</ele>
        <time>2021-08-25T06:57:02Z</time>
      </trkpt>
      <trkpt lat="45.81181" lon="2.9797">
        <ele>1064.4</ele>
        <time>2021-08-25T06:57:03Z</time>
      </trkpt>
      <trkpt lat="45.81183" lon="2.97968">
        <ele>1063.5</ele>
        <time>2021-08-25T06:57:07Z</time>
      </trkpt>
      <trkpt lat="45.81186" lon="2.97964">
        <ele>1062.5</ele>
        <time>2021-08-25T06:57:17Z</time>
      </trkpt>
      <trkpt lat="45.81189" lon="2.97949">
        <ele>1062.1</ele>
        <time>2021-08-25T06:57:26Z</time>
      </trkpt>
      <trkpt lat="45.8119" lon="2.97947">
        <ele>1062.1</ele>
        <time>2021-08-25T06:57:27Z</time>
      </trkpt>
      <trkpt lat="45.81195" lon="2.97938">
        <ele>1061.6</ele>
        <time>2021-08-25T06:57:32Z</time>
      </trkpt>
      <trkpt lat="45.81197" lon="2.9793">
        <ele>1061.2</ele>
        <time>2021-08-25T06:57:36Z</time>
      </trkpt>
      <trkpt lat="45.81197" lon="2.97928">
        <ele>1061.1</ele>
        <time>2021-08-25T06:57:37Z</time>
      </trkpt>
      <trkpt lat="45.81199" lon="2.97918">
        <ele>1060.1</ele>
        <time>2021-08-25T06:57:42Z</time>
      </trkpt>
      <trkpt lat="45.81202" lon="2.97914">
        <ele>1059.3</ele>
        <time>2021-08-25T06:57:45Z</time>
      </trkpt>
      <trkpt lat="45.81204" lon="2.97909">
        <ele>1058.6</ele>
        <time>2021-08-25T06:57:48Z</time>
      </trkpt>
      <trkpt lat="45.81205" lon="2.97908">
        <ele>1058.5</ele>
        <time>2021-08-25T06:57:49Z</time>
      </trkpt>
      <trkpt lat="45.81207" lon="2.979">
        <ele>1057.3</ele>
        <time>2021-08-25T06:57:54Z</time>
      </trkpt>
      <trkpt lat="45.81213" lon="2.97889">
        <ele>1054.9</ele>
        <time>2021-08-25T06:58:03Z</time>
      </trkpt>
      <trkpt lat="45.81213" lon="2.97888">
        <ele>1054.6</ele>
        <time>2021-08-25T06:58:04Z</time>
      </trkpt>
      <trkpt lat="45.81214" lon="2.97884">
        <ele>1054.1</ele>
        <time>2021-08-25T06:58:08Z</time>
      </trkpt>
      <trkpt lat="45.81214" lon="2.97869">
        <ele>1053.2</ele>
        <time>2021-08-25T06:58:21Z</time>
      </trkpt>
      <trkpt lat="45.81215" lon="2.97865">
        <ele>1052.7</ele>
        <time>2021-08-25T06:58:25Z</time>
      </trkpt>
      <trkpt lat="45.81215" lon="2.97864">
        <ele>1052.5</ele>
        <time>2021-08-25T06:58:26Z</time>
      </trkpt>
      <trkpt lat="45.81216" lon="2.97857">
        <ele>1051.6</ele>
        <time>2021-08-25T06:58:31Z</time>
      </trkpt>
      <trkpt lat="45.81219" lon="2.97847">
        <ele>1050.6</ele>
        <time>2021-08-25T06:58:36Z</time>
      </trkpt>
      <trkpt lat="45.8122" lon="2.97843">
        <ele>1050</ele>
        <time>2021-08-25T06:58:39Z</time>
      </trkpt>
      <trkpt lat="45.8122" lon="2.97842">
        <ele>1049.8</ele>
        <time>2021-08-25T06:58:40Z</time>
      </trkpt>
      <trkpt lat="45.81222" lon="2.9784">
        <ele>1048.4</ele>
        <time>2021-08-25T06:58:45Z</time>
      </trkpt>
      <trkpt lat="45.81224" lon="2.97839">
        <ele>1047.9</ele>
        <time>2021-08-25T06:58:47Z</time>
      </trkpt>
      <trkpt lat="45.81227" lon="2.97827">
        <ele>1045.8</ele>
        <time>2021-08-25T06:59:02Z</time>
      </trkpt>
      <trkpt lat="45.81229" lon="2.97823">
        <ele>1045.2</ele>
        <time>2021-08-25T06:59:07Z</time>
      </trkpt>
      <trkpt lat="45.81229" lon="2.97822">
        <ele>1045.2</ele>
        <time>2021-08-25T06:59:08Z</time>
      </trkpt>
      <trkpt lat="45.8123" lon="2.97812">
        <ele>1045.3</ele>
        <time>2021-08-25T06:59:22Z</time>
      </trkpt>
      <trkpt lat="45.81232" lon="2.97803">
        <ele>1044.1</ele>
        <time>2021-08-25T06:59:30Z</time>
      </trkpt>
      <trkpt lat="45.81234" lon="2.978">
        <ele>1043.7</ele>
        <time>2021-08-25T06:59:33Z</time>
      </trkpt>
      <trkpt lat="45.81234" lon="2.97799">
        <ele>1043.5</ele>
        <time>2021-08-25T06:59:34Z</time>
      </trkpt>
      <trkpt lat="45.81236" lon="2.97792">
        <ele>1042.9</ele>
        <time>2021-08-25T06:59:39Z</time>
      </trkpt>
      <trkpt lat="45.81238" lon="2.97774">
        <ele>1040.9</ele>
        <time>2021-08-25T06:59:53Z</time>
      </trkpt>
      <trkpt lat="45.81239" lon="2.97773">
        <ele>1040.8</ele>
        <time>2021-08-25T06:59:54Z</time>
      </trkpt>
      <trkpt lat="45.81239" lon="2.97765">
        <ele>1039.8</ele>
        <time>2021-08-25T07:00:00Z</time>
      </trkpt>
      <trkpt lat="45.81245" lon="2.97749">
        <ele>1037.3</ele>
        <time>2021-08-25T07:00:09Z</time>
      </trkpt>
      <trkpt lat="45.81246" lon="2.97748">
        <ele>1037</ele>
        <time>2021-08-25T07:00:10Z</time>
      </trkpt>
      <trkpt lat="45.81249" lon="2.97736">
        <ele>1035.1</ele>
        <time>2021-08-25T07:00:17Z</time>
      </trkpt>
      <trkpt lat="45.81253" lon="2.97725">
        <ele>1033.8</ele>
        <time>2021-08-25T07:00:22Z</time>
      </trkpt>
      <trkpt lat="45.81254" lon="2.97723">
        <ele>1033.5</ele>
        <time>2021-08-25T07:00:23Z</time>
      </trkpt>
      <trkpt lat="45.81258" lon="2.97718">
        <ele>1032.5</ele>
        <time>2021-08-25T07:00:26Z</time>
      </trkpt>
      <trkpt lat="45.81263" lon="2.97712">
        <ele>1030.6</ele>
        <time>2021-08-25T07:00:31Z</time>
      </trkpt>
      <trkpt lat="45.81266" lon="2.97706">
        <ele>1029.1</ele>
        <time>2021-08-25T07:00:35Z</time>
      </trkpt>
      <trkpt lat="45.81266" lon="2.97706">
        <ele>1028.8</ele>
        <time>2021-08-25T07:00:36Z</time>
      </trkpt>
      <trkpt lat="45.81268" lon="2.97702">
        <ele>1026.7</ele>
        <time>2021-08-25T07:00:41Z</time>
      </trkpt>
      <trkpt lat="45.81274" lon="2.97699">
        <ele>1023.4</ele>
        <time>2021-08-25T07:00:48Z</time>
      </trkpt>
      <trkpt lat="45.8128" lon="2.97694">
        <ele>1019.4</ele>
        <time>2021-08-25T07:01:01Z</time>
      </trkpt>
      <trkpt lat="45.81281" lon="2.97693">
        <ele>1019</ele>
        <time>2021-08-25T07:01:02Z</time>
      </trkpt>
      <trkpt lat="45.81292" lon="2.97692">
        <ele>1016.8</ele>
        <time>2021-08-25T07:01:18Z</time>
      </trkpt>
      <trkpt lat="45.81293" lon="2.97695">
        <ele>1016.6</ele>
        <time>2021-08-25T07:01:20Z</time>
      </trkpt>
      <trkpt lat="45.81292" lon="2.97697">
        <ele>1015.9</ele>
        <time>2021-08-25T07:01:25Z</time>
      </trkpt>
      <trkpt lat="45.8129" lon="2.97695">
        <ele>1015.6</ele>
        <time>2021-08-25T07:01:26Z</time>
      </trkpt>
      <trkpt lat="45.8129" lon="2.97694">
        <ele>1015.5</ele>
        <time>2021-08-25T07:01:27Z</time>
      </trkpt>
      <trkpt lat="45.81291" lon="2.97697">
        <ele>1015.5</ele>
        <time>2021-08-25T07:01:32Z</time>
      </trkpt>
      <trkpt lat="45.81288" lon="2.97698">
        <ele>1014.8</ele>
        <time>2021-08-25T07:01:33Z</time>
      </trkpt>
      <trkpt lat="45.81286" lon="2.97703">
        <ele>1013.8</ele>
        <time>2021-08-25T07:01:39Z</time>
      </trkpt>
      <trkpt lat="45.81279" lon="2.97708">
        <ele>1012.8</ele>
        <time>2021-08-25T07:01:44Z</time>
      </trkpt>
      <trkpt lat="45.81278" lon="2.9771">
        <ele>1012.6</ele>
        <time>2021-08-25T07:01:45Z</time>
      </trkpt>
      <trkpt lat="45.81277" lon="2.97711">
        <ele>1012.5</ele>
        <time>2021-08-25T07:01:46Z</time>
      </trkpt>
      <trkpt lat="45.81272" lon="2.9771">
        <ele>1011.6</ele>
        <time>2021-08-25T07:01:51Z</time>
      </trkpt>
      <trkpt lat="45.8127" lon="2.97708">
        <ele>1011.7</ele>
        <time>2021-08-25T07:01:54Z</time>
      </trkpt>
      <trkpt lat="45.81269" lon="2.97705">
        <ele>1011.8</ele>
        <time>2021-08-25T07:01:56Z</time>
      </trkpt>
      <trkpt lat="45.81269" lon="2.97702">
        <ele>1012.1</ele>
        <time>2021-08-25T07:01:58Z</time>
      </trkpt>
      <trkpt lat="45.81271" lon="2.97694">
        <ele>1011.9</ele>
        <time>2021-08-25T07:02:03Z</time>
      </trkpt>
      <trkpt lat="45.81272" lon="2.97694">
        <ele>1011.8</ele>
        <time>2021-08-25T07:02:04Z</time>
      </trkpt>
      <trkpt lat="45.81276" lon="2.97688">
        <ele>1011.1</ele>
        <time>2021-08-25T07:02:09Z</time>
      </trkpt>
      <trkpt lat="45.81285" lon="2.9768">
        <ele>1010</ele>
        <time>2021-08-25T07:02:17Z</time>
      </trkpt>
      <trkpt lat="45.81286" lon="2.97679">
        <ele>1010</ele>
        <time>2021-08-25T07:02:18Z</time>
      </trkpt>
      <trkpt lat="45.81293" lon="2.97675">
        <ele>1010.3</ele>
        <time>2021-08-25T07:02:24Z</time>
      </trkpt>
      <trkpt lat="45.81301" lon="2.97666">
        <ele>1009.3</ele>
        <time>2021-08-25T07:02:34Z</time>
      </trkpt>
      <trkpt lat="45.81302" lon="2.97665">
        <ele>1009</ele>
        <time>2021-08-25T07:02:35Z</time>
      </trkpt>
      <trkpt lat="45.81305" lon="2.97657">
        <ele>1008.3</ele>
        <time>2021-08-25T07:02:40Z</time>
      </trkpt>
      <trkpt lat="45.81309" lon="2.97653">
        <ele>1007.5</ele>
        <time>2021-08-25T07:02:48Z</time>
      </trkpt>
      <trkpt lat="45.81308" lon="2.97651">
        <ele>1006.9</ele>
        <time>2021-08-25T07:03:16Z</time>
      </trkpt>
      <trkpt lat="45.8131" lon="2.97644">
        <ele>1005.3</ele>
        <time>2021-08-25T07:03:22Z</time>
      </trkpt>
      <trkpt lat="45.8131" lon="2.97644">
        <ele>1005</ele>
        <time>2021-08-25T07:03:23Z</time>
      </trkpt>
      <trkpt lat="45.81317" lon="2.97635">
        <ele>1003.5</ele>
        <time>2021-08-25T07:03:45Z</time>
      </trkpt>
      <trkpt lat="45.81322" lon="2.97621">
        <ele>1002.6</ele>
        <time>2021-08-25T07:04:10Z</time>
      </trkpt>
      <trkpt lat="45.81324" lon="2.97619">
        <ele>1001.5</ele>
        <time>2021-08-25T07:04:16Z</time>
      </trkpt>
      <trkpt lat="45.81325" lon="2.97618">
        <ele>1001.4</ele>
        <time>2021-08-25T07:04:17Z</time>
      </trkpt>
      <trkpt lat="45.81326" lon="2.97617">
        <ele>1001.1</ele>
        <time>2021-08-25T07:04:18Z</time>
      </trkpt>
      <trkpt lat="45.81327" lon="2.97614">
        <ele>1000.3</ele>
        <time>2021-08-25T07:04:22Z</time>
      </trkpt>
      <trkpt lat="45.8133" lon="2.97599">
        <ele>997.9</ele>
        <time>2021-08-25T07:04:35Z</time>
      </trkpt>
      <trkpt lat="45.81332" lon="2.97596">
        <ele>997.1</ele>
        <time>2021-08-25T07:04:38Z</time>
      </trkpt>
      <trkpt lat="45.81332" lon="2.97595">
        <ele>996.8</ele>
        <time>2021-08-25T07:04:39Z</time>
      </trkpt>
      <trkpt lat="45.81333" lon="2.97591">
        <ele>995.2</ele>
        <time>2021-08-25T07:04:44Z</time>
      </trkpt>
      <trkpt lat="45.81338" lon="2.9759">
        <ele>994.3</ele>
        <time>2021-08-25T07:04:50Z</time>
      </trkpt>
      <trkpt lat="45.81341" lon="2.97592">
        <ele>993.9</ele>
        <time>2021-08-25T07:04:53Z</time>
      </trkpt>
      <trkpt lat="45.81346" lon="2.97598">
        <ele>993.4</ele>
        <time>2021-08-25T07:04:58Z</time>
      </trkpt>
      <trkpt lat="45.81346" lon="2.97599">
        <ele>993.2</ele>
        <time>2021-08-25T07:04:59Z</time>
      </trkpt>
      <trkpt lat="45.8135" lon="2.97605">
        <ele>992.3</ele>
        <time>2021-08-25T07:05:04Z</time>
      </trkpt>
      <trkpt lat="45.81356" lon="2.97612">
        <ele>990.7</ele>
        <time>2021-08-25T07:05:12Z</time>
      </trkpt>
      <trkpt lat="45.8136" lon="2.97614">
        <ele>990.2</ele>
        <time>2021-08-25T07:05:15Z</time>
      </trkpt>
      <trkpt lat="45.81361" lon="2.97614">
        <ele>990.1</ele>
        <time>2021-08-25T07:05:16Z</time>
      </trkpt>
      <trkpt lat="45.8137" lon="2.97618">
        <ele>989.2</ele>
        <time>2021-08-25T07:05:23Z</time>
      </trkpt>
      <trkpt lat="45.81374" lon="2.97618">
        <ele>988.9</ele>
        <time>2021-08-25T07:05:26Z</time>
      </trkpt>
      <trkpt lat="45.81376" lon="2.97618">
        <ele>988.7</ele>
        <time>2021-08-25T07:05:27Z</time>
      </trkpt>
      <trkpt lat="45.81383" lon="2.97619">
        <ele>988.2</ele>
        <time>2021-08-25T07:05:31Z</time>
      </trkpt>
      <trkpt lat="45.81393" lon="2.97623">
        <ele>987.5</ele>
        <time>2021-08-25T07:05:36Z</time>
      </trkpt>
      <trkpt lat="45.81395" lon="2.97624">
        <ele>987.5</ele>
        <time>2021-08-25T07:05:37Z</time>
      </trkpt>
      <trkpt lat="45.81403" lon="2.97627">
        <ele>986.5</ele>
        <time>2021-08-25T07:05:42Z</time>
      </trkpt>
      <trkpt lat="45.81411" lon="2.97634">
        <ele>984.8</ele>
        <time>2021-08-25T07:05:49Z</time>
      </trkpt>
      <trkpt lat="45.81412" lon="2.97635">
        <ele>984.5</ele>
        <time>2021-08-25T07:05:50Z</time>
      </trkpt>
      <trkpt lat="45.81417" lon="2.97639">
        <ele>983.6</ele>
        <time>2021-08-25T07:05:54Z</time>
      </trkpt>
      <trkpt lat="45.81421" lon="2.9764">
        <ele>983</ele>
        <time>2021-08-25T07:05:57Z</time>
      </trkpt>
      <trkpt lat="45.81424" lon="2.97643">
        <ele>982.9</ele>
        <time>2021-08-25T07:05:59Z</time>
      </trkpt>
      <trkpt lat="45.81425" lon="2.97647">
        <ele>982.8</ele>
        <time>2021-08-25T07:06:01Z</time>
      </trkpt>
      <trkpt lat="45.81426" lon="2.97648">
        <ele>982.8</ele>
        <time>2021-08-25T07:06:02Z</time>
      </trkpt>
      <trkpt lat="45.81429" lon="2.97648">
        <ele>982.3</ele>
        <time>2021-08-25T07:06:05Z</time>
      </trkpt>
      <trkpt lat="45.81432" lon="2.9765">
        <ele>981.7</ele>
        <time>2021-08-25T07:06:07Z</time>
      </trkpt>
      <trkpt lat="45.81434" lon="2.9765">
        <ele>981.2</ele>
        <time>2021-08-25T07:06:09Z</time>
      </trkpt>
      <trkpt lat="45.81443" lon="2.97659">
        <ele>979</ele>
        <time>2021-08-25T07:06:21Z</time>
      </trkpt>
      <trkpt lat="45.81445" lon="2.97661">
        <ele>979</ele>
        <time>2021-08-25T07:06:22Z</time>
      </trkpt>
      <trkpt lat="45.81449" lon="2.97667">
        <ele>978.4</ele>
        <time>2021-08-25T07:06:28Z</time>
      </trkpt>
      <trkpt lat="45.81454" lon="2.9767">
        <ele>978</ele>
        <time>2021-08-25T07:06:33Z</time>
      </trkpt>
      <trkpt lat="45.81455" lon="2.97672">
        <ele>977.8</ele>
        <time>2021-08-25T07:06:35Z</time>
      </trkpt>
      <trkpt lat="45.8146" lon="2.97676">
        <ele>977</ele>
        <time>2021-08-25T07:06:40Z</time>
      </trkpt>
      <trkpt lat="45.8146" lon="2.97677">
        <ele>976.9</ele>
        <time>2021-08-25T07:06:41Z</time>
      </trkpt>
      <trkpt lat="45.81464" lon="2.97681">
        <ele>976.6</ele>
        <time>2021-08-25T07:06:46Z</time>
      </trkpt>
      <trkpt lat="45.81466" lon="2.97679">
        <ele>976.9</ele>
        <time>2021-08-25T07:06:48Z</time>
      </trkpt>
      <trkpt lat="45.81468" lon="2.9768">
        <ele>976.8</ele>
        <time>2021-08-25T07:06:51Z</time>
      </trkpt>
      <trkpt lat="45.81471" lon="2.97686">
        <ele>976.8</ele>
        <time>2021-08-25T07:06:56Z</time>
      </trkpt>
      <trkpt lat="45.81472" lon="2.97685">
        <ele>976.9</ele>
        <time>2021-08-25T07:06:58Z</time>
      </trkpt>
      <trkpt lat="45.81474" lon="2.97685">
        <ele>977</ele>
        <time>2021-08-25T07:06:59Z</time>
      </trkpt>
      <trkpt lat="45.81475" lon="2.97686">
        <ele>977.1</ele>
        <time>2021-08-25T07:07:00Z</time>
      </trkpt>
      <trkpt lat="45.81477" lon="2.97686">
        <ele>977.3</ele>
        <time>2021-08-25T07:07:01Z</time>
      </trkpt>
      <trkpt lat="45.81484" lon="2.97694">
        <ele>977.3</ele>
        <time>2021-08-25T07:07:09Z</time>
      </trkpt>
      <trkpt lat="45.81489" lon="2.97694">
        <ele>977.7</ele>
        <time>2021-08-25T07:07:13Z</time>
      </trkpt>
      <trkpt lat="45.8149" lon="2.97695">
        <ele>977.7</ele>
        <time>2021-08-25T07:07:14Z</time>
      </trkpt>
      <trkpt lat="45.81495" lon="2.97699">
        <ele>978.2</ele>
        <time>2021-08-25T07:07:19Z</time>
      </trkpt>
      <trkpt lat="45.81497" lon="2.97699">
        <ele>978.3</ele>
        <time>2021-08-25T07:07:21Z</time>
      </trkpt>
      <trkpt lat="45.81499" lon="2.97698">
        <ele>978.8</ele>
        <time>2021-08-25T07:07:23Z</time>
      </trkpt>
      <trkpt lat="45.81501" lon="2.97699">
        <ele>979.2</ele>
        <time>2021-08-25T07:07:26Z</time>
      </trkpt>
      <trkpt lat="45.81504" lon="2.97698">
        <ele>979.8</ele>
        <time>2021-08-25T07:07:31Z</time>
      </trkpt>
      <trkpt lat="45.81505" lon="2.97696">
        <ele>980.3</ele>
        <time>2021-08-25T07:07:41Z</time>
      </trkpt>
      <trkpt lat="45.81504" lon="2.97687">
        <ele>982.9</ele>
        <time>2021-08-25T07:07:42Z</time>
      </trkpt>
      <trkpt lat="45.81504" lon="2.97686">
        <ele>983.2</ele>
        <time>2021-08-25T07:07:43Z</time>
      </trkpt>
      <trkpt lat="45.81501" lon="2.97683">
        <ele>984.5</ele>
        <time>2021-08-25T07:07:48Z</time>
      </trkpt>
      <trkpt lat="45.81497" lon="2.97682">
        <ele>985</ele>
        <time>2021-08-25T07:07:52Z</time>
      </trkpt>
      <trkpt lat="45.8149" lon="2.97667">
        <ele>988.6</ele>
        <time>2021-08-25T07:07:58Z</time>
      </trkpt>
      <trkpt lat="45.81489" lon="2.97665">
        <ele>989.1</ele>
        <time>2021-08-25T07:07:59Z</time>
      </trkpt>
      <trkpt lat="45.8148" lon="2.97654">
        <ele>993.1</ele>
        <time>2021-08-25T07:08:10Z</time>
      </trkpt>
      <trkpt lat="45.81474" lon="2.97654">
        <ele>994.3</ele>
        <time>2021-08-25T07:08:16Z</time>
      </trkpt>
      <trkpt lat="45.81473" lon="2.97654">
        <ele>994.6</ele>
        <time>2021-08-25T07:08:17Z</time>
      </trkpt>
      <trkpt lat="45.81465" lon="2.97652">
        <ele>995.8</ele>
        <time>2021-08-25T07:08:25Z</time>
      </trkpt>
      <trkpt lat="45.81463" lon="2.97653">
        <ele>996</ele>
        <time>2021-08-25T07:08:28Z</time>
      </trkpt>
      <trkpt lat="45.81461" lon="2.97652">
        <ele>996</ele>
        <time>2021-08-25T07:08:30Z</time>
      </trkpt>
      <trkpt lat="45.81456" lon="2.97651">
        <ele>996.2</ele>
        <time>2021-08-25T07:08:34Z</time>
      </trkpt>
      <trkpt lat="45.81455" lon="2.9765">
        <ele>996.2</ele>
        <time>2021-08-25T07:08:35Z</time>
      </trkpt>
      <trkpt lat="45.8145" lon="2.97647">
        <ele>996.5</ele>
        <time>2021-08-25T07:08:40Z</time>
      </trkpt>
      <trkpt lat="45.81445" lon="2.97642">
        <ele>996.7</ele>
        <time>2021-08-25T07:08:44Z</time>
      </trkpt>
      <trkpt lat="45.8144" lon="2.9764">
        <ele>996.4</ele>
        <time>2021-08-25T07:08:48Z</time>
      </trkpt>
      <trkpt lat="45.81438" lon="2.9764">
        <ele>996.3</ele>
        <time>2021-08-25T07:08:49Z</time>
      </trkpt>
      <trkpt lat="45.8143" lon="2.97636">
        <ele>996.2</ele>
        <time>2021-08-25T07:08:54Z</time>
      </trkpt>
      <trkpt lat="45.81423" lon="2.97631">
        <ele>996.1</ele>
        <time>2021-08-25T07:08:58Z</time>
      </trkpt>
      <trkpt lat="45.81422" lon="2.9763">
        <ele>996.2</ele>
        <time>2021-08-25T07:08:59Z</time>
      </trkpt>
      <trkpt lat="45.81414" lon="2.97626">
        <ele>995.8</ele>
        <time>2021-08-25T07:09:08Z</time>
      </trkpt>
      <trkpt lat="45.81407" lon="2.97626">
        <ele>995.9</ele>
        <time>2021-08-25T07:09:12Z</time>
      </trkpt>
      <trkpt lat="45.81406" lon="2.97626">
        <ele>995.9</ele>
        <time>2021-08-25T07:09:13Z</time>
      </trkpt>
      <trkpt lat="45.81397" lon="2.97625">
        <ele>995.2</ele>
        <time>2021-08-25T07:09:23Z</time>
      </trkpt>
      <trkpt lat="45.81393" lon="2.97622">
        <ele>995</ele>
        <time>2021-08-25T07:09:25Z</time>
      </trkpt>
      <trkpt lat="45.8139" lon="2.97622">
        <ele>995</ele>
        <time>2021-08-25T07:09:28Z</time>
      </trkpt>
      <trkpt lat="45.81388" lon="2.97623">
        <ele>995</ele>
        <time>2021-08-25T07:09:29Z</time>
      </trkpt>
      <trkpt lat="45.81376" lon="2.97628">
        <ele>994.1</ele>
        <time>2021-08-25T07:09:41Z</time>
      </trkpt>
      <trkpt lat="45.81371" lon="2.97627">
        <ele>994</ele>
        <time>2021-08-25T07:09:44Z</time>
      </trkpt>
      <trkpt lat="45.8137" lon="2.97627">
        <ele>993.9</ele>
        <time>2021-08-25T07:09:45Z</time>
      </trkpt>
      <trkpt lat="45.81367" lon="2.97627">
        <ele>993.8</ele>
        <time>2021-08-25T07:09:49Z</time>
      </trkpt>
      <trkpt lat="45.8137" lon="2.97627">
        <ele>994.2</ele>
        <time>2021-08-25T07:10:13Z</time>
      </trkpt>
      <trkpt lat="45.81379" lon="2.97624">
        <ele>994.1</ele>
        <time>2021-08-25T07:10:20Z</time>
      </trkpt>
      <trkpt lat="45.8138" lon="2.97624">
        <ele>994.1</ele>
        <time>2021-08-25T07:10:21Z</time>
      </trkpt>
      <trkpt lat="45.81386" lon="2.97626">
        <ele>994.2</ele>
        <time>2021-08-25T07:10:25Z</time>
      </trkpt>
      <trkpt lat="45.81391" lon="2.97625">
        <ele>994.1</ele>
        <time>2021-08-25T07:10:29Z</time>
      </trkpt>
      <trkpt lat="45.81395" lon="2.97623">
        <ele>993.7</ele>
        <time>2021-08-25T07:10:32Z</time>
      </trkpt>
      <trkpt lat="45.81397" lon="2.97621">
        <ele>993.6</ele>
        <time>2021-08-25T07:10:33Z</time>
      </trkpt>
      <trkpt lat="45.814" lon="2.97618">
        <ele>993.5</ele>
        <time>2021-08-25T07:10:36Z</time>
      </trkpt>
      <trkpt lat="45.81404" lon="2.97618">
        <ele>993.3</ele>
        <time>2021-08-25T07:10:39Z</time>
      </trkpt>
      <trkpt lat="45.81412" lon="2.97613">
        <ele>992.1</ele>
        <time>2021-08-25T07:10:46Z</time>
      </trkpt>
      <trkpt lat="45.81413" lon="2.97611">
        <ele>991.9</ele>
        <time>2021-08-25T07:10:47Z</time>
      </trkpt>
      <trkpt lat="45.81431" lon="2.97604">
        <ele>990</ele>
        <time>2021-08-25T07:11:05Z</time>
      </trkpt>
      <trkpt lat="45.81432" lon="2.97603">
        <ele>989.8</ele>
        <time>2021-08-25T07:11:06Z</time>
      </trkpt>
      <trkpt lat="45.8145" lon="2.97605">
        <ele>988.2</ele>
        <time>2021-08-25T07:11:18Z</time>
      </trkpt>
      <trkpt lat="45.81451" lon="2.97604">
        <ele>988.1</ele>
        <time>2021-08-25T07:11:19Z</time>
      </trkpt>
      <trkpt lat="45.81458" lon="2.97604">
        <ele>987.5</ele>
        <time>2021-08-25T07:11:23Z</time>
      </trkpt>
      <trkpt lat="45.81466" lon="2.97601">
        <ele>986.2</ele>
        <time>2021-08-25T07:11:28Z</time>
      </trkpt>
      <trkpt lat="45.81467" lon="2.97601">
        <ele>985.9</ele>
        <time>2021-08-25T07:11:29Z</time>
      </trkpt>
      <trkpt lat="45.81477" lon="2.97599">
        <ele>984.4</ele>
        <time>2021-08-25T07:11:38Z</time>
      </trkpt>
      <trkpt lat="45.81483" lon="2.976">
        <ele>983.3</ele>
        <time>2021-08-25T07:11:42Z</time>
      </trkpt>
      <trkpt lat="45.81485" lon="2.97599">
        <ele>983.1</ele>
        <time>2021-08-25T07:11:43Z</time>
      </trkpt>
      <trkpt lat="45.81495" lon="2.97601">
        <ele>981.7</ele>
        <time>2021-08-25T07:11:49Z</time>
      </trkpt>
      <trkpt lat="45.815" lon="2.97601">
        <ele>981.1</ele>
        <time>2021-08-25T07:11:52Z</time>
      </trkpt>
      <trkpt lat="45.81501" lon="2.976">
        <ele>980.9</ele>
        <time>2021-08-25T07:11:53Z</time>
      </trkpt>
      <trkpt lat="45.81511" lon="2.97602">
        <ele>979.8</ele>
        <time>2021-08-25T07:11:58Z</time>
      </trkpt>
      <trkpt lat="45.81515" lon="2.97603">
        <ele>979.2</ele>
        <time>2021-08-25T07:12:01Z</time>
      </trkpt>
      <trkpt lat="45.81518" lon="2.97603">
        <ele>978.7</ele>
        <time>2021-08-25T07:12:03Z</time>
      </trkpt>
      <trkpt lat="45.81519" lon="2.97603">
        <ele>978.5</ele>
        <time>2021-08-25T07:12:04Z</time>
      </trkpt>
      <trkpt lat="45.81524" lon="2.97606">
        <ele>977.5</ele>
        <time>2021-08-25T07:12:08Z</time>
      </trkpt>
      <trkpt lat="45.81532" lon="2.97613">
        <ele>976.1</ele>
        <time>2021-08-25T07:12:15Z</time>
      </trkpt>
      <trkpt lat="45.81534" lon="2.97615">
        <ele>975.8</ele>
        <time>2021-08-25T07:12:16Z</time>
      </trkpt>
      <trkpt lat="45.81546" lon="2.97624">
        <ele>973.2</ele>
        <time>2021-08-25T07:12:25Z</time>
      </trkpt>
      <trkpt lat="45.81548" lon="2.97624">
        <ele>973</ele>
        <time>2021-08-25T07:12:26Z</time>
      </trkpt>
      <trkpt lat="45.81551" lon="2.97626">
        <ele>971.8</ele>
        <time>2021-08-25T07:12:29Z</time>
      </trkpt>
      <trkpt lat="45.81554" lon="2.97625">
        <ele>970.5</ele>
        <time>2021-08-25T07:12:32Z</time>
      </trkpt>
      <trkpt lat="45.81562" lon="2.97628">
        <ele>969.1</ele>
        <time>2021-08-25T07:12:37Z</time>
      </trkpt>
      <trkpt lat="45.81564" lon="2.97628">
        <ele>968.8</ele>
        <time>2021-08-25T07:12:38Z</time>
      </trkpt>
      <trkpt lat="45.81571" lon="2.97628">
        <ele>966</ele>
        <time>2021-08-25T07:12:44Z</time>
      </trkpt>
      <trkpt lat="45.81576" lon="2.97631">
        <ele>965.3</ele>
        <time>2021-08-25T07:12:47Z</time>
      </trkpt>
      <trkpt lat="45.8158" lon="2.97632">
        <ele>965.6</ele>
        <time>2021-08-25T07:12:49Z</time>
      </trkpt>
      <trkpt lat="45.81582" lon="2.97633">
        <ele>965.5</ele>
        <time>2021-08-25T07:12:50Z</time>
      </trkpt>
      <trkpt lat="45.81586" lon="2.97634">
        <ele>965.4</ele>
        <time>2021-08-25T07:12:52Z</time>
      </trkpt>
      <trkpt lat="45.81593" lon="2.97634">
        <ele>964.7</ele>
        <time>2021-08-25T07:12:59Z</time>
      </trkpt>
      <trkpt lat="45.81596" lon="2.97631">
        <ele>965.6</ele>
        <time>2021-08-25T07:13:01Z</time>
      </trkpt>
      <trkpt lat="45.81598" lon="2.9763">
        <ele>965.9</ele>
        <time>2021-08-25T07:13:02Z</time>
      </trkpt>
      <trkpt lat="45.816" lon="2.9763">
        <ele>966.1</ele>
        <time>2021-08-25T07:13:03Z</time>
      </trkpt>
      <trkpt lat="45.81609" lon="2.97637">
        <ele>967</ele>
        <time>2021-08-25T07:13:08Z</time>
      </trkpt>
      <trkpt lat="45.81615" lon="2.97643">
        <ele>967.1</ele>
        <time>2021-08-25T07:13:12Z</time>
      </trkpt>
      <trkpt lat="45.81616" lon="2.97644">
        <ele>967.1</ele>
        <time>2021-08-25T07:13:13Z</time>
      </trkpt>
      <trkpt lat="45.81622" lon="2.97653">
        <ele>965.9</ele>
        <time>2021-08-25T07:13:19Z</time>
      </trkpt>
      <trkpt lat="45.81626" lon="2.97659">
        <ele>965.1</ele>
        <time>2021-08-25T07:13:24Z</time>
      </trkpt>
      <trkpt lat="45.81629" lon="2.97662">
        <ele>964.7</ele>
        <time>2021-08-25T07:13:27Z</time>
      </trkpt>
      <trkpt lat="45.8163" lon="2.97663">
        <ele>964.8</ele>
        <time>2021-08-25T07:13:28Z</time>
      </trkpt>
      <trkpt lat="45.81633" lon="2.97666">
        <ele>964.8</ele>
        <time>2021-08-25T07:13:31Z</time>
      </trkpt>
      <trkpt lat="45.8164" lon="2.9768">
        <ele>963.4</ele>
        <time>2021-08-25T07:13:41Z</time>
      </trkpt>
      <trkpt lat="45.81643" lon="2.97682">
        <ele>963.6</ele>
        <time>2021-08-25T07:13:42Z</time>
      </trkpt>
      <trkpt lat="45.81648" lon="2.97684">
        <ele>963.6</ele>
        <time>2021-08-25T07:13:44Z</time>
      </trkpt>
      <trkpt lat="45.81653" lon="2.97688">
        <ele>964</ele>
        <time>2021-08-25T07:13:47Z</time>
      </trkpt>
      <trkpt lat="45.81659" lon="2.97694">
        <ele>963.7</ele>
        <time>2021-08-25T07:13:53Z</time>
      </trkpt>
      <trkpt lat="45.8166" lon="2.97696">
        <ele>963.7</ele>
        <time>2021-08-25T07:13:54Z</time>
      </trkpt>
      <trkpt lat="45.81661" lon="2.97697">
        <ele>963.7</ele>
        <time>2021-08-25T07:13:55Z</time>
      </trkpt>
      <trkpt lat="45.81662" lon="2.97704">
        <ele>963.7</ele>
        <time>2021-08-25T07:13:59Z</time>
      </trkpt>
      <trkpt lat="45.81667" lon="2.97721">
        <ele>963.1</ele>
        <time>2021-08-25T07:14:11Z</time>
      </trkpt>
      <trkpt lat="45.81668" lon="2.97722">
        <ele>963</ele>
        <time>2021-08-25T07:14:12Z</time>
      </trkpt>
      <trkpt lat="45.81678" lon="2.97739">
        <ele>962.1</ele>
        <time>2021-08-25T07:14:23Z</time>
      </trkpt>
      <trkpt lat="45.81679" lon="2.97741">
        <ele>962</ele>
        <time>2021-08-25T07:14:24Z</time>
      </trkpt>
      <trkpt lat="45.81691" lon="2.97757">
        <ele>960.4</ele>
        <time>2021-08-25T07:14:35Z</time>
      </trkpt>
      <trkpt lat="45.81691" lon="2.97758">
        <ele>960.2</ele>
        <time>2021-08-25T07:14:36Z</time>
      </trkpt>
      <trkpt lat="45.81695" lon="2.97764">
        <ele>959.4</ele>
        <time>2021-08-25T07:14:41Z</time>
      </trkpt>
      <trkpt lat="45.81704" lon="2.97772">
        <ele>958.2</ele>
        <time>2021-08-25T07:14:48Z</time>
      </trkpt>
      <trkpt lat="45.81705" lon="2.97773">
        <ele>958</ele>
        <time>2021-08-25T07:14:49Z</time>
      </trkpt>
      <trkpt lat="45.81711" lon="2.97784">
        <ele>956.8</ele>
        <time>2021-08-25T07:14:55Z</time>
      </trkpt>
      <trkpt lat="45.81718" lon="2.97788">
        <ele>956.5</ele>
        <time>2021-08-25T07:14:58Z</time>
      </trkpt>
      <trkpt lat="45.81719" lon="2.9779">
        <ele>956.3</ele>
        <time>2021-08-25T07:14:59Z</time>
      </trkpt>
      <trkpt lat="45.81723" lon="2.97792">
        <ele>955.8</ele>
        <time>2021-08-25T07:15:01Z</time>
      </trkpt>
      <trkpt lat="45.81736" lon="2.97796">
        <ele>954.7</ele>
        <time>2021-08-25T07:15:08Z</time>
      </trkpt>
      <trkpt lat="45.81737" lon="2.97796">
        <ele>954.6</ele>
        <time>2021-08-25T07:15:09Z</time>
      </trkpt>
      <trkpt lat="45.81744" lon="2.97798">
        <ele>954.5</ele>
        <time>2021-08-25T07:15:13Z</time>
      </trkpt>
      <trkpt lat="45.81749" lon="2.97802">
        <ele>954.6</ele>
        <time>2021-08-25T07:15:16Z</time>
      </trkpt>
      <trkpt lat="45.81752" lon="2.97803">
        <ele>954.6</ele>
        <time>2021-08-25T07:15:18Z</time>
      </trkpt>
      <trkpt lat="45.81754" lon="2.97803">
        <ele>954.8</ele>
        <time>2021-08-25T07:15:19Z</time>
      </trkpt>
      <trkpt lat="45.81771" lon="2.97808">
        <ele>957.4</ele>
        <time>2021-08-25T07:15:41Z</time>
      </trkpt>
      <trkpt lat="45.81772" lon="2.97809">
        <ele>957.7</ele>
        <time>2021-08-25T07:15:43Z</time>
      </trkpt>
      <trkpt lat="45.81773" lon="2.97813">
        <ele>958</ele>
        <time>2021-08-25T07:15:46Z</time>
      </trkpt>
      <trkpt lat="45.81773" lon="2.97814">
        <ele>958</ele>
        <time>2021-08-25T07:15:47Z</time>
      </trkpt>
      <trkpt lat="45.81775" lon="2.97825">
        <ele>958.5</ele>
        <time>2021-08-25T07:15:54Z</time>
      </trkpt>
      <trkpt lat="45.81774" lon="2.9784">
        <ele>959.2</ele>
        <time>2021-08-25T07:16:03Z</time>
      </trkpt>
      <trkpt lat="45.81774" lon="2.97842">
        <ele>959.3</ele>
        <time>2021-08-25T07:16:04Z</time>
      </trkpt>
      <trkpt lat="45.81774" lon="2.97847">
        <ele>959.7</ele>
        <time>2021-08-25T07:16:07Z</time>
      </trkpt>
      <trkpt lat="45.81777" lon="2.97859">
        <ele>960.5</ele>
        <time>2021-08-25T07:16:15Z</time>
      </trkpt>
      <trkpt lat="45.81778" lon="2.97867">
        <ele>961.2</ele>
        <time>2021-08-25T07:16:20Z</time>
      </trkpt>
      <trkpt lat="45.81778" lon="2.97868">
        <ele>961.3</ele>
        <time>2021-08-25T07:16:21Z</time>
      </trkpt>
      <trkpt lat="45.8178" lon="2.97877">
        <ele>961.7</ele>
        <time>2021-08-25T07:16:26Z</time>
      </trkpt>
      <trkpt lat="45.81779" lon="2.97893">
        <ele>962</ele>
        <time>2021-08-25T07:16:33Z</time>
      </trkpt>
      <trkpt lat="45.81779" lon="2.97894">
        <ele>962.1</ele>
        <time>2021-08-25T07:16:34Z</time>
      </trkpt>
      <trkpt lat="45.8178" lon="2.97899">
        <ele>962.4</ele>
        <time>2021-08-25T07:16:37Z</time>
      </trkpt>
      <trkpt lat="45.8178" lon="2.97914">
        <ele>963.6</ele>
        <time>2021-08-25T07:16:44Z</time>
      </trkpt>
      <trkpt lat="45.81781" lon="2.97916">
        <ele>963.8</ele>
        <time>2021-08-25T07:16:45Z</time>
      </trkpt>
      <trkpt lat="45.81783" lon="2.97922">
        <ele>964.4</ele>
        <time>2021-08-25T07:16:49Z</time>
      </trkpt>
      <trkpt lat="45.81785" lon="2.97936">
        <ele>965.5</ele>
        <time>2021-08-25T07:16:55Z</time>
      </trkpt>
      <trkpt lat="45.81786" lon="2.97938">
        <ele>965.7</ele>
        <time>2021-08-25T07:16:56Z</time>
      </trkpt>
      <trkpt lat="45.81789" lon="2.97942">
        <ele>966.1</ele>
        <time>2021-08-25T07:16:59Z</time>
      </trkpt>
      <trkpt lat="45.81793" lon="2.9796">
        <ele>966.9</ele>
        <time>2021-08-25T07:17:09Z</time>
      </trkpt>
      <trkpt lat="45.81793" lon="2.97961">
        <ele>967.1</ele>
        <time>2021-08-25T07:17:10Z</time>
      </trkpt>
      <trkpt lat="45.81796" lon="2.97969">
        <ele>968</ele>
        <time>2021-08-25T07:17:15Z</time>
      </trkpt>
      <trkpt lat="45.81797" lon="2.97976">
        <ele>968.6</ele>
        <time>2021-08-25T07:17:19Z</time>
      </trkpt>
      <trkpt lat="45.818" lon="2.97983">
        <ele>969.4</ele>
        <time>2021-08-25T07:17:24Z</time>
      </trkpt>
      <trkpt lat="45.81801" lon="2.97984">
        <ele>969.6</ele>
        <time>2021-08-25T07:17:25Z</time>
      </trkpt>
      <trkpt lat="45.81806" lon="2.97991">
        <ele>970.5</ele>
        <time>2021-08-25T07:17:30Z</time>
      </trkpt>
      <trkpt lat="45.81809" lon="2.98005">
        <ele>972</ele>
        <time>2021-08-25T07:17:37Z</time>
      </trkpt>
      <trkpt lat="45.81809" lon="2.98007">
        <ele>972.1</ele>
        <time>2021-08-25T07:17:38Z</time>
      </trkpt>
      <trkpt lat="45.8181" lon="2.98011">
        <ele>972.3</ele>
        <time>2021-08-25T07:17:41Z</time>
      </trkpt>
      <trkpt lat="45.81812" lon="2.98014">
        <ele>972.5</ele>
        <time>2021-08-25T07:17:43Z</time>
      </trkpt>
      <trkpt lat="45.81814" lon="2.98019">
        <ele>972.7</ele>
        <time>2021-08-25T07:17:46Z</time>
      </trkpt>
      <trkpt lat="45.81815" lon="2.98032">
        <ele>973.4</ele>
        <time>2021-08-25T07:17:53Z</time>
      </trkpt>
      <trkpt lat="45.81815" lon="2.98034">
        <ele>973.5</ele>
        <time>2021-08-25T07:17:54Z</time>
      </trkpt>
      <trkpt lat="45.81815" lon="2.98042">
        <ele>973.7</ele>
        <time>2021-08-25T07:17:58Z</time>
      </trkpt>
      <trkpt lat="45.81819" lon="2.98056">
        <ele>974</ele>
        <time>2021-08-25T07:18:06Z</time>
      </trkpt>
      <trkpt lat="45.8182" lon="2.98057">
        <ele>974.1</ele>
        <time>2021-08-25T07:18:07Z</time>
      </trkpt>
      <trkpt lat="45.81821" lon="2.98063">
        <ele>974.4</ele>
        <time>2021-08-25T07:18:10Z</time>
      </trkpt>
      <trkpt lat="45.81823" lon="2.98068">
        <ele>974.8</ele>
        <time>2021-08-25T07:18:14Z</time>
      </trkpt>
      <trkpt lat="45.81824" lon="2.98075">
        <ele>975.1</ele>
        <time>2021-08-25T07:18:17Z</time>
      </trkpt>
      <trkpt lat="45.81825" lon="2.98079">
        <ele>975.4</ele>
        <time>2021-08-25T07:18:20Z</time>
      </trkpt>
      <trkpt lat="45.81826" lon="2.98081">
        <ele>975.4</ele>
        <time>2021-08-25T07:18:21Z</time>
      </trkpt>
      <trkpt lat="45.81828" lon="2.98095">
        <ele>976</ele>
        <time>2021-08-25T07:18:27Z</time>
      </trkpt>
      <trkpt lat="45.81827" lon="2.98104">
        <ele>976.6</ele>
        <time>2021-08-25T07:18:31Z</time>
      </trkpt>
      <trkpt lat="45.81827" lon="2.98106">
        <ele>976.7</ele>
        <time>2021-08-25T07:18:32Z</time>
      </trkpt>
      <trkpt lat="45.81827" lon="2.98111">
        <ele>976.9</ele>
        <time>2021-08-25T07:18:34Z</time>
      </trkpt>
      <trkpt lat="45.81828" lon="2.98115">
        <ele>977.1</ele>
        <time>2021-08-25T07:18:36Z</time>
      </trkpt>
      <trkpt lat="45.81827" lon="2.9813">
        <ele>977.2</ele>
        <time>2021-08-25T07:18:41Z</time>
      </trkpt>
      <trkpt lat="45.81827" lon="2.98132">
        <ele>977.3</ele>
        <time>2021-08-25T07:18:42Z</time>
      </trkpt>
      <trkpt lat="45.81825" lon="2.98154">
        <ele>978.4</ele>
        <time>2021-08-25T07:18:52Z</time>
      </trkpt>
      <trkpt lat="45.81826" lon="2.98156">
        <ele>978.7</ele>
        <time>2021-08-25T07:18:53Z</time>
      </trkpt>
      <trkpt lat="45.81827" lon="2.98161">
        <ele>979.2</ele>
        <time>2021-08-25T07:18:56Z</time>
      </trkpt>
      <trkpt lat="45.81828" lon="2.98165">
        <ele>979.3</ele>
        <time>2021-08-25T07:18:58Z</time>
      </trkpt>
      <trkpt lat="45.81825" lon="2.98179">
        <ele>980.3</ele>
        <time>2021-08-25T07:19:05Z</time>
      </trkpt>
      <trkpt lat="45.81824" lon="2.98182">
        <ele>980.5</ele>
        <time>2021-08-25T07:19:06Z</time>
      </trkpt>
      <trkpt lat="45.81819" lon="2.98205">
        <ele>980.8</ele>
        <time>2021-08-25T07:19:16Z</time>
      </trkpt>
      <trkpt lat="45.8182" lon="2.98207">
        <ele>980.9</ele>
        <time>2021-08-25T07:19:17Z</time>
      </trkpt>
      <trkpt lat="45.81819" lon="2.98208">
        <ele>981.1</ele>
        <time>2021-08-25T07:19:18Z</time>
      </trkpt>
      <trkpt lat="45.81815" lon="2.98222">
        <ele>979.9</ele>
        <time>2021-08-25T07:19:25Z</time>
      </trkpt>
      <trkpt lat="45.81814" lon="2.98229">
        <ele>980.1</ele>
        <time>2021-08-25T07:19:29Z</time>
      </trkpt>
      <trkpt lat="45.81814" lon="2.98231">
        <ele>980.1</ele>
        <time>2021-08-25T07:19:30Z</time>
      </trkpt>
      <trkpt lat="45.8181" lon="2.98245">
        <ele>980.6</ele>
        <time>2021-08-25T07:19:52Z</time>
      </trkpt>
      <trkpt lat="45.81811" lon="2.98248">
        <ele>980.6</ele>
        <time>2021-08-25T07:19:54Z</time>
      </trkpt>
      <trkpt lat="45.81808" lon="2.98254">
        <ele>980.7</ele>
        <time>2021-08-25T07:19:59Z</time>
      </trkpt>
      <trkpt lat="45.81807" lon="2.98255">
        <ele>980.7</ele>
        <time>2021-08-25T07:20:00Z</time>
      </trkpt>
      <trkpt lat="45.81797" lon="2.98272">
        <ele>982.9</ele>
        <time>2021-08-25T07:20:13Z</time>
      </trkpt>
      <trkpt lat="45.81796" lon="2.98273">
        <ele>983.1</ele>
        <time>2021-08-25T07:20:14Z</time>
      </trkpt>
      <trkpt lat="45.81787" lon="2.98281">
        <ele>984.3</ele>
        <time>2021-08-25T07:20:20Z</time>
      </trkpt>
      <trkpt lat="45.81783" lon="2.98287">
        <ele>984.6</ele>
        <time>2021-08-25T07:20:25Z</time>
      </trkpt>
      <trkpt lat="45.81782" lon="2.98288">
        <ele>984.8</ele>
        <time>2021-08-25T07:20:26Z</time>
      </trkpt>
      <trkpt lat="45.81781" lon="2.98288">
        <ele>984.9</ele>
        <time>2021-08-25T07:20:27Z</time>
      </trkpt>
      <trkpt lat="45.81778" lon="2.98291">
        <ele>985.6</ele>
        <time>2021-08-25T07:20:32Z</time>
      </trkpt>
      <trkpt lat="45.81776" lon="2.98297">
        <ele>986.7</ele>
        <time>2021-08-25T07:20:36Z</time>
      </trkpt>
      <trkpt lat="45.81773" lon="2.98308">
        <ele>988.2</ele>
        <time>2021-08-25T07:20:43Z</time>
      </trkpt>
      <trkpt lat="45.81772" lon="2.9831">
        <ele>988.5</ele>
        <time>2021-08-25T07:20:44Z</time>
      </trkpt>
      <trkpt lat="45.81767" lon="2.98331">
        <ele>991.9</ele>
        <time>2021-08-25T07:20:57Z</time>
      </trkpt>
      <trkpt lat="45.81766" lon="2.98333">
        <ele>992.1</ele>
        <time>2021-08-25T07:20:58Z</time>
      </trkpt>
      <trkpt lat="45.81764" lon="2.98341">
        <ele>993.2</ele>
        <time>2021-08-25T07:21:03Z</time>
      </trkpt>
      <trkpt lat="45.81757" lon="2.9835">
        <ele>993.5</ele>
        <time>2021-08-25T07:21:09Z</time>
      </trkpt>
      <trkpt lat="45.81757" lon="2.98351">
        <ele>993.9</ele>
        <time>2021-08-25T07:21:10Z</time>
      </trkpt>
      <trkpt lat="45.81754" lon="2.98365">
        <ele>994.3</ele>
        <time>2021-08-25T07:21:19Z</time>
      </trkpt>
      <trkpt lat="45.8175" lon="2.98375">
        <ele>995.5</ele>
        <time>2021-08-25T07:21:24Z</time>
      </trkpt>
      <trkpt lat="45.8175" lon="2.98377">
        <ele>995.8</ele>
        <time>2021-08-25T07:21:25Z</time>
      </trkpt>
      <trkpt lat="45.81742" lon="2.98399">
        <ele>996.9</ele>
        <time>2021-08-25T07:21:34Z</time>
      </trkpt>
      <trkpt lat="45.81741" lon="2.98401">
        <ele>997.1</ele>
        <time>2021-08-25T07:21:35Z</time>
      </trkpt>
      <trkpt lat="45.81734" lon="2.98422">
        <ele>998.9</ele>
        <time>2021-08-25T07:21:44Z</time>
      </trkpt>
      <trkpt lat="45.81734" lon="2.98424">
        <ele>998.9</ele>
        <time>2021-08-25T07:21:45Z</time>
      </trkpt>
      <trkpt lat="45.81721" lon="2.9844">
        <ele>999.6</ele>
        <time>2021-08-25T07:21:58Z</time>
      </trkpt>
      <trkpt lat="45.81719" lon="2.98441">
        <ele>999.8</ele>
        <time>2021-08-25T07:21:59Z</time>
      </trkpt>
      <trkpt lat="45.81705" lon="2.98453">
        <ele>1000</ele>
        <time>2021-08-25T07:22:11Z</time>
      </trkpt>
      <trkpt lat="45.81704" lon="2.98454">
        <ele>999.8</ele>
        <time>2021-08-25T07:22:12Z</time>
      </trkpt>
      <trkpt lat="45.81696" lon="2.98461">
        <ele>999.6</ele>
        <time>2021-08-25T07:22:18Z</time>
      </trkpt>
      <trkpt lat="45.81692" lon="2.98463">
        <ele>1000.2</ele>
        <time>2021-08-25T07:22:22Z</time>
      </trkpt>
      <trkpt lat="45.81691" lon="2.98464">
        <ele>1000.4</ele>
        <time>2021-08-25T07:22:23Z</time>
      </trkpt>
      <trkpt lat="45.81686" lon="2.98472">
        <ele>1000.7</ele>
        <time>2021-08-25T07:22:27Z</time>
      </trkpt>
      <trkpt lat="45.81679" lon="2.98479">
        <ele>1000.8</ele>
        <time>2021-08-25T07:22:32Z</time>
      </trkpt>
      <trkpt lat="45.81677" lon="2.98481">
        <ele>1000.8</ele>
        <time>2021-08-25T07:22:33Z</time>
      </trkpt>
      <trkpt lat="45.81672" lon="2.98485">
        <ele>1000.9</ele>
        <time>2021-08-25T07:22:38Z</time>
      </trkpt>
      <trkpt lat="45.81666" lon="2.98495">
        <ele>1001.4</ele>
        <time>2021-08-25T07:22:45Z</time>
      </trkpt>
      <trkpt lat="45.81665" lon="2.98496">
        <ele>1001.4</ele>
        <time>2021-08-25T07:22:46Z</time>
      </trkpt>
      <trkpt lat="45.81652" lon="2.9851">
        <ele>1001.5</ele>
        <time>2021-08-25T07:23:00Z</time>
      </trkpt>
      <trkpt lat="45.81651" lon="2.98512">
        <ele>1001.5</ele>
        <time>2021-08-25T07:23:01Z</time>
      </trkpt>
      <trkpt lat="45.81649" lon="2.98526">
        <ele>1001.2</ele>
        <time>2021-08-25T07:23:09Z</time>
      </trkpt>
      <trkpt lat="45.81652" lon="2.98523">
        <ele>1000.6</ele>
        <time>2021-08-25T07:23:23Z</time>
      </trkpt>
      <trkpt lat="45.81652" lon="2.98523">
        <ele>1000.6</ele>
        <time>2021-08-25T07:23:24Z</time>
      </trkpt>
      <trkpt lat="45.81657" lon="2.98512">
        <ele>1000.2</ele>
        <time>2021-08-25T07:23:33Z</time>
      </trkpt>
      <trkpt lat="45.81657" lon="2.98508">
        <ele>1000.3</ele>
        <time>2021-08-25T07:23:36Z</time>
      </trkpt>
      <trkpt lat="45.81661" lon="2.98503">
        <ele>1000.5</ele>
        <time>2021-08-25T07:23:41Z</time>
      </trkpt>
      <trkpt lat="45.81661" lon="2.98502">
        <ele>1000.5</ele>
        <time>2021-08-25T07:23:42Z</time>
      </trkpt>
      <trkpt lat="45.81664" lon="2.98497">
        <ele>1000.5</ele>
        <time>2021-08-25T07:23:45Z</time>
      </trkpt>
      <trkpt lat="45.81675" lon="2.98486">
        <ele>1001.2</ele>
        <time>2021-08-25T07:23:51Z</time>
      </trkpt>
      <trkpt lat="45.81675" lon="2.98486">
        <ele>1001.3</ele>
        <time>2021-08-25T07:23:52Z</time>
      </trkpt>
      <trkpt lat="45.81689" lon="2.98476">
        <ele>1001.4</ele>
        <time>2021-08-25T07:24:01Z</time>
      </trkpt>
      <trkpt lat="45.81691" lon="2.98474">
        <ele>1001.5</ele>
        <time>2021-08-25T07:24:02Z</time>
      </trkpt>
      <trkpt lat="45.81697" lon="2.98468">
        <ele>1001.4</ele>
        <time>2021-08-25T07:24:06Z</time>
      </trkpt>
      <trkpt lat="45.81701" lon="2.9846">
        <ele>1001</ele>
        <time>2021-08-25T07:24:12Z</time>
      </trkpt>
      <trkpt lat="45.81703" lon="2.98457">
        <ele>1000.6</ele>
        <time>2021-08-25T07:24:15Z</time>
      </trkpt>
      <trkpt lat="45.81704" lon="2.98456">
        <ele>1000.5</ele>
        <time>2021-08-25T07:24:16Z</time>
      </trkpt>
      <trkpt lat="45.81712" lon="2.98444">
        <ele>999.3</ele>
        <time>2021-08-25T07:24:23Z</time>
      </trkpt>
      <trkpt lat="45.81715" lon="2.98441">
        <ele>999.2</ele>
        <time>2021-08-25T07:24:25Z</time>
      </trkpt>
      <trkpt lat="45.81718" lon="2.98438">
        <ele>999.3</ele>
        <time>2021-08-25T07:24:26Z</time>
      </trkpt>
      <trkpt lat="45.81719" lon="2.98437">
        <ele>999.5</ele>
        <time>2021-08-25T07:24:27Z</time>
      </trkpt>
      <trkpt lat="45.81722" lon="2.9843">
        <ele>999.3</ele>
        <time>2021-08-25T07:24:30Z</time>
      </trkpt>
      <trkpt lat="45.8173" lon="2.98421">
        <ele>999.1</ele>
        <time>2021-08-25T07:24:35Z</time>
      </trkpt>
      <trkpt lat="45.81731" lon="2.98419">
        <ele>999.1</ele>
        <time>2021-08-25T07:24:36Z</time>
      </trkpt>
      <trkpt lat="45.81736" lon="2.98411">
        <ele>999</ele>
        <time>2021-08-25T07:24:41Z</time>
      </trkpt>
      <trkpt lat="45.8174" lon="2.984">
        <ele>999.4</ele>
        <time>2021-08-25T07:24:46Z</time>
      </trkpt>
      <trkpt lat="45.81741" lon="2.98398">
        <ele>999.3</ele>
        <time>2021-08-25T07:24:47Z</time>
      </trkpt>
      <trkpt lat="45.81744" lon="2.98392">
        <ele>999.6</ele>
        <time>2021-08-25T07:24:50Z</time>
      </trkpt>
      <trkpt lat="45.81752" lon="2.98383">
        <ele>999.4</ele>
        <time>2021-08-25T07:24:57Z</time>
      </trkpt>
      <trkpt lat="45.81753" lon="2.98381">
        <ele>999.1</ele>
        <time>2021-08-25T07:24:58Z</time>
      </trkpt>
      <trkpt lat="45.81753" lon="2.98379">
        <ele>998.8</ele>
        <time>2021-08-25T07:24:59Z</time>
      </trkpt>
      <trkpt lat="45.81755" lon="2.98373">
        <ele>998.5</ele>
        <time>2021-08-25T07:25:02Z</time>
      </trkpt>
      <trkpt lat="45.81758" lon="2.9836">
        <ele>998</ele>
        <time>2021-08-25T07:25:08Z</time>
      </trkpt>
      <trkpt lat="45.81759" lon="2.98359">
        <ele>997.8</ele>
        <time>2021-08-25T07:25:09Z</time>
      </trkpt>
      <trkpt lat="45.81767" lon="2.98344">
        <ele>993.4</ele>
        <time>2021-08-25T07:25:20Z</time>
      </trkpt>
      <trkpt lat="45.81771" lon="2.98339">
        <ele>991.4</ele>
        <time>2021-08-25T07:25:24Z</time>
      </trkpt>
      <trkpt lat="45.81773" lon="2.98337">
        <ele>991</ele>
        <time>2021-08-25T07:25:25Z</time>
      </trkpt>
      <trkpt lat="45.81778" lon="2.98335">
        <ele>989.4</ele>
        <time>2021-08-25T07:25:28Z</time>
      </trkpt>
      <trkpt lat="45.81782" lon="2.98334">
        <ele>988.1</ele>
        <time>2021-08-25T07:25:31Z</time>
      </trkpt>
      <trkpt lat="45.81786" lon="2.98329">
        <ele>987.6</ele>
        <time>2021-08-25T07:25:34Z</time>
      </trkpt>
      <trkpt lat="45.81788" lon="2.98329">
        <ele>987.2</ele>
        <time>2021-08-25T07:25:35Z</time>
      </trkpt>
      <trkpt lat="45.81789" lon="2.98328">
        <ele>986.9</ele>
        <time>2021-08-25T07:25:36Z</time>
      </trkpt>
      <trkpt lat="45.81792" lon="2.98324">
        <ele>986.1</ele>
        <time>2021-08-25T07:25:39Z</time>
      </trkpt>
      <trkpt lat="45.818" lon="2.9832">
        <ele>983</ele>
        <time>2021-08-25T07:25:46Z</time>
      </trkpt>
      <trkpt lat="45.81804" lon="2.98316">
        <ele>981.3</ele>
        <time>2021-08-25T07:25:50Z</time>
      </trkpt>
      <trkpt lat="45.81805" lon="2.98316">
        <ele>980.9</ele>
        <time>2021-08-25T07:25:51Z</time>
      </trkpt>
      <trkpt lat="45.81807" lon="2.98314">
        <ele>979.6</ele>
        <time>2021-08-25T07:25:54Z</time>
      </trkpt>
      <trkpt lat="45.81817" lon="2.98303">
        <ele>975</ele>
        <time>2021-08-25T07:26:05Z</time>
      </trkpt>
      <trkpt lat="45.81818" lon="2.98302">
        <ele>974.5</ele>
        <time>2021-08-25T07:26:06Z</time>
      </trkpt>
      <trkpt lat="45.81821" lon="2.98299">
        <ele>973.2</ele>
        <time>2021-08-25T07:26:09Z</time>
      </trkpt>
      <trkpt lat="45.81827" lon="2.98284">
        <ele>969.5</ele>
        <time>2021-08-25T07:26:19Z</time>
      </trkpt>
      <trkpt lat="45.81828" lon="2.98282">
        <ele>969.1</ele>
        <time>2021-08-25T07:26:20Z</time>
      </trkpt>
      <trkpt lat="45.81832" lon="2.98261">
        <ele>965.8</ele>
        <time>2021-08-25T07:26:30Z</time>
      </trkpt>
      <trkpt lat="45.81833" lon="2.98259">
        <ele>965.6</ele>
        <time>2021-08-25T07:26:31Z</time>
      </trkpt>
      <trkpt lat="45.81833" lon="2.98256">
        <ele>965.3</ele>
        <time>2021-08-25T07:26:32Z</time>
      </trkpt>
      <trkpt lat="45.81836" lon="2.9825">
        <ele>964.7</ele>
        <time>2021-08-25T07:26:35Z</time>
      </trkpt>
      <trkpt lat="45.81838" lon="2.98244">
        <ele>963.9</ele>
        <time>2021-08-25T07:26:38Z</time>
      </trkpt>
      <trkpt lat="45.81837" lon="2.98237">
        <ele>962.5</ele>
        <time>2021-08-25T07:26:42Z</time>
      </trkpt>
      <trkpt lat="45.81837" lon="2.98235">
        <ele>962.1</ele>
        <time>2021-08-25T07:26:43Z</time>
      </trkpt>
      <trkpt lat="45.81839" lon="2.98215">
        <ele>959.6</ele>
        <time>2021-08-25T07:26:52Z</time>
      </trkpt>
      <trkpt lat="45.81841" lon="2.98211">
        <ele>959.4</ele>
        <time>2021-08-25T07:26:53Z</time>
      </trkpt>
      <trkpt lat="45.81842" lon="2.982">
        <ele>957.4</ele>
        <time>2021-08-25T07:26:59Z</time>
      </trkpt>
      <trkpt lat="45.81841" lon="2.98192">
        <ele>956.1</ele>
        <time>2021-08-25T07:27:03Z</time>
      </trkpt>
      <trkpt lat="45.81841" lon="2.98189">
        <ele>955.9</ele>
        <time>2021-08-25T07:27:04Z</time>
      </trkpt>
      <trkpt lat="45.81843" lon="2.98182">
        <ele>955.2</ele>
        <time>2021-08-25T07:27:07Z</time>
      </trkpt>
      <trkpt lat="45.81841" lon="2.98166">
        <ele>953.7</ele>
        <time>2021-08-25T07:27:13Z</time>
      </trkpt>
      <trkpt lat="45.81841" lon="2.98164">
        <ele>953.5</ele>
        <time>2021-08-25T07:27:14Z</time>
      </trkpt>
      <trkpt lat="45.8184" lon="2.98147">
        <ele>952.1</ele>
        <time>2021-08-25T07:27:21Z</time>
      </trkpt>
      <trkpt lat="45.81838" lon="2.98143">
        <ele>951.7</ele>
        <time>2021-08-25T07:27:23Z</time>
      </trkpt>
      <trkpt lat="45.81839" lon="2.98142">
        <ele>951.5</ele>
        <time>2021-08-25T07:27:24Z</time>
      </trkpt>
      <trkpt lat="45.81836" lon="2.98133">
        <ele>950.6</ele>
        <time>2021-08-25T07:27:28Z</time>
      </trkpt>
      <trkpt lat="45.81835" lon="2.98124">
        <ele>949.5</ele>
        <time>2021-08-25T07:27:33Z</time>
      </trkpt>
      <trkpt lat="45.81834" lon="2.98118">
        <ele>948.7</ele>
        <time>2021-08-25T07:27:36Z</time>
      </trkpt>
      <trkpt lat="45.81834" lon="2.98116">
        <ele>948.5</ele>
        <time>2021-08-25T07:27:37Z</time>
      </trkpt>
      <trkpt lat="45.81834" lon="2.98111">
        <ele>947.6</ele>
        <time>2021-08-25T07:27:40Z</time>
      </trkpt>
      <trkpt lat="45.81832" lon="2.98094">
        <ele>946.4</ele>
        <time>2021-08-25T07:27:47Z</time>
      </trkpt>
      <trkpt lat="45.81832" lon="2.98093">
        <ele>946.1</ele>
        <time>2021-08-25T07:27:48Z</time>
      </trkpt>
      <trkpt lat="45.81831" lon="2.98087">
        <ele>945.7</ele>
        <time>2021-08-25T07:27:50Z</time>
      </trkpt>
      <trkpt lat="45.81832" lon="2.98078">
        <ele>945.6</ele>
        <time>2021-08-25T07:27:53Z</time>
      </trkpt>
      <trkpt lat="45.8183" lon="2.98066">
        <ele>944.9</ele>
        <time>2021-08-25T07:27:57Z</time>
      </trkpt>
      <trkpt lat="45.8183" lon="2.98063">
        <ele>944.7</ele>
        <time>2021-08-25T07:27:58Z</time>
      </trkpt>
      <trkpt lat="45.81825" lon="2.98047">
        <ele>943.5</ele>
        <time>2021-08-25T07:28:05Z</time>
      </trkpt>
      <trkpt lat="45.81823" lon="2.98044">
        <ele>943</ele>
        <time>2021-08-25T07:28:07Z</time>
      </trkpt>
      <trkpt lat="45.81822" lon="2.98042">
        <ele>942.7</ele>
        <time>2021-08-25T07:28:08Z</time>
      </trkpt>
      <trkpt lat="45.81817" lon="2.98032">
        <ele>941.2</ele>
        <time>2021-08-25T07:28:14Z</time>
      </trkpt>
      <trkpt lat="45.81815" lon="2.9803">
        <ele>940.6</ele>
        <time>2021-08-25T07:28:16Z</time>
      </trkpt>
      <trkpt lat="45.81813" lon="2.98026">
        <ele>939.7</ele>
        <time>2021-08-25T07:28:18Z</time>
      </trkpt>
      <trkpt lat="45.81812" lon="2.98025">
        <ele>939.5</ele>
        <time>2021-08-25T07:28:19Z</time>
      </trkpt>
      <trkpt lat="45.81811" lon="2.98022">
        <ele>939</ele>
        <time>2021-08-25T07:28:20Z</time>
      </trkpt>
      <trkpt lat="45.81805" lon="2.98003">
        <ele>937.3</ele>
        <time>2021-08-25T07:28:30Z</time>
      </trkpt>
      <trkpt lat="45.81804" lon="2.98">
        <ele>937</ele>
        <time>2021-08-25T07:28:31Z</time>
      </trkpt>
      <trkpt lat="45.81799" lon="2.97978">
        <ele>935.4</ele>
        <time>2021-08-25T07:28:40Z</time>
      </trkpt>
      <trkpt lat="45.81798" lon="2.97975">
        <ele>935.2</ele>
        <time>2021-08-25T07:28:41Z</time>
      </trkpt>
      <trkpt lat="45.81791" lon="2.97953">
        <ele>932.3</ele>
        <time>2021-08-25T07:28:50Z</time>
      </trkpt>
      <trkpt lat="45.8179" lon="2.97952">
        <ele>932</ele>
        <time>2021-08-25T07:28:51Z</time>
      </trkpt>
      <trkpt lat="45.81783" lon="2.97931">
        <ele>929.6</ele>
        <time>2021-08-25T07:29:03Z</time>
      </trkpt>
      <trkpt lat="45.81783" lon="2.9793">
        <ele>929.4</ele>
        <time>2021-08-25T07:29:04Z</time>
      </trkpt>
      <trkpt lat="45.81782" lon="2.97921">
        <ele>927.6</ele>
        <time>2021-08-25T07:29:10Z</time>
      </trkpt>
      <trkpt lat="45.81783" lon="2.97904">
        <ele>924.5</ele>
        <time>2021-08-25T07:29:20Z</time>
      </trkpt>
      <trkpt lat="45.81783" lon="2.97901">
        <ele>923.8</ele>
        <time>2021-08-25T07:29:21Z</time>
      </trkpt>
      <trkpt lat="45.81783" lon="2.97895">
        <ele>923.5</ele>
        <time>2021-08-25T07:29:23Z</time>
      </trkpt>
      <trkpt lat="45.81781" lon="2.97888">
        <ele>923.1</ele>
        <time>2021-08-25T07:29:25Z</time>
      </trkpt>
      <trkpt lat="45.81782" lon="2.97883">
        <ele>923.1</ele>
        <time>2021-08-25T07:29:27Z</time>
      </trkpt>
      <trkpt lat="45.81782" lon="2.97876">
        <ele>922.8</ele>
        <time>2021-08-25T07:29:32Z</time>
      </trkpt>
      <trkpt lat="45.81782" lon="2.97873">
        <ele>923.2</ele>
        <time>2021-08-25T07:29:33Z</time>
      </trkpt>
      <trkpt lat="45.81781" lon="2.97866">
        <ele>924.1</ele>
        <time>2021-08-25T07:29:38Z</time>
      </trkpt>
      <trkpt lat="45.81784" lon="2.97864">
        <ele>924.4</ele>
        <time>2021-08-25T07:29:41Z</time>
      </trkpt>
      <trkpt lat="45.8179" lon="2.97856">
        <ele>924.4</ele>
        <time>2021-08-25T07:29:47Z</time>
      </trkpt>
      <trkpt lat="45.81791" lon="2.97853">
        <ele>924.5</ele>
        <time>2021-08-25T07:29:48Z</time>
      </trkpt>
      <trkpt lat="45.81794" lon="2.97848">
        <ele>924.3</ele>
        <time>2021-08-25T07:29:51Z</time>
      </trkpt>
      <trkpt lat="45.81798" lon="2.97831">
        <ele>924.6</ele>
        <time>2021-08-25T07:29:57Z</time>
      </trkpt>
      <trkpt lat="45.81799" lon="2.97828">
        <ele>924.5</ele>
        <time>2021-08-25T07:29:58Z</time>
      </trkpt>
      <trkpt lat="45.81803" lon="2.97815">
        <ele>925.2</ele>
        <time>2021-08-25T07:30:02Z</time>
      </trkpt>
      <trkpt lat="45.81807" lon="2.97804">
        <ele>924.8</ele>
        <time>2021-08-25T07:30:07Z</time>
      </trkpt>
      <trkpt lat="45.81808" lon="2.97802">
        <ele>924.7</ele>
        <time>2021-08-25T07:30:08Z</time>
      </trkpt>
      <trkpt lat="45.81812" lon="2.97792">
        <ele>924.9</ele>
        <time>2021-08-25T07:30:12Z</time>
      </trkpt>
      <trkpt lat="45.81818" lon="2.97784">
        <ele>924.3</ele>
        <time>2021-08-25T07:30:17Z</time>
      </trkpt>
      <trkpt lat="45.81819" lon="2.97781">
        <ele>924.4</ele>
        <time>2021-08-25T07:30:18Z</time>
      </trkpt>
      <trkpt lat="45.81827" lon="2.97763">
        <ele>923.4</ele>
        <time>2021-08-25T07:30:27Z</time>
      </trkpt>
      <trkpt lat="45.81829" lon="2.97761">
        <ele>923.5</ele>
        <time>2021-08-25T07:30:28Z</time>
      </trkpt>
      <trkpt lat="45.81832" lon="2.97755">
        <ele>923.6</ele>
        <time>2021-08-25T07:30:31Z</time>
      </trkpt>
      <trkpt lat="45.81836" lon="2.97741">
        <ele>923.7</ele>
        <time>2021-08-25T07:30:37Z</time>
      </trkpt>
      <trkpt lat="45.81837" lon="2.97738">
        <ele>923.9</ele>
        <time>2021-08-25T07:30:38Z</time>
      </trkpt>
      <trkpt lat="45.81847" lon="2.97723">
        <ele>922.5</ele>
        <time>2021-08-25T07:30:48Z</time>
      </trkpt>
      <trkpt lat="45.81848" lon="2.97722">
        <ele>922.3</ele>
        <time>2021-08-25T07:30:49Z</time>
      </trkpt>
      <trkpt lat="45.81856" lon="2.97711">
        <ele>921.8</ele>
        <time>2021-08-25T07:30:55Z</time>
      </trkpt>
      <trkpt lat="45.81858" lon="2.97704">
        <ele>922.7</ele>
        <time>2021-08-25T07:30:59Z</time>
      </trkpt>
      <trkpt lat="45.81858" lon="2.97702">
        <ele>923.6</ele>
        <time>2021-08-25T07:31:00Z</time>
      </trkpt>
      <trkpt lat="45.81861" lon="2.97698">
        <ele>923.9</ele>
        <time>2021-08-25T07:31:04Z</time>
      </trkpt>
      <trkpt lat="45.81865" lon="2.97699">
        <ele>923.4</ele>
        <time>2021-08-25T07:31:09Z</time>
      </trkpt>
      <trkpt lat="45.81871" lon="2.97696">
        <ele>923.3</ele>
        <time>2021-08-25T07:31:16Z</time>
      </trkpt>
      <trkpt lat="45.81874" lon="2.97693">
        <ele>923</ele>
        <time>2021-08-25T07:31:22Z</time>
      </trkpt>
      <trkpt lat="45.81874" lon="2.97692">
        <ele>923</ele>
        <time>2021-08-25T07:31:23Z</time>
      </trkpt>
      <trkpt lat="45.81877" lon="2.97691">
        <ele>922.7</ele>
        <time>2021-08-25T07:31:28Z</time>
      </trkpt>
      <trkpt lat="45.81889" lon="2.97681">
        <ele>923.6</ele>
        <time>2021-08-25T07:31:41Z</time>
      </trkpt>
      <trkpt lat="45.81889" lon="2.9768">
        <ele>923.6</ele>
        <time>2021-08-25T07:31:42Z</time>
      </trkpt>
      <trkpt lat="45.81894" lon="2.9767">
        <ele>923.7</ele>
        <time>2021-08-25T07:31:49Z</time>
      </trkpt>
      <trkpt lat="45.81897" lon="2.97658">
        <ele>924.1</ele>
        <time>2021-08-25T07:31:56Z</time>
      </trkpt>
      <trkpt lat="45.81897" lon="2.97656">
        <ele>924.2</ele>
        <time>2021-08-25T07:31:57Z</time>
      </trkpt>
      <trkpt lat="45.81897" lon="2.97646">
        <ele>925.6</ele>
        <time>2021-08-25T07:32:02Z</time>
      </trkpt>
      <trkpt lat="45.81894" lon="2.97638">
        <ele>927.7</ele>
        <time>2021-08-25T07:32:06Z</time>
      </trkpt>
      <trkpt lat="45.81893" lon="2.97637">
        <ele>928.1</ele>
        <time>2021-08-25T07:32:07Z</time>
      </trkpt>
      <trkpt lat="45.81893" lon="2.97635">
        <ele>928.8</ele>
        <time>2021-08-25T07:32:08Z</time>
      </trkpt>
      <trkpt lat="45.8189" lon="2.97624">
        <ele>930.7</ele>
        <time>2021-08-25T07:32:14Z</time>
      </trkpt>
      <trkpt lat="45.8189" lon="2.97619">
        <ele>931.4</ele>
        <time>2021-08-25T07:32:17Z</time>
      </trkpt>
      <trkpt lat="45.81887" lon="2.97611">
        <ele>932.2</ele>
        <time>2021-08-25T07:32:22Z</time>
      </trkpt>
      <trkpt lat="45.81886" lon="2.9761">
        <ele>932</ele>
        <time>2021-08-25T07:32:23Z</time>
      </trkpt>
      <trkpt lat="45.81884" lon="2.976">
        <ele>931.8</ele>
        <time>2021-08-25T07:32:30Z</time>
      </trkpt>
      <trkpt lat="45.8188" lon="2.9759">
        <ele>932.1</ele>
        <time>2021-08-25T07:32:37Z</time>
      </trkpt>
      <trkpt lat="45.81879" lon="2.97589">
        <ele>932.1</ele>
        <time>2021-08-25T07:32:38Z</time>
      </trkpt>
      <trkpt lat="45.81875" lon="2.97581">
        <ele>931.9</ele>
        <time>2021-08-25T07:32:43Z</time>
      </trkpt>
      <trkpt lat="45.8187" lon="2.97571">
        <ele>931.9</ele>
        <time>2021-08-25T07:32:48Z</time>
      </trkpt>
      <trkpt lat="45.8187" lon="2.97569">
        <ele>931.9</ele>
        <time>2021-08-25T07:32:49Z</time>
      </trkpt>
      <trkpt lat="45.81867" lon="2.9756">
        <ele>931.7</ele>
        <time>2021-08-25T07:32:53Z</time>
      </trkpt>
      <trkpt lat="45.81862" lon="2.97552">
        <ele>931.3</ele>
        <time>2021-08-25T07:32:57Z</time>
      </trkpt>
      <trkpt lat="45.81858" lon="2.97548">
        <ele>931.8</ele>
        <time>2021-08-25T07:32:58Z</time>
      </trkpt>
      <trkpt lat="45.81856" lon="2.97545">
        <ele>932</ele>
        <time>2021-08-25T07:32:59Z</time>
      </trkpt>
      <trkpt lat="45.8185" lon="2.97532">
        <ele>932.5</ele>
        <time>2021-08-25T07:33:04Z</time>
      </trkpt>
      <trkpt lat="45.81842" lon="2.97527">
        <ele>932.9</ele>
        <time>2021-08-25T07:33:09Z</time>
      </trkpt>
      <trkpt lat="45.81841" lon="2.97526">
        <ele>932.9</ele>
        <time>2021-08-25T07:33:10Z</time>
      </trkpt>
      <trkpt lat="45.81831" lon="2.97512">
        <ele>933.4</ele>
        <time>2021-08-25T07:33:19Z</time>
      </trkpt>
      <trkpt lat="45.8183" lon="2.9751">
        <ele>933.4</ele>
        <time>2021-08-25T07:33:20Z</time>
      </trkpt>
      <trkpt lat="45.81819" lon="2.97494">
        <ele>933.2</ele>
        <time>2021-08-25T07:33:29Z</time>
      </trkpt>
      <trkpt lat="45.81818" lon="2.97492">
        <ele>933.2</ele>
        <time>2021-08-25T07:33:30Z</time>
      </trkpt>
      <trkpt lat="45.81809" lon="2.97471">
        <ele>932.3</ele>
        <time>2021-08-25T07:33:44Z</time>
      </trkpt>
      <trkpt lat="45.81808" lon="2.97468">
        <ele>932.2</ele>
        <time>2021-08-25T07:33:45Z</time>
      </trkpt>
      <trkpt lat="45.81802" lon="2.97445">
        <ele>931.3</ele>
        <time>2021-08-25T07:33:55Z</time>
      </trkpt>
      <trkpt lat="45.81801" lon="2.97443">
        <ele>931.1</ele>
        <time>2021-08-25T07:33:56Z</time>
      </trkpt>
      <trkpt lat="45.81798" lon="2.97432">
        <ele>931.1</ele>
        <time>2021-08-25T07:34:00Z</time>
      </trkpt>
      <trkpt lat="45.81793" lon="2.97421">
        <ele>930.2</ele>
        <time>2021-08-25T07:34:05Z</time>
      </trkpt>
      <trkpt lat="45.81792" lon="2.97419">
        <ele>929.9</ele>
        <time>2021-08-25T07:34:06Z</time>
      </trkpt>
      <trkpt lat="45.8179" lon="2.97412">
        <ele>929.3</ele>
        <time>2021-08-25T07:34:09Z</time>
      </trkpt>
      <trkpt lat="45.81791" lon="2.97406">
        <ele>928.5</ele>
        <time>2021-08-25T07:34:11Z</time>
      </trkpt>
      <trkpt lat="45.81786" lon="2.97396">
        <ele>927.8</ele>
        <time>2021-08-25T07:34:15Z</time>
      </trkpt>
      <trkpt lat="45.81785" lon="2.97394">
        <ele>927.6</ele>
        <time>2021-08-25T07:34:16Z</time>
      </trkpt>
      <trkpt lat="45.81778" lon="2.97385">
        <ele>926.6</ele>
        <time>2021-08-25T07:34:20Z</time>
      </trkpt>
      <trkpt lat="45.81774" lon="2.97373">
        <ele>925.3</ele>
        <time>2021-08-25T07:34:25Z</time>
      </trkpt>
      <trkpt lat="45.81773" lon="2.97371">
        <ele>925</ele>
        <time>2021-08-25T07:34:26Z</time>
      </trkpt>
      <trkpt lat="45.8177" lon="2.97364">
        <ele>924.7</ele>
        <time>2021-08-25T07:34:28Z</time>
      </trkpt>
      <trkpt lat="45.81765" lon="2.97359">
        <ele>924.4</ele>
        <time>2021-08-25T07:34:30Z</time>
      </trkpt>
      <trkpt lat="45.81761" lon="2.97349">
        <ele>923.2</ele>
        <time>2021-08-25T07:34:35Z</time>
      </trkpt>
      <trkpt lat="45.8176" lon="2.97346">
        <ele>923.1</ele>
        <time>2021-08-25T07:34:36Z</time>
      </trkpt>
      <trkpt lat="45.81755" lon="2.97331">
        <ele>921.8</ele>
        <time>2021-08-25T07:34:44Z</time>
      </trkpt>
      <trkpt lat="45.81753" lon="2.97329">
        <ele>921.5</ele>
        <time>2021-08-25T07:34:45Z</time>
      </trkpt>
      <trkpt lat="45.81752" lon="2.97327">
        <ele>921.2</ele>
        <time>2021-08-25T07:34:46Z</time>
      </trkpt>
      <trkpt lat="45.81742" lon="2.97315">
        <ele>919.2</ele>
        <time>2021-08-25T07:34:53Z</time>
      </trkpt>
      <trkpt lat="45.8174" lon="2.9731">
        <ele>918.2</ele>
        <time>2021-08-25T07:34:56Z</time>
      </trkpt>
      <trkpt lat="45.81738" lon="2.97309">
        <ele>918</ele>
        <time>2021-08-25T07:34:57Z</time>
      </trkpt>
      <trkpt lat="45.81736" lon="2.97304">
        <ele>917.6</ele>
        <time>2021-08-25T07:34:59Z</time>
      </trkpt>
      <trkpt lat="45.81733" lon="2.97302">
        <ele>917.6</ele>
        <time>2021-08-25T07:35:00Z</time>
      </trkpt>
      <trkpt lat="45.81729" lon="2.97294">
        <ele>917.1</ele>
        <time>2021-08-25T07:35:03Z</time>
      </trkpt>
      <trkpt lat="45.81725" lon="2.9729">
        <ele>917.5</ele>
        <time>2021-08-25T07:35:06Z</time>
      </trkpt>
      <trkpt lat="45.81724" lon="2.97288">
        <ele>917.5</ele>
        <time>2021-08-25T07:35:07Z</time>
      </trkpt>
      <trkpt lat="45.81716" lon="2.97269">
        <ele>919.8</ele>
        <time>2021-08-25T07:35:16Z</time>
      </trkpt>
      <trkpt lat="45.81715" lon="2.97268">
        <ele>919.9</ele>
        <time>2021-08-25T07:35:17Z</time>
      </trkpt>
      <trkpt lat="45.81705" lon="2.97251">
        <ele>920.3</ele>
        <time>2021-08-25T07:35:26Z</time>
      </trkpt>
      <trkpt lat="45.81705" lon="2.97249">
        <ele>920.1</ele>
        <time>2021-08-25T07:35:27Z</time>
      </trkpt>
      <trkpt lat="45.817" lon="2.9724">
        <ele>920.2</ele>
        <time>2021-08-25T07:35:32Z</time>
      </trkpt>
      <trkpt lat="45.81696" lon="2.97233">
        <ele>920.5</ele>
        <time>2021-08-25T07:35:37Z</time>
      </trkpt>
      <trkpt lat="45.81696" lon="2.97231">
        <ele>920.6</ele>
        <time>2021-08-25T07:35:38Z</time>
      </trkpt>
      <trkpt lat="45.81695" lon="2.97229">
        <ele>920.7</ele>
        <time>2021-08-25T07:35:39Z</time>
      </trkpt>
      <trkpt lat="45.81687" lon="2.97211">
        <ele>921.2</ele>
        <time>2021-08-25T07:35:48Z</time>
      </trkpt>
      <trkpt lat="45.81686" lon="2.97209">
        <ele>921.2</ele>
        <time>2021-08-25T07:35:49Z</time>
      </trkpt>
      <trkpt lat="45.81684" lon="2.97205">
        <ele>921.4</ele>
        <time>2021-08-25T07:35:51Z</time>
      </trkpt>
      <trkpt lat="45.8168" lon="2.97199">
        <ele>922.3</ele>
        <time>2021-08-25T07:35:54Z</time>
      </trkpt>
      <trkpt lat="45.81677" lon="2.97189">
        <ele>923.9</ele>
        <time>2021-08-25T07:35:58Z</time>
      </trkpt>
      <trkpt lat="45.81676" lon="2.97186">
        <ele>924.3</ele>
        <time>2021-08-25T07:35:59Z</time>
      </trkpt>
      <trkpt lat="45.81671" lon="2.9717">
        <ele>925.3</ele>
        <time>2021-08-25T07:36:05Z</time>
      </trkpt>
      <trkpt lat="45.81668" lon="2.97163">
        <ele>925.1</ele>
        <time>2021-08-25T07:36:08Z</time>
      </trkpt>
      <trkpt lat="45.81667" lon="2.97161">
        <ele>925</ele>
        <time>2021-08-25T07:36:09Z</time>
      </trkpt>
      <trkpt lat="45.81659" lon="2.9714">
        <ele>927.9</ele>
        <time>2021-08-25T07:36:22Z</time>
      </trkpt>
      <trkpt lat="45.81657" lon="2.97138">
        <ele>927.9</ele>
        <time>2021-08-25T07:36:23Z</time>
      </trkpt>
      <trkpt lat="45.81648" lon="2.97119">
        <ele>928.8</ele>
        <time>2021-08-25T07:36:32Z</time>
      </trkpt>
      <trkpt lat="45.81647" lon="2.97117">
        <ele>928.7</ele>
        <time>2021-08-25T07:36:33Z</time>
      </trkpt>
      <trkpt lat="45.81644" lon="2.97108">
        <ele>928.4</ele>
        <time>2021-08-25T07:36:37Z</time>
      </trkpt>
      <trkpt lat="45.81643" lon="2.97103">
        <ele>928.6</ele>
        <time>2021-08-25T07:36:39Z</time>
      </trkpt>
      <trkpt lat="45.81639" lon="2.97097">
        <ele>928.4</ele>
        <time>2021-08-25T07:36:43Z</time>
      </trkpt>
      <trkpt lat="45.81638" lon="2.97096">
        <ele>928.5</ele>
        <time>2021-08-25T07:36:44Z</time>
      </trkpt>
      <trkpt lat="45.81633" lon="2.97089">
        <ele>929.5</ele>
        <time>2021-08-25T07:36:48Z</time>
      </trkpt>
      <trkpt lat="45.81628" lon="2.97079">
        <ele>930.2</ele>
        <time>2021-08-25T07:36:53Z</time>
      </trkpt>
      <trkpt lat="45.81626" lon="2.97077">
        <ele>930.2</ele>
        <time>2021-08-25T07:36:54Z</time>
      </trkpt>
      <trkpt lat="45.81617" lon="2.97061">
        <ele>930.8</ele>
        <time>2021-08-25T07:37:03Z</time>
      </trkpt>
      <trkpt lat="45.81616" lon="2.9706">
        <ele>930.8</ele>
        <time>2021-08-25T07:37:04Z</time>
      </trkpt>
      <trkpt lat="45.81607" lon="2.97045">
        <ele>932.2</ele>
        <time>2021-08-25T07:37:13Z</time>
      </trkpt>
      <trkpt lat="45.81606" lon="2.97043">
        <ele>932.4</ele>
        <time>2021-08-25T07:37:14Z</time>
      </trkpt>
      <trkpt lat="45.81596" lon="2.97027">
        <ele>934.4</ele>
        <time>2021-08-25T07:37:23Z</time>
      </trkpt>
      <trkpt lat="45.81596" lon="2.97026">
        <ele>934.5</ele>
        <time>2021-08-25T07:37:24Z</time>
      </trkpt>
      <trkpt lat="45.81591" lon="2.97019">
        <ele>934.9</ele>
        <time>2021-08-25T07:37:28Z</time>
      </trkpt>
      <trkpt lat="45.81588" lon="2.97007">
        <ele>935.8</ele>
        <time>2021-08-25T07:37:34Z</time>
      </trkpt>
      <trkpt lat="45.81587" lon="2.97006">
        <ele>935.9</ele>
        <time>2021-08-25T07:37:35Z</time>
      </trkpt>
      <trkpt lat="45.81578" lon="2.96989">
        <ele>938</ele>
        <time>2021-08-25T07:37:44Z</time>
      </trkpt>
      <trkpt lat="45.81576" lon="2.96987">
        <ele>938.2</ele>
        <time>2021-08-25T07:37:45Z</time>
      </trkpt>
      <trkpt lat="45.81567" lon="2.96968">
        <ele>939.6</ele>
        <time>2021-08-25T07:37:54Z</time>
      </trkpt>
      <trkpt lat="45.81566" lon="2.96966">
        <ele>939.9</ele>
        <time>2021-08-25T07:37:55Z</time>
      </trkpt>
      <trkpt lat="45.8156" lon="2.96956">
        <ele>941.5</ele>
        <time>2021-08-25T07:38:00Z</time>
      </trkpt>
      <trkpt lat="45.81556" lon="2.9695">
        <ele>942</ele>
        <time>2021-08-25T07:38:04Z</time>
      </trkpt>
      <trkpt lat="45.81555" lon="2.96948">
        <ele>941.8</ele>
        <time>2021-08-25T07:38:05Z</time>
      </trkpt>
      <trkpt lat="45.81552" lon="2.9694">
        <ele>942.1</ele>
        <time>2021-08-25T07:38:08Z</time>
      </trkpt>
      <trkpt lat="45.81547" lon="2.9693">
        <ele>945.1</ele>
        <time>2021-08-25T07:38:16Z</time>
      </trkpt>
      <trkpt lat="45.81547" lon="2.96929">
        <ele>945.3</ele>
        <time>2021-08-25T07:38:17Z</time>
      </trkpt>
      <trkpt lat="45.81544" lon="2.96926">
        <ele>945.8</ele>
        <time>2021-08-25T07:38:21Z</time>
      </trkpt>
      <trkpt lat="45.81538" lon="2.9691">
        <ele>948.1</ele>
        <time>2021-08-25T07:38:31Z</time>
      </trkpt>
      <trkpt lat="45.81537" lon="2.96908">
        <ele>948.3</ele>
        <time>2021-08-25T07:38:32Z</time>
      </trkpt>
      <trkpt lat="45.81531" lon="2.96896">
        <ele>949.4</ele>
        <time>2021-08-25T07:38:38Z</time>
      </trkpt>
      <trkpt lat="45.81528" lon="2.96892">
        <ele>950.3</ele>
        <time>2021-08-25T07:38:41Z</time>
      </trkpt>
      <trkpt lat="45.81527" lon="2.96891">
        <ele>950.6</ele>
        <time>2021-08-25T07:38:42Z</time>
      </trkpt>
      <trkpt lat="45.81524" lon="2.96885">
        <ele>951.7</ele>
        <time>2021-08-25T07:38:46Z</time>
      </trkpt>
      <trkpt lat="45.8152" lon="2.96872">
        <ele>952.9</ele>
        <time>2021-08-25T07:38:52Z</time>
      </trkpt>
      <trkpt lat="45.81519" lon="2.9687">
        <ele>953.2</ele>
        <time>2021-08-25T07:38:53Z</time>
      </trkpt>
      <trkpt lat="45.81511" lon="2.96851">
        <ele>955.8</ele>
        <time>2021-08-25T07:39:02Z</time>
      </trkpt>
      <trkpt lat="45.8151" lon="2.96849">
        <ele>956</ele>
        <time>2021-08-25T07:39:03Z</time>
      </trkpt>
      <trkpt lat="45.81502" lon="2.96832">
        <ele>957.4</ele>
        <time>2021-08-25T07:39:12Z</time>
      </trkpt>
      <trkpt lat="45.815" lon="2.9683">
        <ele>957.5</ele>
        <time>2021-08-25T07:39:13Z</time>
      </trkpt>
      <trkpt lat="45.81496" lon="2.96821">
        <ele>958</ele>
        <time>2021-08-25T07:39:17Z</time>
      </trkpt>
      <trkpt lat="45.81491" lon="2.96816">
        <ele>958.8</ele>
        <time>2021-08-25T07:39:20Z</time>
      </trkpt>
      <trkpt lat="45.8149" lon="2.96812">
        <ele>959.1</ele>
        <time>2021-08-25T07:39:22Z</time>
      </trkpt>
      <trkpt lat="45.81489" lon="2.9681">
        <ele>959.2</ele>
        <time>2021-08-25T07:39:23Z</time>
      </trkpt>
      <trkpt lat="45.81481" lon="2.96792">
        <ele>960.7</ele>
        <time>2021-08-25T07:39:33Z</time>
      </trkpt>
      <trkpt lat="45.8148" lon="2.96789">
        <ele>960.9</ele>
        <time>2021-08-25T07:39:34Z</time>
      </trkpt>
      <trkpt lat="45.81476" lon="2.96778">
        <ele>961.4</ele>
        <time>2021-08-25T07:39:39Z</time>
      </trkpt>
      <trkpt lat="45.81471" lon="2.9677">
        <ele>961.6</ele>
        <time>2021-08-25T07:39:43Z</time>
      </trkpt>
      <trkpt lat="45.8147" lon="2.96767">
        <ele>962</ele>
        <time>2021-08-25T07:39:44Z</time>
      </trkpt>
      <trkpt lat="45.81461" lon="2.9675">
        <ele>965.1</ele>
        <time>2021-08-25T07:39:53Z</time>
      </trkpt>
      <trkpt lat="45.8146" lon="2.96748">
        <ele>965.3</ele>
        <time>2021-08-25T07:39:54Z</time>
      </trkpt>
      <trkpt lat="45.81458" lon="2.96738">
        <ele>966</ele>
        <time>2021-08-25T07:39:58Z</time>
      </trkpt>
      <trkpt lat="45.81452" lon="2.96729">
        <ele>967.5</ele>
        <time>2021-08-25T07:40:05Z</time>
      </trkpt>
      <trkpt lat="45.81451" lon="2.96727">
        <ele>967.7</ele>
        <time>2021-08-25T07:40:06Z</time>
      </trkpt>
      <trkpt lat="45.81447" lon="2.96718">
        <ele>968.3</ele>
        <time>2021-08-25T07:40:10Z</time>
      </trkpt>
      <trkpt lat="45.81446" lon="2.96712">
        <ele>968.3</ele>
        <time>2021-08-25T07:40:12Z</time>
      </trkpt>
      <trkpt lat="45.81442" lon="2.96707">
        <ele>968.5</ele>
        <time>2021-08-25T07:40:15Z</time>
      </trkpt>
      <trkpt lat="45.81441" lon="2.96705">
        <ele>968.5</ele>
        <time>2021-08-25T07:40:16Z</time>
      </trkpt>
      <trkpt lat="45.81437" lon="2.96697">
        <ele>969.2</ele>
        <time>2021-08-25T07:40:20Z</time>
      </trkpt>
      <trkpt lat="45.81431" lon="2.96688">
        <ele>969.7</ele>
        <time>2021-08-25T07:40:25Z</time>
      </trkpt>
      <trkpt lat="45.8143" lon="2.96686">
        <ele>969.8</ele>
        <time>2021-08-25T07:40:26Z</time>
      </trkpt>
      <trkpt lat="45.81421" lon="2.96669">
        <ele>970.6</ele>
        <time>2021-08-25T07:40:35Z</time>
      </trkpt>
      <trkpt lat="45.8142" lon="2.96667">
        <ele>970.7</ele>
        <time>2021-08-25T07:40:36Z</time>
      </trkpt>
      <trkpt lat="45.81414" lon="2.9665">
        <ele>971.1</ele>
        <time>2021-08-25T07:40:45Z</time>
      </trkpt>
      <trkpt lat="45.81414" lon="2.96649">
        <ele>971</ele>
        <time>2021-08-25T07:40:46Z</time>
      </trkpt>
      <trkpt lat="45.81405" lon="2.96632">
        <ele>970.2</ele>
        <time>2021-08-25T07:40:55Z</time>
      </trkpt>
      <trkpt lat="45.81404" lon="2.9663">
        <ele>969.9</ele>
        <time>2021-08-25T07:40:56Z</time>
      </trkpt>
      <trkpt lat="45.81394" lon="2.96612">
        <ele>968.7</ele>
        <time>2021-08-25T07:41:06Z</time>
      </trkpt>
      <trkpt lat="45.81393" lon="2.9661">
        <ele>968.6</ele>
        <time>2021-08-25T07:41:07Z</time>
      </trkpt>
      <trkpt lat="45.81392" lon="2.96605">
        <ele>968.2</ele>
        <time>2021-08-25T07:41:10Z</time>
      </trkpt>
      <trkpt lat="45.81389" lon="2.96597">
        <ele>967.2</ele>
        <time>2021-08-25T07:41:16Z</time>
      </trkpt>
      <trkpt lat="45.81383" lon="2.9659">
        <ele>966.2</ele>
        <time>2021-08-25T07:41:21Z</time>
      </trkpt>
      <trkpt lat="45.81382" lon="2.96589">
        <ele>966.3</ele>
        <time>2021-08-25T07:41:22Z</time>
      </trkpt>
      <trkpt lat="45.81373" lon="2.9657">
        <ele>965.9</ele>
        <time>2021-08-25T07:41:31Z</time>
      </trkpt>
      <trkpt lat="45.81372" lon="2.96568">
        <ele>966</ele>
        <time>2021-08-25T07:41:32Z</time>
      </trkpt>
      <trkpt lat="45.81363" lon="2.9655">
        <ele>964.4</ele>
        <time>2021-08-25T07:41:43Z</time>
      </trkpt>
      <trkpt lat="45.81362" lon="2.96548">
        <ele>964.1</ele>
        <time>2021-08-25T07:41:44Z</time>
      </trkpt>
      <trkpt lat="45.81355" lon="2.96533">
        <ele>962.7</ele>
        <time>2021-08-25T07:41:50Z</time>
      </trkpt>
      <trkpt lat="45.81351" lon="2.96528">
        <ele>961.6</ele>
        <time>2021-08-25T07:41:53Z</time>
      </trkpt>
      <trkpt lat="45.8135" lon="2.96525">
        <ele>961.4</ele>
        <time>2021-08-25T07:41:54Z</time>
      </trkpt>
      <trkpt lat="45.81344" lon="2.96511">
        <ele>960.7</ele>
        <time>2021-08-25T07:42:00Z</time>
      </trkpt>
      <trkpt lat="45.81342" lon="2.96502">
        <ele>959.6</ele>
        <time>2021-08-25T07:42:03Z</time>
      </trkpt>
      <trkpt lat="45.8134" lon="2.965">
        <ele>959.5</ele>
        <time>2021-08-25T07:42:04Z</time>
      </trkpt>
      <trkpt lat="45.81338" lon="2.96496">
        <ele>959.1</ele>
        <time>2021-08-25T07:42:06Z</time>
      </trkpt>
      <trkpt lat="45.81333" lon="2.96483">
        <ele>958.2</ele>
        <time>2021-08-25T07:42:13Z</time>
      </trkpt>
      <trkpt lat="45.81332" lon="2.96481">
        <ele>958.1</ele>
        <time>2021-08-25T07:42:14Z</time>
      </trkpt>
      <trkpt lat="45.81327" lon="2.96469">
        <ele>957.9</ele>
        <time>2021-08-25T07:42:21Z</time>
      </trkpt>
      <trkpt lat="45.81326" lon="2.96468">
        <ele>958.1</ele>
        <time>2021-08-25T07:42:22Z</time>
      </trkpt>
      <trkpt lat="45.81324" lon="2.96463">
        <ele>958.8</ele>
        <time>2021-08-25T07:42:25Z</time>
      </trkpt>
      <trkpt lat="45.81323" lon="2.96461">
        <ele>959.2</ele>
        <time>2021-08-25T07:42:26Z</time>
      </trkpt>
      <trkpt lat="45.81313" lon="2.96443">
        <ele>961.5</ele>
        <time>2021-08-25T07:42:35Z</time>
      </trkpt>
      <trkpt lat="45.81312" lon="2.96441">
        <ele>962.1</ele>
        <time>2021-08-25T07:42:36Z</time>
      </trkpt>
      <trkpt lat="45.81302" lon="2.96422">
        <ele>963.6</ele>
        <time>2021-08-25T07:42:45Z</time>
      </trkpt>
      <trkpt lat="45.81301" lon="2.9642">
        <ele>963.7</ele>
        <time>2021-08-25T07:42:46Z</time>
      </trkpt>
      <trkpt lat="45.813" lon="2.96414">
        <ele>964.3</ele>
        <time>2021-08-25T07:42:49Z</time>
      </trkpt>
      <trkpt lat="45.81294" lon="2.96401">
        <ele>965.5</ele>
        <time>2021-08-25T07:42:55Z</time>
      </trkpt>
      <trkpt lat="45.81292" lon="2.96399">
        <ele>965.7</ele>
        <time>2021-08-25T07:42:56Z</time>
      </trkpt>
      <trkpt lat="45.81284" lon="2.96383">
        <ele>966.1</ele>
        <time>2021-08-25T07:43:03Z</time>
      </trkpt>
      <trkpt lat="45.81282" lon="2.96378">
        <ele>966.1</ele>
        <time>2021-08-25T07:43:05Z</time>
      </trkpt>
      <trkpt lat="45.81281" lon="2.96376">
        <ele>966.1</ele>
        <time>2021-08-25T07:43:06Z</time>
      </trkpt>
      <trkpt lat="45.81276" lon="2.96366">
        <ele>967.3</ele>
        <time>2021-08-25T07:43:11Z</time>
      </trkpt>
      <trkpt lat="45.81274" lon="2.96356">
        <ele>967.1</ele>
        <time>2021-08-25T07:43:15Z</time>
      </trkpt>
      <trkpt lat="45.81273" lon="2.96354">
        <ele>967.1</ele>
        <time>2021-08-25T07:43:16Z</time>
      </trkpt>
      <trkpt lat="45.81271" lon="2.96348">
        <ele>967.7</ele>
        <time>2021-08-25T07:43:19Z</time>
      </trkpt>
      <trkpt lat="45.81263" lon="2.96337">
        <ele>969.1</ele>
        <time>2021-08-25T07:43:25Z</time>
      </trkpt>
      <trkpt lat="45.81262" lon="2.96335">
        <ele>969.3</ele>
        <time>2021-08-25T07:43:26Z</time>
      </trkpt>
      <trkpt lat="45.81259" lon="2.96331">
        <ele>970.2</ele>
        <time>2021-08-25T07:43:29Z</time>
      </trkpt>
      <trkpt lat="45.81257" lon="2.96331">
        <ele>970.5</ele>
        <time>2021-08-25T07:43:33Z</time>
      </trkpt>
      <trkpt lat="45.81255" lon="2.96333">
        <ele>970.5</ele>
        <time>2021-08-25T07:43:36Z</time>
      </trkpt>
      <trkpt lat="45.81249" lon="2.96343">
        <ele>971.2</ele>
        <time>2021-08-25T07:43:43Z</time>
      </trkpt>
      <trkpt lat="45.81248" lon="2.96344">
        <ele>971.3</ele>
        <time>2021-08-25T07:43:44Z</time>
      </trkpt>
      <trkpt lat="45.81238" lon="2.96359">
        <ele>972.7</ele>
        <time>2021-08-25T07:43:54Z</time>
      </trkpt>
      <trkpt lat="45.81237" lon="2.9636">
        <ele>972.8</ele>
        <time>2021-08-25T07:43:55Z</time>
      </trkpt>
      <trkpt lat="45.81233" lon="2.96367">
        <ele>972.8</ele>
        <time>2021-08-25T07:43:59Z</time>
      </trkpt>
      <trkpt lat="45.81227" lon="2.96375">
        <ele>972.4</ele>
        <time>2021-08-25T07:44:05Z</time>
      </trkpt>
      <trkpt lat="45.81226" lon="2.96376">
        <ele>972.3</ele>
        <time>2021-08-25T07:44:06Z</time>
      </trkpt>
      <trkpt lat="45.81216" lon="2.9639">
        <ele>971.8</ele>
        <time>2021-08-25T07:44:18Z</time>
      </trkpt>
      <trkpt lat="45.81215" lon="2.96391">
        <ele>971.7</ele>
        <time>2021-08-25T07:44:19Z</time>
      </trkpt>
      <trkpt lat="45.81205" lon="2.96405">
        <ele>971.3</ele>
        <time>2021-08-25T07:44:28Z</time>
      </trkpt>
      <trkpt lat="45.81204" lon="2.96406">
        <ele>971.2</ele>
        <time>2021-08-25T07:44:29Z</time>
      </trkpt>
      <trkpt lat="45.81194" lon="2.96421">
        <ele>970.8</ele>
        <time>2021-08-25T07:44:38Z</time>
      </trkpt>
      <trkpt lat="45.81194" lon="2.96423">
        <ele>970.8</ele>
        <time>2021-08-25T07:44:39Z</time>
      </trkpt>
      <trkpt lat="45.81188" lon="2.96431">
        <ele>970.7</ele>
        <time>2021-08-25T07:44:44Z</time>
      </trkpt>
      <trkpt lat="45.81182" lon="2.96438">
        <ele>970.5</ele>
        <time>2021-08-25T07:44:49Z</time>
      </trkpt>
      <trkpt lat="45.81181" lon="2.9644">
        <ele>970.6</ele>
        <time>2021-08-25T07:44:50Z</time>
      </trkpt>
      <trkpt lat="45.81172" lon="2.96448">
        <ele>970.6</ele>
        <time>2021-08-25T07:44:56Z</time>
      </trkpt>
      <trkpt lat="45.81167" lon="2.96451">
        <ele>970</ele>
        <time>2021-08-25T07:45:02Z</time>
      </trkpt>
      <trkpt lat="45.81166" lon="2.96452">
        <ele>970</ele>
        <time>2021-08-25T07:45:03Z</time>
      </trkpt>
      <trkpt lat="45.81162" lon="2.96459">
        <ele>970.5</ele>
        <time>2021-08-25T07:45:09Z</time>
      </trkpt>
      <trkpt lat="45.81152" lon="2.96462">
        <ele>971.4</ele>
        <time>2021-08-25T07:45:15Z</time>
      </trkpt>
      <trkpt lat="45.81151" lon="2.96464">
        <ele>971.4</ele>
        <time>2021-08-25T07:45:16Z</time>
      </trkpt>
      <trkpt lat="45.81138" lon="2.96477">
        <ele>973.1</ele>
        <time>2021-08-25T07:45:25Z</time>
      </trkpt>
      <trkpt lat="45.81137" lon="2.96476">
        <ele>973.2</ele>
        <time>2021-08-25T07:45:26Z</time>
      </trkpt>
      <trkpt lat="45.81135" lon="2.96475">
        <ele>972.8</ele>
        <time>2021-08-25T07:45:29Z</time>
      </trkpt>
      <trkpt lat="45.81131" lon="2.96475">
        <ele>971.8</ele>
        <time>2021-08-25T07:45:33Z</time>
      </trkpt>
      <trkpt lat="45.81125" lon="2.96483">
        <ele>971.3</ele>
        <time>2021-08-25T07:45:39Z</time>
      </trkpt>
      <trkpt lat="45.81124" lon="2.96484">
        <ele>971.3</ele>
        <time>2021-08-25T07:45:40Z</time>
      </trkpt>
      <trkpt lat="45.81116" lon="2.96494">
        <ele>971.6</ele>
        <time>2021-08-25T07:45:46Z</time>
      </trkpt>
      <trkpt lat="45.81112" lon="2.96498">
        <ele>972.1</ele>
        <time>2021-08-25T07:45:49Z</time>
      </trkpt>
      <trkpt lat="45.81111" lon="2.96499">
        <ele>972.2</ele>
        <time>2021-08-25T07:45:50Z</time>
      </trkpt>
      <trkpt lat="45.81105" lon="2.9651">
        <ele>973.2</ele>
        <time>2021-08-25T07:45:56Z</time>
      </trkpt>
      <trkpt lat="45.81099" lon="2.96516">
        <ele>972</ele>
        <time>2021-08-25T07:46:01Z</time>
      </trkpt>
      <trkpt lat="45.81098" lon="2.96517">
        <ele>971.7</ele>
        <time>2021-08-25T07:46:02Z</time>
      </trkpt>
      <trkpt lat="45.81094" lon="2.96524">
        <ele>970.1</ele>
        <time>2021-08-25T07:46:08Z</time>
      </trkpt>
      <trkpt lat="45.81084" lon="2.9653">
        <ele>969.6</ele>
        <time>2021-08-25T07:46:16Z</time>
      </trkpt>
      <trkpt lat="45.81083" lon="2.96532">
        <ele>969.4</ele>
        <time>2021-08-25T07:46:17Z</time>
      </trkpt>
      <trkpt lat="45.8107" lon="2.96546">
        <ele>969.5</ele>
        <time>2021-08-25T07:46:28Z</time>
      </trkpt>
      <trkpt lat="45.81069" lon="2.96547">
        <ele>969.5</ele>
        <time>2021-08-25T07:46:29Z</time>
      </trkpt>
      <trkpt lat="45.81064" lon="2.96553">
        <ele>969.1</ele>
        <time>2021-08-25T07:46:34Z</time>
      </trkpt>
      <trkpt lat="45.81058" lon="2.96565">
        <ele>968.1</ele>
        <time>2021-08-25T07:46:43Z</time>
      </trkpt>
      <trkpt lat="45.81057" lon="2.96566">
        <ele>968.2</ele>
        <time>2021-08-25T07:46:44Z</time>
      </trkpt>
      <trkpt lat="45.81052" lon="2.96577">
        <ele>967.9</ele>
        <time>2021-08-25T07:46:51Z</time>
      </trkpt>
      <trkpt lat="45.8105" lon="2.96585">
        <ele>968.7</ele>
        <time>2021-08-25T07:46:54Z</time>
      </trkpt>
      <trkpt lat="45.81049" lon="2.96587">
        <ele>968.8</ele>
        <time>2021-08-25T07:46:55Z</time>
      </trkpt>
      <trkpt lat="45.8104" lon="2.96606">
        <ele>968.1</ele>
        <time>2021-08-25T07:47:07Z</time>
      </trkpt>
      <trkpt lat="45.8104" lon="2.96607">
        <ele>967.9</ele>
        <time>2021-08-25T07:47:08Z</time>
      </trkpt>
      <trkpt lat="45.8103" lon="2.96622">
        <ele>967.1</ele>
        <time>2021-08-25T07:47:18Z</time>
      </trkpt>
      <trkpt lat="45.81029" lon="2.96624">
        <ele>967</ele>
        <time>2021-08-25T07:47:19Z</time>
      </trkpt>
      <trkpt lat="45.81026" lon="2.96627">
        <ele>966.6</ele>
        <time>2021-08-25T07:47:22Z</time>
      </trkpt>
      <trkpt lat="45.81022" lon="2.96641">
        <ele>966.1</ele>
        <time>2021-08-25T07:47:29Z</time>
      </trkpt>
      <trkpt lat="45.81022" lon="2.96644">
        <ele>966.1</ele>
        <time>2021-08-25T07:47:30Z</time>
      </trkpt>
      <trkpt lat="45.81019" lon="2.96653">
        <ele>966</ele>
        <time>2021-08-25T07:47:35Z</time>
      </trkpt>
      <trkpt lat="45.81014" lon="2.96666">
        <ele>966.4</ele>
        <time>2021-08-25T07:47:42Z</time>
      </trkpt>
      <trkpt lat="45.81014" lon="2.96668">
        <ele>966.6</ele>
        <time>2021-08-25T07:47:43Z</time>
      </trkpt>
      <trkpt lat="45.81009" lon="2.96684">
        <ele>966.5</ele>
        <time>2021-08-25T07:47:52Z</time>
      </trkpt>
      <trkpt lat="45.8101" lon="2.96695">
        <ele>966</ele>
        <time>2021-08-25T07:47:59Z</time>
      </trkpt>
      <trkpt lat="45.8101" lon="2.96696">
        <ele>966</ele>
        <time>2021-08-25T07:48:00Z</time>
      </trkpt>
      <trkpt lat="45.81013" lon="2.96701">
        <ele>965.6</ele>
        <time>2021-08-25T07:48:03Z</time>
      </trkpt>
      <trkpt lat="45.81013" lon="2.96709">
        <ele>965.9</ele>
        <time>2021-08-25T07:48:07Z</time>
      </trkpt>
      <trkpt lat="45.81015" lon="2.96716">
        <ele>966</ele>
        <time>2021-08-25T07:48:11Z</time>
      </trkpt>
      <trkpt lat="45.81016" lon="2.96718">
        <ele>965.9</ele>
        <time>2021-08-25T07:48:12Z</time>
      </trkpt>
      <trkpt lat="45.81019" lon="2.96724">
        <ele>965.6</ele>
        <time>2021-08-25T07:48:16Z</time>
      </trkpt>
      <trkpt lat="45.81027" lon="2.96737">
        <ele>964.8</ele>
        <time>2021-08-25T07:48:25Z</time>
      </trkpt>
      <trkpt lat="45.81028" lon="2.96739">
        <ele>965</ele>
        <time>2021-08-25T07:48:26Z</time>
      </trkpt>
      <trkpt lat="45.81031" lon="2.96745">
        <ele>964.6</ele>
        <time>2021-08-25T07:48:31Z</time>
      </trkpt>
      <trkpt lat="45.81035" lon="2.96759">
        <ele>964.7</ele>
        <time>2021-08-25T07:48:39Z</time>
      </trkpt>
      <trkpt lat="45.81036" lon="2.9676">
        <ele>964.6</ele>
        <time>2021-08-25T07:48:40Z</time>
      </trkpt>
      <trkpt lat="45.81038" lon="2.96767">
        <ele>964.7</ele>
        <time>2021-08-25T07:48:44Z</time>
      </trkpt>
      <trkpt lat="45.81044" lon="2.96776">
        <ele>964.3</ele>
        <time>2021-08-25T07:48:50Z</time>
      </trkpt>
      <trkpt lat="45.81045" lon="2.96777">
        <ele>964.1</ele>
        <time>2021-08-25T07:48:51Z</time>
      </trkpt>
      <trkpt lat="45.81055" lon="2.96794">
        <ele>963.3</ele>
        <time>2021-08-25T07:49:01Z</time>
      </trkpt>
      <trkpt lat="45.81056" lon="2.96795">
        <ele>963.2</ele>
        <time>2021-08-25T07:49:02Z</time>
      </trkpt>
      <trkpt lat="45.81065" lon="2.96815">
        <ele>962.8</ele>
        <time>2021-08-25T07:49:12Z</time>
      </trkpt>
      <trkpt lat="45.81067" lon="2.96816">
        <ele>962.7</ele>
        <time>2021-08-25T07:49:13Z</time>
      </trkpt>
      <trkpt lat="45.81069" lon="2.96819">
        <ele>962.9</ele>
        <time>2021-08-25T07:49:17Z</time>
      </trkpt>
      <trkpt lat="45.81069" lon="2.96822">
        <ele>962.9</ele>
        <time>2021-08-25T07:49:19Z</time>
      </trkpt>
      <trkpt lat="45.81063" lon="2.96834">
        <ele>963.1</ele>
        <time>2021-08-25T07:49:26Z</time>
      </trkpt>
      <trkpt lat="45.81062" lon="2.96836">
        <ele>963</ele>
        <time>2021-08-25T07:49:27Z</time>
      </trkpt>
      <trkpt lat="45.81057" lon="2.96848">
        <ele>961.7</ele>
        <time>2021-08-25T07:49:34Z</time>
      </trkpt>
      <trkpt lat="45.81053" lon="2.96852">
        <ele>960.6</ele>
        <time>2021-08-25T07:49:37Z</time>
      </trkpt>
      <trkpt lat="45.81052" lon="2.96854">
        <ele>960.3</ele>
        <time>2021-08-25T07:49:38Z</time>
      </trkpt>
      <trkpt lat="45.81043" lon="2.96872">
        <ele>956.7</ele>
        <time>2021-08-25T07:49:50Z</time>
      </trkpt>
      <trkpt lat="45.81042" lon="2.96874">
        <ele>956.3</ele>
        <time>2021-08-25T07:49:51Z</time>
      </trkpt>
      <trkpt lat="45.81036" lon="2.96894">
        <ele>954</ele>
        <time>2021-08-25T07:50:00Z</time>
      </trkpt>
      <trkpt lat="45.81035" lon="2.96896">
        <ele>953.6</ele>
        <time>2021-08-25T07:50:01Z</time>
      </trkpt>
      <trkpt lat="45.81032" lon="2.96911">
        <ele>952</ele>
        <time>2021-08-25T07:50:07Z</time>
      </trkpt>
      <trkpt lat="45.81028" lon="2.96919">
        <ele>951.3</ele>
        <time>2021-08-25T07:50:12Z</time>
      </trkpt>
      <trkpt lat="45.81026" lon="2.96921">
        <ele>951</ele>
        <time>2021-08-25T07:50:13Z</time>
      </trkpt>
      <trkpt lat="45.81017" lon="2.9694">
        <ele>949</ele>
        <time>2021-08-25T07:50:22Z</time>
      </trkpt>
      <trkpt lat="45.81016" lon="2.96941">
        <ele>948.7</ele>
        <time>2021-08-25T07:50:23Z</time>
      </trkpt>
      <trkpt lat="45.81012" lon="2.96946">
        <ele>948.4</ele>
        <time>2021-08-25T07:50:26Z</time>
      </trkpt>
      <trkpt lat="45.81008" lon="2.9696">
        <ele>946.9</ele>
        <time>2021-08-25T07:50:32Z</time>
      </trkpt>
      <trkpt lat="45.81007" lon="2.96962">
        <ele>946.6</ele>
        <time>2021-08-25T07:50:33Z</time>
      </trkpt>
      <trkpt lat="45.80998" lon="2.96981">
        <ele>945.2</ele>
        <time>2021-08-25T07:50:44Z</time>
      </trkpt>
      <trkpt lat="45.80997" lon="2.96983">
        <ele>945</ele>
        <time>2021-08-25T07:50:45Z</time>
      </trkpt>
      <trkpt lat="45.80992" lon="2.96988">
        <ele>944.7</ele>
        <time>2021-08-25T07:50:48Z</time>
      </trkpt>
      <trkpt lat="45.80987" lon="2.96997">
        <ele>944.2</ele>
        <time>2021-08-25T07:50:54Z</time>
      </trkpt>
      <trkpt lat="45.80984" lon="2.97">
        <ele>943.9</ele>
        <time>2021-08-25T07:50:56Z</time>
      </trkpt>
      <trkpt lat="45.80982" lon="2.97002">
        <ele>943.7</ele>
        <time>2021-08-25T07:50:57Z</time>
      </trkpt>
      <trkpt lat="45.8097" lon="2.97014">
        <ele>939.6</ele>
        <time>2021-08-25T07:51:07Z</time>
      </trkpt>
      <trkpt lat="45.80968" lon="2.97015">
        <ele>939.2</ele>
        <time>2021-08-25T07:51:08Z</time>
      </trkpt>
      <trkpt lat="45.80966" lon="2.97022">
        <ele>938.2</ele>
        <time>2021-08-25T07:51:11Z</time>
      </trkpt>
      <trkpt lat="45.8096" lon="2.97033">
        <ele>936.3</ele>
        <time>2021-08-25T07:51:17Z</time>
      </trkpt>
      <trkpt lat="45.80959" lon="2.97035">
        <ele>936</ele>
        <time>2021-08-25T07:51:18Z</time>
      </trkpt>
      <trkpt lat="45.80957" lon="2.9704">
        <ele>935.5</ele>
        <time>2021-08-25T07:51:20Z</time>
      </trkpt>
      <trkpt lat="45.80951" lon="2.97046">
        <ele>934.5</ele>
        <time>2021-08-25T07:51:24Z</time>
      </trkpt>
      <trkpt lat="45.80947" lon="2.97054">
        <ele>933.6</ele>
        <time>2021-08-25T07:51:28Z</time>
      </trkpt>
      <trkpt lat="45.80945" lon="2.97056">
        <ele>933.3</ele>
        <time>2021-08-25T07:51:29Z</time>
      </trkpt>
      <trkpt lat="45.80937" lon="2.97074">
        <ele>932.2</ele>
        <time>2021-08-25T07:51:38Z</time>
      </trkpt>
      <trkpt lat="45.80936" lon="2.97077">
        <ele>932.1</ele>
        <time>2021-08-25T07:51:39Z</time>
      </trkpt>
      <trkpt lat="45.80927" lon="2.97098">
        <ele>930.1</ele>
        <time>2021-08-25T07:51:50Z</time>
      </trkpt>
      <trkpt lat="45.80927" lon="2.971">
        <ele>930</ele>
        <time>2021-08-25T07:51:51Z</time>
      </trkpt>
      <trkpt lat="45.80918" lon="2.9712">
        <ele>928.8</ele>
        <time>2021-08-25T07:52:02Z</time>
      </trkpt>
      <trkpt lat="45.80918" lon="2.97121">
        <ele>928.5</ele>
        <time>2021-08-25T07:52:03Z</time>
      </trkpt>
      <trkpt lat="45.80912" lon="2.97145">
        <ele>926.8</ele>
        <time>2021-08-25T07:52:15Z</time>
      </trkpt>
      <trkpt lat="45.80912" lon="2.97146">
        <ele>926.8</ele>
        <time>2021-08-25T07:52:16Z</time>
      </trkpt>
      <trkpt lat="45.80907" lon="2.97154">
        <ele>925.6</ele>
        <time>2021-08-25T07:52:22Z</time>
      </trkpt>
      <trkpt lat="45.80898" lon="2.97162">
        <ele>923.6</ele>
        <time>2021-08-25T07:52:33Z</time>
      </trkpt>
      <trkpt lat="45.80897" lon="2.97162">
        <ele>923.4</ele>
        <time>2021-08-25T07:52:34Z</time>
      </trkpt>
      <trkpt lat="45.80893" lon="2.97168">
        <ele>922.9</ele>
        <time>2021-08-25T07:52:38Z</time>
      </trkpt>
      <trkpt lat="45.80885" lon="2.97176">
        <ele>922</ele>
        <time>2021-08-25T07:52:43Z</time>
      </trkpt>
      <trkpt lat="45.80884" lon="2.97178">
        <ele>921.9</ele>
        <time>2021-08-25T07:52:44Z</time>
      </trkpt>
      <trkpt lat="45.80869" lon="2.97188">
        <ele>921.6</ele>
        <time>2021-08-25T07:52:53Z</time>
      </trkpt>
      <trkpt lat="45.80868" lon="2.97189">
        <ele>921.5</ele>
        <time>2021-08-25T07:52:54Z</time>
      </trkpt>
      <trkpt lat="45.80861" lon="2.97198">
        <ele>921.4</ele>
        <time>2021-08-25T07:53:03Z</time>
      </trkpt>
      <trkpt lat="45.80854" lon="2.97202">
        <ele>921.4</ele>
        <time>2021-08-25T07:53:09Z</time>
      </trkpt>
      <trkpt lat="45.80852" lon="2.97203">
        <ele>921.2</ele>
        <time>2021-08-25T07:53:10Z</time>
      </trkpt>
      <trkpt lat="45.80845" lon="2.97204">
        <ele>920.1</ele>
        <time>2021-08-25T07:53:14Z</time>
      </trkpt>
      <trkpt lat="45.80843" lon="2.97205">
        <ele>920.1</ele>
        <time>2021-08-25T07:53:16Z</time>
      </trkpt>
      <trkpt lat="45.80836" lon="2.97205">
        <ele>919.6</ele>
        <time>2021-08-25T07:53:23Z</time>
      </trkpt>
      <trkpt lat="45.80834" lon="2.97206">
        <ele>919.3</ele>
        <time>2021-08-25T07:53:24Z</time>
      </trkpt>
      <trkpt lat="45.80824" lon="2.97214">
        <ele>919</ele>
        <time>2021-08-25T07:53:31Z</time>
      </trkpt>
      <trkpt lat="45.80821" lon="2.9722">
        <ele>919</ele>
        <time>2021-08-25T07:53:34Z</time>
      </trkpt>
      <trkpt lat="45.80819" lon="2.97222">
        <ele>919.1</ele>
        <time>2021-08-25T07:53:35Z</time>
      </trkpt>
      <trkpt lat="45.80818" lon="2.97229">
        <ele>918.5</ele>
        <time>2021-08-25T07:53:39Z</time>
      </trkpt>
      <trkpt lat="45.80819" lon="2.97235">
        <ele>917</ele>
        <time>2021-08-25T07:53:43Z</time>
      </trkpt>
      <trkpt lat="45.80816" lon="2.97243">
        <ele>916.4</ele>
        <time>2021-08-25T07:53:47Z</time>
      </trkpt>
      <trkpt lat="45.80815" lon="2.97245">
        <ele>916.2</ele>
        <time>2021-08-25T07:53:48Z</time>
      </trkpt>
      <trkpt lat="45.80814" lon="2.97252">
        <ele>916</ele>
        <time>2021-08-25T07:53:51Z</time>
      </trkpt>
      <trkpt lat="45.80809" lon="2.97265">
        <ele>915.9</ele>
        <time>2021-08-25T07:53:57Z</time>
      </trkpt>
      <trkpt lat="45.80808" lon="2.97268">
        <ele>916.1</ele>
        <time>2021-08-25T07:53:58Z</time>
      </trkpt>
      <trkpt lat="45.808" lon="2.97287">
        <ele>916</ele>
        <time>2021-08-25T07:54:07Z</time>
      </trkpt>
      <trkpt lat="45.80799" lon="2.9729">
        <ele>916.3</ele>
        <time>2021-08-25T07:54:08Z</time>
      </trkpt>
      <trkpt lat="45.80795" lon="2.97297">
        <ele>915.9</ele>
        <time>2021-08-25T07:54:12Z</time>
      </trkpt>
      <trkpt lat="45.80793" lon="2.97311">
        <ele>915.6</ele>
        <time>2021-08-25T07:54:19Z</time>
      </trkpt>
      <trkpt lat="45.80793" lon="2.97313">
        <ele>915.6</ele>
        <time>2021-08-25T07:54:20Z</time>
      </trkpt>
      <trkpt lat="45.80793" lon="2.97318">
        <ele>915.6</ele>
        <time>2021-08-25T07:54:25Z</time>
      </trkpt>
      <trkpt lat="45.80797" lon="2.97322">
        <ele>915.1</ele>
        <time>2021-08-25T07:54:30Z</time>
      </trkpt>
      <trkpt lat="45.80802" lon="2.97333">
        <ele>914.8</ele>
        <time>2021-08-25T07:54:41Z</time>
      </trkpt>
      <trkpt lat="45.80802" lon="2.97334">
        <ele>914.7</ele>
        <time>2021-08-25T07:54:42Z</time>
      </trkpt>
      <trkpt lat="45.8081" lon="2.9734">
        <ele>914.5</ele>
        <time>2021-08-25T07:54:53Z</time>
      </trkpt>
      <trkpt lat="45.80816" lon="2.97344">
        <ele>914.7</ele>
        <time>2021-08-25T07:54:58Z</time>
      </trkpt>
      <trkpt lat="45.80817" lon="2.97345">
        <ele>914.9</ele>
        <time>2021-08-25T07:54:59Z</time>
      </trkpt>
      <trkpt lat="45.80821" lon="2.97347">
        <ele>915.1</ele>
        <time>2021-08-25T07:55:02Z</time>
      </trkpt>
      <trkpt lat="45.80827" lon="2.97351">
        <ele>915.7</ele>
        <time>2021-08-25T07:55:06Z</time>
      </trkpt>
      <trkpt lat="45.80832" lon="2.97353">
        <ele>917</ele>
        <time>2021-08-25T07:55:11Z</time>
      </trkpt>
      <trkpt lat="45.80834" lon="2.97353">
        <ele>917.3</ele>
        <time>2021-08-25T07:55:12Z</time>
      </trkpt>
      <trkpt lat="45.80838" lon="2.97356">
        <ele>918.1</ele>
        <time>2021-08-25T07:55:15Z</time>
      </trkpt>
      <trkpt lat="45.80842" lon="2.97357">
        <ele>918.7</ele>
        <time>2021-08-25T07:55:17Z</time>
      </trkpt>
      <trkpt lat="45.80851" lon="2.97357">
        <ele>923.2</ele>
        <time>2021-08-25T07:55:23Z</time>
      </trkpt>
      <trkpt lat="45.80852" lon="2.97357">
        <ele>923.8</ele>
        <time>2021-08-25T07:55:24Z</time>
      </trkpt>
      <trkpt lat="45.80855" lon="2.97356">
        <ele>924.7</ele>
        <time>2021-08-25T07:55:26Z</time>
      </trkpt>
      <trkpt lat="45.8086" lon="2.97356">
        <ele>926.5</ele>
        <time>2021-08-25T07:55:29Z</time>
      </trkpt>
      <trkpt lat="45.80864" lon="2.97359">
        <ele>928.3</ele>
        <time>2021-08-25T07:55:32Z</time>
      </trkpt>
      <trkpt lat="45.80869" lon="2.9736">
        <ele>929.6</ele>
        <time>2021-08-25T07:55:35Z</time>
      </trkpt>
      <trkpt lat="45.8087" lon="2.9736">
        <ele>930.2</ele>
        <time>2021-08-25T07:55:36Z</time>
      </trkpt>
      <trkpt lat="45.80879" lon="2.97359">
        <ele>933.7</ele>
        <time>2021-08-25T07:55:44Z</time>
      </trkpt>
      <trkpt lat="45.80884" lon="2.97362">
        <ele>935.5</ele>
        <time>2021-08-25T07:55:47Z</time>
      </trkpt>
      <trkpt lat="45.80885" lon="2.97363">
        <ele>936.1</ele>
        <time>2021-08-25T07:55:48Z</time>
      </trkpt>
      <trkpt lat="45.80885" lon="2.97364">
        <ele>936.6</ele>
        <time>2021-08-25T07:55:49Z</time>
      </trkpt>
      <trkpt lat="45.80891" lon="2.97367">
        <ele>938.7</ele>
        <time>2021-08-25T07:55:53Z</time>
      </trkpt>
      <trkpt lat="45.80895" lon="2.97367">
        <ele>939.8</ele>
        <time>2021-08-25T07:55:55Z</time>
      </trkpt>
      <trkpt lat="45.80901" lon="2.97369">
        <ele>941.7</ele>
        <time>2021-08-25T07:55:58Z</time>
      </trkpt>
      <trkpt lat="45.80902" lon="2.97369">
        <ele>942.4</ele>
        <time>2021-08-25T07:55:59Z</time>
      </trkpt>
      <trkpt lat="45.80909" lon="2.97369">
        <ele>945.1</ele>
        <time>2021-08-25T07:56:05Z</time>
      </trkpt>
      <trkpt lat="45.80917" lon="2.97373">
        <ele>946.1</ele>
        <time>2021-08-25T07:56:10Z</time>
      </trkpt>
      <trkpt lat="45.80919" lon="2.97374">
        <ele>946.2</ele>
        <time>2021-08-25T07:56:11Z</time>
      </trkpt>
      <trkpt lat="45.80933" lon="2.9738">
        <ele>948.1</ele>
        <time>2021-08-25T07:56:21Z</time>
      </trkpt>
      <trkpt lat="45.80934" lon="2.9738">
        <ele>948.2</ele>
        <time>2021-08-25T07:56:22Z</time>
      </trkpt>
      <trkpt lat="45.80946" lon="2.97384">
        <ele>952.1</ele>
        <time>2021-08-25T07:56:31Z</time>
      </trkpt>
      <trkpt lat="45.80953" lon="2.97385">
        <ele>955.4</ele>
        <time>2021-08-25T07:56:34Z</time>
      </trkpt>
      <trkpt lat="45.80956" lon="2.97385">
        <ele>956.4</ele>
        <time>2021-08-25T07:56:35Z</time>
      </trkpt>
      <trkpt lat="45.80959" lon="2.97385">
        <ele>958.4</ele>
        <time>2021-08-25T07:56:37Z</time>
      </trkpt>
      <trkpt lat="45.80967" lon="2.97389">
        <ele>962.9</ele>
        <time>2021-08-25T07:56:43Z</time>
      </trkpt>
      <trkpt lat="45.80974" lon="2.9739">
        <ele>966.1</ele>
        <time>2021-08-25T07:56:48Z</time>
      </trkpt>
      <trkpt lat="45.80976" lon="2.9739">
        <ele>966.9</ele>
        <time>2021-08-25T07:56:49Z</time>
      </trkpt>
      <trkpt lat="45.80988" lon="2.97393">
        <ele>971.6</ele>
        <time>2021-08-25T07:56:56Z</time>
      </trkpt>
      <trkpt lat="45.80993" lon="2.97396">
        <ele>973.4</ele>
        <time>2021-08-25T07:57:00Z</time>
      </trkpt>
      <trkpt lat="45.80994" lon="2.97396">
        <ele>973.8</ele>
        <time>2021-08-25T07:57:01Z</time>
      </trkpt>
      <trkpt lat="45.81002" lon="2.974">
        <ele>975.6</ele>
        <time>2021-08-25T07:57:06Z</time>
      </trkpt>
      <trkpt lat="45.81008" lon="2.97404">
        <ele>977</ele>
        <time>2021-08-25T07:57:10Z</time>
      </trkpt>
      <trkpt lat="45.81009" lon="2.97405">
        <ele>977.2</ele>
        <time>2021-08-25T07:57:11Z</time>
      </trkpt>
      <trkpt lat="45.81012" lon="2.97406">
        <ele>978.1</ele>
        <time>2021-08-25T07:57:14Z</time>
      </trkpt>
      <trkpt lat="45.81021" lon="2.97409">
        <ele>979.8</ele>
        <time>2021-08-25T07:57:19Z</time>
      </trkpt>
      <trkpt lat="45.81024" lon="2.9741">
        <ele>980.2</ele>
        <time>2021-08-25T07:57:21Z</time>
      </trkpt>
      <trkpt lat="45.81026" lon="2.97411">
        <ele>980.4</ele>
        <time>2021-08-25T07:57:22Z</time>
      </trkpt>
      <trkpt lat="45.81031" lon="2.97415">
        <ele>981</ele>
        <time>2021-08-25T07:57:25Z</time>
      </trkpt>
      <trkpt lat="45.81037" lon="2.97416">
        <ele>981.5</ele>
        <time>2021-08-25T07:57:27Z</time>
      </trkpt>
      <trkpt lat="45.81043" lon="2.9742">
        <ele>982.3</ele>
        <time>2021-08-25T07:57:31Z</time>
      </trkpt>
      <trkpt lat="45.81044" lon="2.9742">
        <ele>982.6</ele>
        <time>2021-08-25T07:57:32Z</time>
      </trkpt>
      <trkpt lat="45.8105" lon="2.97425">
        <ele>982.9</ele>
        <time>2021-08-25T07:57:35Z</time>
      </trkpt>
      <trkpt lat="45.81061" lon="2.97429">
        <ele>983.4</ele>
        <time>2021-08-25T07:57:41Z</time>
      </trkpt>
      <trkpt lat="45.81062" lon="2.9743">
        <ele>983.4</ele>
        <time>2021-08-25T07:57:42Z</time>
      </trkpt>
      <trkpt lat="45.81069" lon="2.97434">
        <ele>983.9</ele>
        <time>2021-08-25T07:57:46Z</time>
      </trkpt>
      <trkpt lat="45.81073" lon="2.97434">
        <ele>983.9</ele>
        <time>2021-08-25T07:57:49Z</time>
      </trkpt>
      <trkpt lat="45.81077" lon="2.97437">
        <ele>983.9</ele>
        <time>2021-08-25T07:57:53Z</time>
      </trkpt>
      <trkpt lat="45.81079" lon="2.97437">
        <ele>983.8</ele>
        <time>2021-08-25T07:57:54Z</time>
      </trkpt>
      <trkpt lat="45.81082" lon="2.97438">
        <ele>983.7</ele>
        <time>2021-08-25T07:57:57Z</time>
      </trkpt>
      <trkpt lat="45.81085" lon="2.9744">
        <ele>983.5</ele>
        <time>2021-08-25T07:57:59Z</time>
      </trkpt>
      <trkpt lat="45.81086" lon="2.9744">
        <ele>983.6</ele>
        <time>2021-08-25T07:58:00Z</time>
      </trkpt>
      <trkpt lat="45.81092" lon="2.97445">
        <ele>983.2</ele>
        <time>2021-08-25T07:58:05Z</time>
      </trkpt>
      <trkpt lat="45.81094" lon="2.97446">
        <ele>982.9</ele>
        <time>2021-08-25T07:58:06Z</time>
      </trkpt>
      <trkpt lat="45.81099" lon="2.97451">
        <ele>982.8</ele>
        <time>2021-08-25T07:58:10Z</time>
      </trkpt>
      <trkpt lat="45.81109" lon="2.97457">
        <ele>982.8</ele>
        <time>2021-08-25T07:58:15Z</time>
      </trkpt>
      <trkpt lat="45.8111" lon="2.97458">
        <ele>982.9</ele>
        <time>2021-08-25T07:58:16Z</time>
      </trkpt>
      <trkpt lat="45.81124" lon="2.97468">
        <ele>982.7</ele>
        <time>2021-08-25T07:58:26Z</time>
      </trkpt>
      <trkpt lat="45.81126" lon="2.97469">
        <ele>982.7</ele>
        <time>2021-08-25T07:58:27Z</time>
      </trkpt>
      <trkpt lat="45.81135" lon="2.97476">
        <ele>983</ele>
        <time>2021-08-25T07:58:33Z</time>
      </trkpt>
      <trkpt lat="45.8114" lon="2.97477">
        <ele>983.2</ele>
        <time>2021-08-25T07:58:36Z</time>
      </trkpt>
      <trkpt lat="45.81142" lon="2.97478">
        <ele>983.3</ele>
        <time>2021-08-25T07:58:37Z</time>
      </trkpt>
      <trkpt lat="45.81147" lon="2.97481">
        <ele>983.5</ele>
        <time>2021-08-25T07:58:40Z</time>
      </trkpt>
      <trkpt lat="45.81149" lon="2.97483">
        <ele>983.7</ele>
        <time>2021-08-25T07:58:42Z</time>
      </trkpt>
      <trkpt lat="45.81157" lon="2.97487">
        <ele>984.4</ele>
        <time>2021-08-25T07:58:46Z</time>
      </trkpt>
      <trkpt lat="45.81159" lon="2.97488">
        <ele>984.4</ele>
        <time>2021-08-25T07:58:47Z</time>
      </trkpt>
      <trkpt lat="45.81162" lon="2.97491">
        <ele>984.6</ele>
        <time>2021-08-25T07:58:49Z</time>
      </trkpt>
      <trkpt lat="45.81174" lon="2.97497">
        <ele>985.2</ele>
        <time>2021-08-25T07:58:56Z</time>
      </trkpt>
      <trkpt lat="45.81175" lon="2.97499">
        <ele>985.1</ele>
        <time>2021-08-25T07:58:57Z</time>
      </trkpt>
      <trkpt lat="45.81185" lon="2.97507">
        <ele>985.2</ele>
        <time>2021-08-25T07:59:04Z</time>
      </trkpt>
      <trkpt lat="45.81187" lon="2.97511">
        <ele>985.3</ele>
        <time>2021-08-25T07:59:06Z</time>
      </trkpt>
      <trkpt lat="45.81189" lon="2.97512">
        <ele>985.4</ele>
        <time>2021-08-25T07:59:07Z</time>
      </trkpt>
      <trkpt lat="45.81191" lon="2.97515">
        <ele>985.3</ele>
        <time>2021-08-25T07:59:09Z</time>
      </trkpt>
      <trkpt lat="45.81196" lon="2.9752">
        <ele>985.2</ele>
        <time>2021-08-25T07:59:13Z</time>
      </trkpt>
      <trkpt lat="45.81202" lon="2.97523">
        <ele>985</ele>
        <time>2021-08-25T07:59:16Z</time>
      </trkpt>
      <trkpt lat="45.81203" lon="2.97524">
        <ele>985</ele>
        <time>2021-08-25T07:59:17Z</time>
      </trkpt>
      <trkpt lat="45.81208" lon="2.97531">
        <ele>984.5</ele>
        <time>2021-08-25T07:59:23Z</time>
      </trkpt>
      <trkpt lat="45.81214" lon="2.97536">
        <ele>984</ele>
        <time>2021-08-25T07:59:27Z</time>
      </trkpt>
      <trkpt lat="45.81216" lon="2.97537">
        <ele>983.9</ele>
        <time>2021-08-25T07:59:28Z</time>
      </trkpt>
      <trkpt lat="45.8122" lon="2.9754">
        <ele>983.5</ele>
        <time>2021-08-25T07:59:32Z</time>
      </trkpt>
      <trkpt lat="45.81223" lon="2.97544">
        <ele>983.6</ele>
        <time>2021-08-25T07:59:35Z</time>
      </trkpt>
      <trkpt lat="45.81227" lon="2.97546">
        <ele>983.6</ele>
        <time>2021-08-25T07:59:38Z</time>
      </trkpt>
      <trkpt lat="45.81228" lon="2.97547">
        <ele>983.5</ele>
        <time>2021-08-25T07:59:39Z</time>
      </trkpt>
      <trkpt lat="45.81243" lon="2.97558">
        <ele>982.4</ele>
        <time>2021-08-25T07:59:49Z</time>
      </trkpt>
      <trkpt lat="45.81244" lon="2.9756">
        <ele>982.3</ele>
        <time>2021-08-25T07:59:50Z</time>
      </trkpt>
      <trkpt lat="45.8125" lon="2.97564">
        <ele>981.8</ele>
        <time>2021-08-25T07:59:55Z</time>
      </trkpt>
      <trkpt lat="45.81254" lon="2.97571">
        <ele>981.1</ele>
        <time>2021-08-25T07:59:59Z</time>
      </trkpt>
      <trkpt lat="45.81255" lon="2.97571">
        <ele>981</ele>
        <time>2021-08-25T08:00:00Z</time>
      </trkpt>
      <trkpt lat="45.81263" lon="2.97577">
        <ele>980.9</ele>
        <time>2021-08-25T08:00:04Z</time>
      </trkpt>
      <trkpt lat="45.81268" lon="2.97583">
        <ele>980.6</ele>
        <time>2021-08-25T08:00:07Z</time>
      </trkpt>
      <trkpt lat="45.81269" lon="2.97587">
        <ele>980.3</ele>
        <time>2021-08-25T08:00:09Z</time>
      </trkpt>
      <trkpt lat="45.81269" lon="2.9759">
        <ele>980.1</ele>
        <time>2021-08-25T08:00:10Z</time>
      </trkpt>
      <trkpt lat="45.81271" lon="2.97596">
        <ele>979.6</ele>
        <time>2021-08-25T08:00:13Z</time>
      </trkpt>
      <trkpt lat="45.81273" lon="2.97598">
        <ele>979.2</ele>
        <time>2021-08-25T08:00:15Z</time>
      </trkpt>
      <trkpt lat="45.81278" lon="2.97612">
        <ele>977.8</ele>
        <time>2021-08-25T08:00:22Z</time>
      </trkpt>
      <trkpt lat="45.81279" lon="2.97614">
        <ele>977.6</ele>
        <time>2021-08-25T08:00:23Z</time>
      </trkpt>
      <trkpt lat="45.81282" lon="2.97623">
        <ele>977.2</ele>
        <time>2021-08-25T08:00:28Z</time>
      </trkpt>
      <trkpt lat="45.81288" lon="2.9763">
        <ele>978.2</ele>
        <time>2021-08-25T08:00:32Z</time>
      </trkpt>
      <trkpt lat="45.81288" lon="2.97633">
        <ele>978.4</ele>
        <time>2021-08-25T08:00:33Z</time>
      </trkpt>
      <trkpt lat="45.81291" lon="2.9764">
        <ele>979.6</ele>
        <time>2021-08-25T08:00:38Z</time>
      </trkpt>
      <trkpt lat="45.81291" lon="2.97647">
        <ele>979.5</ele>
        <time>2021-08-25T08:00:42Z</time>
      </trkpt>
      <trkpt lat="45.81297" lon="2.97653">
        <ele>981.2</ele>
        <time>2021-08-25T08:00:49Z</time>
      </trkpt>
      <trkpt lat="45.81297" lon="2.97654">
        <ele>981.2</ele>
        <time>2021-08-25T08:00:50Z</time>
      </trkpt>
      <trkpt lat="45.81298" lon="2.97658">
        <ele>981.9</ele>
        <time>2021-08-25T08:00:54Z</time>
      </trkpt>
      <trkpt lat="45.81296" lon="2.97666">
        <ele>982.5</ele>
        <time>2021-08-25T08:01:02Z</time>
      </trkpt>
      <trkpt lat="45.81293" lon="2.97671">
        <ele>983.1</ele>
        <time>2021-08-25T08:01:07Z</time>
      </trkpt>
      <trkpt lat="45.8129" lon="2.97673">
        <ele>983.5</ele>
        <time>2021-08-25T08:01:10Z</time>
      </trkpt>
      <trkpt lat="45.8129" lon="2.97674">
        <ele>983.6</ele>
        <time>2021-08-25T08:01:11Z</time>
      </trkpt>
      <trkpt lat="45.81286" lon="2.97679">
        <ele>983.9</ele>
        <time>2021-08-25T08:01:17Z</time>
      </trkpt>
      <trkpt lat="45.81275" lon="2.97685">
        <ele>984.1</ele>
        <time>2021-08-25T08:01:27Z</time>
      </trkpt>
      <trkpt lat="45.81274" lon="2.97685">
        <ele>984.2</ele>
        <time>2021-08-25T08:01:28Z</time>
      </trkpt>
      <trkpt lat="45.81273" lon="2.97686">
        <ele>984.2</ele>
        <time>2021-08-25T08:01:29Z</time>
      </trkpt>
      <trkpt lat="45.81273" lon="2.97689">
        <ele>984.1</ele>
        <time>2021-08-25T08:01:32Z</time>
      </trkpt>
      <trkpt lat="45.8127" lon="2.97693">
        <ele>984.1</ele>
        <time>2021-08-25T08:01:37Z</time>
      </trkpt>
      <trkpt lat="45.81265" lon="2.97705">
        <ele>985.1</ele>
        <time>2021-08-25T08:01:50Z</time>
      </trkpt>
      <trkpt lat="45.81264" lon="2.97707">
        <ele>985.3</ele>
        <time>2021-08-25T08:01:51Z</time>
      </trkpt>
      <trkpt lat="45.81259" lon="2.97716">
        <ele>986</ele>
        <time>2021-08-25T08:01:58Z</time>
      </trkpt>
      <trkpt lat="45.81253" lon="2.97725">
        <ele>987.5</ele>
        <time>2021-08-25T08:02:07Z</time>
      </trkpt>
      <trkpt lat="45.81252" lon="2.97726">
        <ele>987.6</ele>
        <time>2021-08-25T08:02:08Z</time>
      </trkpt>
      <trkpt lat="45.81246" lon="2.97733">
        <ele>987.7</ele>
        <time>2021-08-25T08:02:15Z</time>
      </trkpt>
      <trkpt lat="45.81243" lon="2.97744">
        <ele>988</ele>
        <time>2021-08-25T08:02:23Z</time>
      </trkpt>
      <trkpt lat="45.81243" lon="2.97746">
        <ele>988</ele>
        <time>2021-08-25T08:02:24Z</time>
      </trkpt>
      <trkpt lat="45.81242" lon="2.97747">
        <ele>988.2</ele>
        <time>2021-08-25T08:02:25Z</time>
      </trkpt>
      <trkpt lat="45.81238" lon="2.97757">
        <ele>988.4</ele>
        <time>2021-08-25T08:02:33Z</time>
      </trkpt>
      <trkpt lat="45.81237" lon="2.97771">
        <ele>989.6</ele>
        <time>2021-08-25T08:02:46Z</time>
      </trkpt>
      <trkpt lat="45.81237" lon="2.97772">
        <ele>989.6</ele>
        <time>2021-08-25T08:02:47Z</time>
      </trkpt>
      <trkpt lat="45.81237" lon="2.97776">
        <ele>990.1</ele>
        <time>2021-08-25T08:02:50Z</time>
      </trkpt>
      <trkpt lat="45.81238" lon="2.97785">
        <ele>991.9</ele>
        <time>2021-08-25T08:02:57Z</time>
      </trkpt>
      <trkpt lat="45.81236" lon="2.97796">
        <ele>993.6</ele>
        <time>2021-08-25T08:03:04Z</time>
      </trkpt>
      <trkpt lat="45.81236" lon="2.97797">
        <ele>993.8</ele>
        <time>2021-08-25T08:03:05Z</time>
      </trkpt>
      <trkpt lat="45.81236" lon="2.97798">
        <ele>994</ele>
        <time>2021-08-25T08:03:06Z</time>
      </trkpt>
      <trkpt lat="45.81231" lon="2.97805">
        <ele>997.5</ele>
        <time>2021-08-25T08:03:16Z</time>
      </trkpt>
      <trkpt lat="45.81233" lon="2.97819">
        <ele>1002.2</ele>
        <time>2021-08-25T08:03:33Z</time>
      </trkpt>
      <trkpt lat="45.81232" lon="2.97819">
        <ele>1002.5</ele>
        <time>2021-08-25T08:03:34Z</time>
      </trkpt>
      <trkpt lat="45.81232" lon="2.97827">
        <ele>1005.3</ele>
        <time>2021-08-25T08:03:45Z</time>
      </trkpt>
      <trkpt lat="45.81227" lon="2.97836">
        <ele>1009.5</ele>
        <time>2021-08-25T08:03:58Z</time>
      </trkpt>
      <trkpt lat="45.81225" lon="2.97843">
        <ele>1011.7</ele>
        <time>2021-08-25T08:04:04Z</time>
      </trkpt>
      <trkpt lat="45.81225" lon="2.97845">
        <ele>1011.9</ele>
        <time>2021-08-25T08:04:05Z</time>
      </trkpt>
      <trkpt lat="45.81221" lon="2.97858">
        <ele>1016.2</ele>
        <time>2021-08-25T08:04:18Z</time>
      </trkpt>
      <trkpt lat="45.8122" lon="2.97865">
        <ele>1018.9</ele>
        <time>2021-08-25T08:04:30Z</time>
      </trkpt>
      <trkpt lat="45.81218" lon="2.97868">
        <ele>1019.8</ele>
        <time>2021-08-25T08:04:37Z</time>
      </trkpt>
      <trkpt lat="45.81218" lon="2.9787">
        <ele>1020</ele>
        <time>2021-08-25T08:04:38Z</time>
      </trkpt>
      <trkpt lat="45.81217" lon="2.97877">
        <ele>1021</ele>
        <time>2021-08-25T08:04:45Z</time>
      </trkpt>
      <trkpt lat="45.81211" lon="2.97884">
        <ele>1022.4</ele>
        <time>2021-08-25T08:04:56Z</time>
      </trkpt>
      <trkpt lat="45.81208" lon="2.97891">
        <ele>1023.5</ele>
        <time>2021-08-25T08:05:03Z</time>
      </trkpt>
      <trkpt lat="45.81207" lon="2.97891">
        <ele>1023.8</ele>
        <time>2021-08-25T08:05:04Z</time>
      </trkpt>
      <trkpt lat="45.81206" lon="2.97892">
        <ele>1024.1</ele>
        <time>2021-08-25T08:05:05Z</time>
      </trkpt>
      <trkpt lat="45.81205" lon="2.97895">
        <ele>1024.8</ele>
        <time>2021-08-25T08:05:08Z</time>
      </trkpt>
      <trkpt lat="45.81202" lon="2.979">
        <ele>1025.8</ele>
        <time>2021-08-25T08:05:15Z</time>
      </trkpt>
      <trkpt lat="45.812" lon="2.97908">
        <ele>1026.9</ele>
        <time>2021-08-25T08:05:22Z</time>
      </trkpt>
      <trkpt lat="45.81198" lon="2.97911">
        <ele>1027.3</ele>
        <time>2021-08-25T08:05:25Z</time>
      </trkpt>
      <trkpt lat="45.81197" lon="2.97913">
        <ele>1027.4</ele>
        <time>2021-08-25T08:05:26Z</time>
      </trkpt>
      <trkpt lat="45.81193" lon="2.97926">
        <ele>1028.5</ele>
        <time>2021-08-25T08:05:35Z</time>
      </trkpt>
      <trkpt lat="45.81191" lon="2.97929">
        <ele>1028.8</ele>
        <time>2021-08-25T08:05:37Z</time>
      </trkpt>
      <trkpt lat="45.81191" lon="2.97934">
        <ele>1029.3</ele>
        <time>2021-08-25T08:05:40Z</time>
      </trkpt>
      <trkpt lat="45.8119" lon="2.97936">
        <ele>1029.4</ele>
        <time>2021-08-25T08:05:41Z</time>
      </trkpt>
      <trkpt lat="45.81187" lon="2.97943">
        <ele>1029.7</ele>
        <time>2021-08-25T08:05:46Z</time>
      </trkpt>
      <trkpt lat="45.81185" lon="2.97948">
        <ele>1030.3</ele>
        <time>2021-08-25T08:05:52Z</time>
      </trkpt>
      <trkpt lat="45.81181" lon="2.97954">
        <ele>1030.6</ele>
        <time>2021-08-25T08:05:57Z</time>
      </trkpt>
      <trkpt lat="45.8118" lon="2.97954">
        <ele>1030.8</ele>
        <time>2021-08-25T08:05:58Z</time>
      </trkpt>
      <trkpt lat="45.81179" lon="2.97955">
        <ele>1030.9</ele>
        <time>2021-08-25T08:05:59Z</time>
      </trkpt>
      <trkpt lat="45.81173" lon="2.97967">
        <ele>1030.6</ele>
        <time>2021-08-25T08:06:09Z</time>
      </trkpt>
      <trkpt lat="45.81172" lon="2.97974">
        <ele>1030.7</ele>
        <time>2021-08-25T08:06:13Z</time>
      </trkpt>
      <trkpt lat="45.81172" lon="2.97977">
        <ele>1030.9</ele>
        <time>2021-08-25T08:06:14Z</time>
      </trkpt>
      <trkpt lat="45.81171" lon="2.97988">
        <ele>1031.4</ele>
        <time>2021-08-25T08:06:20Z</time>
      </trkpt>
      <trkpt lat="45.81168" lon="2.97994">
        <ele>1031.6</ele>
        <time>2021-08-25T08:06:24Z</time>
      </trkpt>
      <trkpt lat="45.81166" lon="2.97994">
        <ele>1031.6</ele>
        <time>2021-08-25T08:06:25Z</time>
      </trkpt>
      <trkpt lat="45.81165" lon="2.97996">
        <ele>1031.6</ele>
        <time>2021-08-25T08:06:26Z</time>
      </trkpt>
      <trkpt lat="45.81156" lon="2.9801">
        <ele>1031.4</ele>
        <time>2021-08-25T08:06:34Z</time>
      </trkpt>
      <trkpt lat="45.81155" lon="2.98014">
        <ele>1031.4</ele>
        <time>2021-08-25T08:06:36Z</time>
      </trkpt>
      <trkpt lat="45.81154" lon="2.98016">
        <ele>1031.4</ele>
        <time>2021-08-25T08:06:37Z</time>
      </trkpt>
      <trkpt lat="45.81146" lon="2.98025">
        <ele>1031.5</ele>
        <time>2021-08-25T08:06:42Z</time>
      </trkpt>
      <trkpt lat="45.8114" lon="2.98028">
        <ele>1031.6</ele>
        <time>2021-08-25T08:06:46Z</time>
      </trkpt>
      <trkpt lat="45.81139" lon="2.98029">
        <ele>1031.7</ele>
        <time>2021-08-25T08:06:47Z</time>
      </trkpt>
      <trkpt lat="45.81135" lon="2.98034">
        <ele>1031.5</ele>
        <time>2021-08-25T08:06:51Z</time>
      </trkpt>
      <trkpt lat="45.81134" lon="2.98038">
        <ele>1031.4</ele>
        <time>2021-08-25T08:06:53Z</time>
      </trkpt>
      <trkpt lat="45.81129" lon="2.98047">
        <ele>1031.2</ele>
        <time>2021-08-25T08:06:59Z</time>
      </trkpt>
      <trkpt lat="45.81128" lon="2.9805">
        <ele>1031.2</ele>
        <time>2021-08-25T08:07:00Z</time>
      </trkpt>
      <trkpt lat="45.81124" lon="2.98062">
        <ele>1030.8</ele>
        <time>2021-08-25T08:07:07Z</time>
      </trkpt>
      <trkpt lat="45.81124" lon="2.98069">
        <ele>1030.2</ele>
        <time>2021-08-25T08:07:11Z</time>
      </trkpt>
      <trkpt lat="45.81122" lon="2.98072">
        <ele>1029.9</ele>
        <time>2021-08-25T08:07:13Z</time>
      </trkpt>
      <trkpt lat="45.81122" lon="2.98074">
        <ele>1029.8</ele>
        <time>2021-08-25T08:07:14Z</time>
      </trkpt>
      <trkpt lat="45.81118" lon="2.98093">
        <ele>1028.9</ele>
        <time>2021-08-25T08:07:23Z</time>
      </trkpt>
      <trkpt lat="45.81118" lon="2.98096">
        <ele>1028.7</ele>
        <time>2021-08-25T08:07:24Z</time>
      </trkpt>
      <trkpt lat="45.81116" lon="2.98107">
        <ele>1028.2</ele>
        <time>2021-08-25T08:07:28Z</time>
      </trkpt>
      <trkpt lat="45.81117" lon="2.98121">
        <ele>1027.2</ele>
        <time>2021-08-25T08:07:33Z</time>
      </trkpt>
      <trkpt lat="45.81118" lon="2.98123">
        <ele>1027.2</ele>
        <time>2021-08-25T08:07:34Z</time>
      </trkpt>
      <trkpt lat="45.81116" lon="2.98131">
        <ele>1027.4</ele>
        <time>2021-08-25T08:07:37Z</time>
      </trkpt>
      <trkpt lat="45.81117" lon="2.98141">
        <ele>1028.1</ele>
        <time>2021-08-25T08:07:40Z</time>
      </trkpt>
      <trkpt lat="45.81115" lon="2.98148">
        <ele>1028.5</ele>
        <time>2021-08-25T08:07:43Z</time>
      </trkpt>
      <trkpt lat="45.81115" lon="2.98152">
        <ele>1029.5</ele>
        <time>2021-08-25T08:07:44Z</time>
      </trkpt>
      <trkpt lat="45.81115" lon="2.98165">
        <ele>1029.4</ele>
        <time>2021-08-25T08:07:49Z</time>
      </trkpt>
      <trkpt lat="45.81111" lon="2.9818">
        <ele>1028.6</ele>
        <time>2021-08-25T08:07:57Z</time>
      </trkpt>
      <trkpt lat="45.8111" lon="2.98183">
        <ele>1028.3</ele>
        <time>2021-08-25T08:07:58Z</time>
      </trkpt>
      <trkpt lat="45.81105" lon="2.9819">
        <ele>1028.4</ele>
        <time>2021-08-25T08:08:02Z</time>
      </trkpt>
      <trkpt lat="45.81103" lon="2.98196">
        <ele>1028.4</ele>
        <time>2021-08-25T08:08:07Z</time>
      </trkpt>
      <trkpt lat="45.811" lon="2.98204">
        <ele>1028</ele>
        <time>2021-08-25T08:08:12Z</time>
      </trkpt>
      <trkpt lat="45.811" lon="2.98205">
        <ele>1028.1</ele>
        <time>2021-08-25T08:08:13Z</time>
      </trkpt>
      <trkpt lat="45.81096" lon="2.98215">
        <ele>1028</ele>
        <time>2021-08-25T08:08:19Z</time>
      </trkpt>
      <trkpt lat="45.81092" lon="2.98221">
        <ele>1028</ele>
        <time>2021-08-25T08:08:22Z</time>
      </trkpt>
      <trkpt lat="45.81092" lon="2.98224">
        <ele>1028.8</ele>
        <time>2021-08-25T08:08:23Z</time>
      </trkpt>
      <trkpt lat="45.81091" lon="2.98226">
        <ele>1029.2</ele>
        <time>2021-08-25T08:08:24Z</time>
      </trkpt>
      <trkpt lat="45.81085" lon="2.9824">
        <ele>1030.2</ele>
        <time>2021-08-25T08:08:32Z</time>
      </trkpt>
      <trkpt lat="45.81083" lon="2.98243">
        <ele>1030.2</ele>
        <time>2021-08-25T08:08:34Z</time>
      </trkpt>
      <trkpt lat="45.81082" lon="2.98244">
        <ele>1030.1</ele>
        <time>2021-08-25T08:08:35Z</time>
      </trkpt>
      <trkpt lat="45.81076" lon="2.98257">
        <ele>1029.8</ele>
        <time>2021-08-25T08:08:42Z</time>
      </trkpt>
      <trkpt lat="45.81072" lon="2.9826">
        <ele>1029.5</ele>
        <time>2021-08-25T08:08:45Z</time>
      </trkpt>
      <trkpt lat="45.81071" lon="2.98262">
        <ele>1029.4</ele>
        <time>2021-08-25T08:08:46Z</time>
      </trkpt>
      <trkpt lat="45.81067" lon="2.98269">
        <ele>1028.8</ele>
        <time>2021-08-25T08:08:49Z</time>
      </trkpt>
      <trkpt lat="45.8106" lon="2.98278">
        <ele>1027.3</ele>
        <time>2021-08-25T08:08:56Z</time>
      </trkpt>
      <trkpt lat="45.81059" lon="2.98279">
        <ele>1027.1</ele>
        <time>2021-08-25T08:08:57Z</time>
      </trkpt>
      <trkpt lat="45.81058" lon="2.98282">
        <ele>1026.9</ele>
        <time>2021-08-25T08:08:58Z</time>
      </trkpt>
      <trkpt lat="45.81048" lon="2.98291">
        <ele>1025.5</ele>
        <time>2021-08-25T08:09:07Z</time>
      </trkpt>
      <trkpt lat="45.81047" lon="2.98297">
        <ele>1025.4</ele>
        <time>2021-08-25T08:09:10Z</time>
      </trkpt>
      <trkpt lat="45.81046" lon="2.983">
        <ele>1025.6</ele>
        <time>2021-08-25T08:09:11Z</time>
      </trkpt>
      <trkpt lat="45.81039" lon="2.9831">
        <ele>1026.7</ele>
        <time>2021-08-25T08:09:16Z</time>
      </trkpt>
      <trkpt lat="45.81032" lon="2.98317">
        <ele>1027.1</ele>
        <time>2021-08-25T08:09:22Z</time>
      </trkpt>
      <trkpt lat="45.81032" lon="2.98317">
        <ele>1027.1</ele>
        <time>2021-08-25T08:09:23Z</time>
      </trkpt>
      <trkpt lat="45.8102" lon="2.98332">
        <ele>1028.2</ele>
        <time>2021-08-25T08:09:32Z</time>
      </trkpt>
      <trkpt lat="45.81018" lon="2.98333">
        <ele>1028.4</ele>
        <time>2021-08-25T08:09:33Z</time>
      </trkpt>
      <trkpt lat="45.81012" lon="2.9834">
        <ele>1028.5</ele>
        <time>2021-08-25T08:09:38Z</time>
      </trkpt>
      <trkpt lat="45.81006" lon="2.98349">
        <ele>1029.7</ele>
        <time>2021-08-25T08:09:43Z</time>
      </trkpt>
      <trkpt lat="45.81004" lon="2.98351">
        <ele>1030</ele>
        <time>2021-08-25T08:09:44Z</time>
      </trkpt>
      <trkpt lat="45.80996" lon="2.9836">
        <ele>1030.2</ele>
        <time>2021-08-25T08:09:51Z</time>
      </trkpt>
      <trkpt lat="45.80993" lon="2.98361">
        <ele>1030.1</ele>
        <time>2021-08-25T08:09:54Z</time>
      </trkpt>
      <trkpt lat="45.80991" lon="2.98363">
        <ele>1030.1</ele>
        <time>2021-08-25T08:09:56Z</time>
      </trkpt>
      <trkpt lat="45.8099" lon="2.98364">
        <ele>1030</ele>
        <time>2021-08-25T08:09:57Z</time>
      </trkpt>
      <trkpt lat="45.80987" lon="2.98367">
        <ele>1029.7</ele>
        <time>2021-08-25T08:10:00Z</time>
      </trkpt>
      <trkpt lat="45.80975" lon="2.98373">
        <ele>1029.8</ele>
        <time>2021-08-25T08:10:08Z</time>
      </trkpt>
      <trkpt lat="45.80974" lon="2.98374">
        <ele>1029.9</ele>
        <time>2021-08-25T08:10:09Z</time>
      </trkpt>
      <trkpt lat="45.80961" lon="2.98388">
        <ele>1029.1</ele>
        <time>2021-08-25T08:10:20Z</time>
      </trkpt>
      <trkpt lat="45.80959" lon="2.98388">
        <ele>1029.1</ele>
        <time>2021-08-25T08:10:21Z</time>
      </trkpt>
      <trkpt lat="45.80944" lon="2.98409">
        <ele>1028.4</ele>
        <time>2021-08-25T08:10:30Z</time>
      </trkpt>
      <trkpt lat="45.80943" lon="2.98412">
        <ele>1028.2</ele>
        <time>2021-08-25T08:10:31Z</time>
      </trkpt>
      <trkpt lat="45.80934" lon="2.9843">
        <ele>1027.2</ele>
        <time>2021-08-25T08:10:39Z</time>
      </trkpt>
      <trkpt lat="45.80933" lon="2.98433">
        <ele>1027.2</ele>
        <time>2021-08-25T08:10:40Z</time>
      </trkpt>
      <trkpt lat="45.80932" lon="2.98435">
        <ele>1027.3</ele>
        <time>2021-08-25T08:10:41Z</time>
      </trkpt>
      <trkpt lat="45.8093" lon="2.9844">
        <ele>1026.6</ele>
        <time>2021-08-25T08:10:44Z</time>
      </trkpt>
      <trkpt lat="45.80926" lon="2.98445">
        <ele>1026</ele>
        <time>2021-08-25T08:10:49Z</time>
      </trkpt>
      <trkpt lat="45.80921" lon="2.98453">
        <ele>1024.9</ele>
        <time>2021-08-25T08:10:53Z</time>
      </trkpt>
      <trkpt lat="45.8092" lon="2.98455">
        <ele>1024.6</ele>
        <time>2021-08-25T08:10:54Z</time>
      </trkpt>
      <trkpt lat="45.80909" lon="2.98467">
        <ele>1022.8</ele>
        <time>2021-08-25T08:11:05Z</time>
      </trkpt>
      <trkpt lat="45.80908" lon="2.98468">
        <ele>1022.6</ele>
        <time>2021-08-25T08:11:06Z</time>
      </trkpt>
      <trkpt lat="45.80901" lon="2.98478">
        <ele>1020.7</ele>
        <time>2021-08-25T08:11:13Z</time>
      </trkpt>
      <trkpt lat="45.80897" lon="2.98482">
        <ele>1020.1</ele>
        <time>2021-08-25T08:11:16Z</time>
      </trkpt>
      <trkpt lat="45.80895" lon="2.98483">
        <ele>1019.9</ele>
        <time>2021-08-25T08:11:17Z</time>
      </trkpt>
      <trkpt lat="45.8089" lon="2.98489">
        <ele>1019.2</ele>
        <time>2021-08-25T08:11:21Z</time>
      </trkpt>
      <trkpt lat="45.8088" lon="2.98496">
        <ele>1015.7</ele>
        <time>2021-08-25T08:11:30Z</time>
      </trkpt>
      <trkpt lat="45.80879" lon="2.98497">
        <ele>1015.3</ele>
        <time>2021-08-25T08:11:31Z</time>
      </trkpt>
      <trkpt lat="45.80863" lon="2.98509">
        <ele>1011.8</ele>
        <time>2021-08-25T08:11:42Z</time>
      </trkpt>
      <trkpt lat="45.80862" lon="2.9851">
        <ele>1011.5</ele>
        <time>2021-08-25T08:11:43Z</time>
      </trkpt>
      <trkpt lat="45.80855" lon="2.98516">
        <ele>1010.7</ele>
        <time>2021-08-25T08:11:47Z</time>
      </trkpt>
      <trkpt lat="45.80851" lon="2.98518">
        <ele>1009.9</ele>
        <time>2021-08-25T08:11:50Z</time>
      </trkpt>
      <trkpt lat="45.80848" lon="2.98521">
        <ele>1009.4</ele>
        <time>2021-08-25T08:11:52Z</time>
      </trkpt>
      <trkpt lat="45.80847" lon="2.98523">
        <ele>1009.1</ele>
        <time>2021-08-25T08:11:53Z</time>
      </trkpt>
      <trkpt lat="45.80838" lon="2.98532">
        <ele>1005.1</ele>
        <time>2021-08-25T08:12:02Z</time>
      </trkpt>
      <trkpt lat="45.80831" lon="2.98536">
        <ele>1003.2</ele>
        <time>2021-08-25T08:12:07Z</time>
      </trkpt>
      <trkpt lat="45.80829" lon="2.98537">
        <ele>1002.7</ele>
        <time>2021-08-25T08:12:08Z</time>
      </trkpt>
      <trkpt lat="45.80814" lon="2.98545">
        <ele>999.7</ele>
        <time>2021-08-25T08:12:17Z</time>
      </trkpt>
      <trkpt lat="45.80812" lon="2.98547">
        <ele>999.3</ele>
        <time>2021-08-25T08:12:18Z</time>
      </trkpt>
      <trkpt lat="45.80811" lon="2.98547">
        <ele>999</ele>
        <time>2021-08-25T08:12:19Z</time>
      </trkpt>
      <trkpt lat="45.80802" lon="2.98556">
        <ele>996.3</ele>
        <time>2021-08-25T08:12:27Z</time>
      </trkpt>
      <trkpt lat="45.80798" lon="2.98558">
        <ele>994.7</ele>
        <time>2021-08-25T08:12:31Z</time>
      </trkpt>
      <trkpt lat="45.80797" lon="2.98558">
        <ele>994.3</ele>
        <time>2021-08-25T08:12:32Z</time>
      </trkpt>
      <trkpt lat="45.80789" lon="2.98561">
        <ele>992</ele>
        <time>2021-08-25T08:12:38Z</time>
      </trkpt>
      <trkpt lat="45.80782" lon="2.98566">
        <ele>989.9</ele>
        <time>2021-08-25T08:12:44Z</time>
      </trkpt>
      <trkpt lat="45.80781" lon="2.98568">
        <ele>989.5</ele>
        <time>2021-08-25T08:12:45Z</time>
      </trkpt>
      <trkpt lat="45.80765" lon="2.98582">
        <ele>986.6</ele>
        <time>2021-08-25T08:12:54Z</time>
      </trkpt>
      <trkpt lat="45.80763" lon="2.98583">
        <ele>986.4</ele>
        <time>2021-08-25T08:12:55Z</time>
      </trkpt>
      <trkpt lat="45.80761" lon="2.98584">
        <ele>986.1</ele>
        <time>2021-08-25T08:12:56Z</time>
      </trkpt>
      <trkpt lat="45.80754" lon="2.98586">
        <ele>984.1</ele>
        <time>2021-08-25T08:13:00Z</time>
      </trkpt>
      <trkpt lat="45.8075" lon="2.98586">
        <ele>983.3</ele>
        <time>2021-08-25T08:13:03Z</time>
      </trkpt>
      <trkpt lat="45.80747" lon="2.98585">
        <ele>982.7</ele>
        <time>2021-08-25T08:13:05Z</time>
      </trkpt>
      <trkpt lat="45.80746" lon="2.98584">
        <ele>982.4</ele>
        <time>2021-08-25T08:13:06Z</time>
      </trkpt>
      <trkpt lat="45.80739" lon="2.98583">
        <ele>980.5</ele>
        <time>2021-08-25T08:13:11Z</time>
      </trkpt>
      <trkpt lat="45.8073" lon="2.98579">
        <ele>978.5</ele>
        <time>2021-08-25T08:13:17Z</time>
      </trkpt>
      <trkpt lat="45.80728" lon="2.98578">
        <ele>978.2</ele>
        <time>2021-08-25T08:13:18Z</time>
      </trkpt>
      <trkpt lat="45.80727" lon="2.98577">
        <ele>977.8</ele>
        <time>2021-08-25T08:13:19Z</time>
      </trkpt>
      <trkpt lat="45.80723" lon="2.98577">
        <ele>977.1</ele>
        <time>2021-08-25T08:13:21Z</time>
      </trkpt>
      <trkpt lat="45.80717" lon="2.98574">
        <ele>975.7</ele>
        <time>2021-08-25T08:13:25Z</time>
      </trkpt>
      <trkpt lat="45.80712" lon="2.9857">
        <ele>974.3</ele>
        <time>2021-08-25T08:13:29Z</time>
      </trkpt>
      <trkpt lat="45.80711" lon="2.98569">
        <ele>974.1</ele>
        <time>2021-08-25T08:13:30Z</time>
      </trkpt>
      <trkpt lat="45.80697" lon="2.9856">
        <ele>970.6</ele>
        <time>2021-08-25T08:13:41Z</time>
      </trkpt>
      <trkpt lat="45.80695" lon="2.98559">
        <ele>970.3</ele>
        <time>2021-08-25T08:13:42Z</time>
      </trkpt>
      <trkpt lat="45.80689" lon="2.98556">
        <ele>969.4</ele>
        <time>2021-08-25T08:13:46Z</time>
      </trkpt>
      <trkpt lat="45.80687" lon="2.98556">
        <ele>968.8</ele>
        <time>2021-08-25T08:13:49Z</time>
      </trkpt>
      <trkpt lat="45.80683" lon="2.98559">
        <ele>968.7</ele>
        <time>2021-08-25T08:13:53Z</time>
      </trkpt>
      <trkpt lat="45.80682" lon="2.98562">
        <ele>968.7</ele>
        <time>2021-08-25T08:13:56Z</time>
      </trkpt>
      <trkpt lat="45.80681" lon="2.98564">
        <ele>968.6</ele>
        <time>2021-08-25T08:13:57Z</time>
      </trkpt>
      <trkpt lat="45.80679" lon="2.98568">
        <ele>968.1</ele>
        <time>2021-08-25T08:14:00Z</time>
      </trkpt>
      <trkpt lat="45.80676" lon="2.98586">
        <ele>966.1</ele>
        <time>2021-08-25T08:14:10Z</time>
      </trkpt>
      <trkpt lat="45.80676" lon="2.98587">
        <ele>965.9</ele>
        <time>2021-08-25T08:14:11Z</time>
      </trkpt>
      <trkpt lat="45.80675" lon="2.98597">
        <ele>964.1</ele>
        <time>2021-08-25T08:14:18Z</time>
      </trkpt>
      <trkpt lat="45.80677" lon="2.9861">
        <ele>962.2</ele>
        <time>2021-08-25T08:14:26Z</time>
      </trkpt>
      <trkpt lat="45.80676" lon="2.98612">
        <ele>961.8</ele>
        <time>2021-08-25T08:14:27Z</time>
      </trkpt>
      <trkpt lat="45.80675" lon="2.98622">
        <ele>960.5</ele>
        <time>2021-08-25T08:14:32Z</time>
      </trkpt>
      <trkpt lat="45.80676" lon="2.98632">
        <ele>959.3</ele>
        <time>2021-08-25T08:14:37Z</time>
      </trkpt>
      <trkpt lat="45.80676" lon="2.98634">
        <ele>959.1</ele>
        <time>2021-08-25T08:14:38Z</time>
      </trkpt>
      <trkpt lat="45.80676" lon="2.9864">
        <ele>958.2</ele>
        <time>2021-08-25T08:14:41Z</time>
      </trkpt>
      <trkpt lat="45.80675" lon="2.98646">
        <ele>957.3</ele>
        <time>2021-08-25T08:14:44Z</time>
      </trkpt>
      <trkpt lat="45.80676" lon="2.98652">
        <ele>956.7</ele>
        <time>2021-08-25T08:14:47Z</time>
      </trkpt>
      <trkpt lat="45.80676" lon="2.98657">
        <ele>956.2</ele>
        <time>2021-08-25T08:14:49Z</time>
      </trkpt>
      <trkpt lat="45.80675" lon="2.98661">
        <ele>956</ele>
        <time>2021-08-25T08:14:50Z</time>
      </trkpt>
      <trkpt lat="45.80678" lon="2.98676">
        <ele>954.6</ele>
        <time>2021-08-25T08:14:55Z</time>
      </trkpt>
      <trkpt lat="45.80678" lon="2.98685">
        <ele>953.5</ele>
        <time>2021-08-25T08:14:59Z</time>
      </trkpt>
      <trkpt lat="45.80678" lon="2.98688">
        <ele>953.1</ele>
        <time>2021-08-25T08:15:00Z</time>
      </trkpt>
      <trkpt lat="45.80678" lon="2.98695">
        <ele>952.2</ele>
        <time>2021-08-25T08:15:03Z</time>
      </trkpt>
      <trkpt lat="45.80679" lon="2.98698">
        <ele>951.8</ele>
        <time>2021-08-25T08:15:04Z</time>
      </trkpt>
      <trkpt lat="45.80676" lon="2.98705">
        <ele>951.9</ele>
        <time>2021-08-25T08:15:08Z</time>
      </trkpt>
      <trkpt lat="45.80675" lon="2.98706">
        <ele>951.9</ele>
        <time>2021-08-25T08:15:09Z</time>
      </trkpt>
      <trkpt lat="45.80674" lon="2.98708">
        <ele>952.3</ele>
        <time>2021-08-25T08:15:10Z</time>
      </trkpt>
      <trkpt lat="45.80674" lon="2.98717">
        <ele>957.6</ele>
        <time>2021-08-25T08:15:14Z</time>
      </trkpt>
      <trkpt lat="45.80671" lon="2.98723">
        <ele>960.7</ele>
        <time>2021-08-25T08:15:17Z</time>
      </trkpt>
      <trkpt lat="45.80667" lon="2.98726">
        <ele>962.8</ele>
        <time>2021-08-25T08:15:20Z</time>
      </trkpt>
      <trkpt lat="45.80665" lon="2.98726">
        <ele>963</ele>
        <time>2021-08-25T08:15:21Z</time>
      </trkpt>
      <trkpt lat="45.8066" lon="2.98731">
        <ele>964.7</ele>
        <time>2021-08-25T08:15:26Z</time>
      </trkpt>
      <trkpt lat="45.8066" lon="2.98743">
        <ele>964.5</ele>
        <time>2021-08-25T08:15:32Z</time>
      </trkpt>
      <trkpt lat="45.8066" lon="2.98746">
        <ele>964.5</ele>
        <time>2021-08-25T08:15:33Z</time>
      </trkpt>
      <trkpt lat="45.80658" lon="2.98769">
        <ele>965.2</ele>
        <time>2021-08-25T08:15:42Z</time>
      </trkpt>
      <trkpt lat="45.80657" lon="2.98771">
        <ele>965.4</ele>
        <time>2021-08-25T08:15:43Z</time>
      </trkpt>
      <trkpt lat="45.80654" lon="2.98777">
        <ele>966.4</ele>
        <time>2021-08-25T08:15:46Z</time>
      </trkpt>
      <trkpt lat="45.80652" lon="2.9878">
        <ele>967.1</ele>
        <time>2021-08-25T08:15:48Z</time>
      </trkpt>
      <trkpt lat="45.80645" lon="2.98781">
        <ele>966.8</ele>
        <time>2021-08-25T08:15:52Z</time>
      </trkpt>
      <trkpt lat="45.80643" lon="2.98781">
        <ele>966.6</ele>
        <time>2021-08-25T08:15:53Z</time>
      </trkpt>
      <trkpt lat="45.80636" lon="2.98781">
        <ele>966.2</ele>
        <time>2021-08-25T08:15:58Z</time>
      </trkpt>
      <trkpt lat="45.80629" lon="2.98781">
        <ele>965.4</ele>
        <time>2021-08-25T08:16:02Z</time>
      </trkpt>
      <trkpt lat="45.80628" lon="2.98782">
        <ele>965.3</ele>
        <time>2021-08-25T08:16:03Z</time>
      </trkpt>
      <trkpt lat="45.80625" lon="2.98784">
        <ele>965.4</ele>
        <time>2021-08-25T08:16:05Z</time>
      </trkpt>
      <trkpt lat="45.80623" lon="2.98787">
        <ele>965.7</ele>
        <time>2021-08-25T08:16:07Z</time>
      </trkpt>
      <trkpt lat="45.80619" lon="2.98799">
        <ele>966.1</ele>
        <time>2021-08-25T08:16:12Z</time>
      </trkpt>
      <trkpt lat="45.80618" lon="2.988">
        <ele>966</ele>
        <time>2021-08-25T08:16:13Z</time>
      </trkpt>
      <trkpt lat="45.80607" lon="2.98815">
        <ele>967.9</ele>
        <time>2021-08-25T08:16:22Z</time>
      </trkpt>
      <trkpt lat="45.80607" lon="2.98817">
        <ele>968.1</ele>
        <time>2021-08-25T08:16:23Z</time>
      </trkpt>
      <trkpt lat="45.80599" lon="2.98838">
        <ele>971</ele>
        <time>2021-08-25T08:16:32Z</time>
      </trkpt>
      <trkpt lat="45.80598" lon="2.98841">
        <ele>971.1</ele>
        <time>2021-08-25T08:16:33Z</time>
      </trkpt>
      <trkpt lat="45.80587" lon="2.98857">
        <ele>974.3</ele>
        <time>2021-08-25T08:16:42Z</time>
      </trkpt>
      <trkpt lat="45.80586" lon="2.98859">
        <ele>974.9</ele>
        <time>2021-08-25T08:16:43Z</time>
      </trkpt>
      <trkpt lat="45.80572" lon="2.9887">
        <ele>977.5</ele>
        <time>2021-08-25T08:16:52Z</time>
      </trkpt>
      <trkpt lat="45.80571" lon="2.9887">
        <ele>978</ele>
        <time>2021-08-25T08:16:53Z</time>
      </trkpt>
      <trkpt lat="45.8056" lon="2.9888">
        <ele>978.9</ele>
        <time>2021-08-25T08:17:00Z</time>
      </trkpt>
      <trkpt lat="45.80559" lon="2.98883">
        <ele>978.9</ele>
        <time>2021-08-25T08:17:02Z</time>
      </trkpt>
      <trkpt lat="45.80557" lon="2.98885">
        <ele>978.8</ele>
        <time>2021-08-25T08:17:03Z</time>
      </trkpt>
      <trkpt lat="45.80554" lon="2.98887">
        <ele>978.9</ele>
        <time>2021-08-25T08:17:05Z</time>
      </trkpt>
      <trkpt lat="45.80546" lon="2.98899">
        <ele>978.3</ele>
        <time>2021-08-25T08:17:12Z</time>
      </trkpt>
      <trkpt lat="45.80545" lon="2.98901">
        <ele>978</ele>
        <time>2021-08-25T08:17:13Z</time>
      </trkpt>
      <trkpt lat="45.80537" lon="2.98917">
        <ele>977.7</ele>
        <time>2021-08-25T08:17:22Z</time>
      </trkpt>
      <trkpt lat="45.80536" lon="2.98919">
        <ele>977.7</ele>
        <time>2021-08-25T08:17:23Z</time>
      </trkpt>
      <trkpt lat="45.80529" lon="2.98938">
        <ele>978.3</ele>
        <time>2021-08-25T08:17:32Z</time>
      </trkpt>
      <trkpt lat="45.80527" lon="2.9894">
        <ele>978.5</ele>
        <time>2021-08-25T08:17:33Z</time>
      </trkpt>
      <trkpt lat="45.80518" lon="2.98958">
        <ele>977.8</ele>
        <time>2021-08-25T08:17:42Z</time>
      </trkpt>
      <trkpt lat="45.80517" lon="2.9896">
        <ele>977.5</ele>
        <time>2021-08-25T08:17:43Z</time>
      </trkpt>
      <trkpt lat="45.8051" lon="2.98982">
        <ele>976.4</ele>
        <time>2021-08-25T08:17:52Z</time>
      </trkpt>
      <trkpt lat="45.8051" lon="2.98984">
        <ele>976.4</ele>
        <time>2021-08-25T08:17:53Z</time>
      </trkpt>
      <trkpt lat="45.80506" lon="2.99004">
        <ele>977.2</ele>
        <time>2021-08-25T08:18:02Z</time>
      </trkpt>
      <trkpt lat="45.80505" lon="2.99006">
        <ele>977.3</ele>
        <time>2021-08-25T08:18:03Z</time>
      </trkpt>
      <trkpt lat="45.80503" lon="2.99027">
        <ele>978.2</ele>
        <time>2021-08-25T08:18:12Z</time>
      </trkpt>
      <trkpt lat="45.80503" lon="2.99029">
        <ele>978.2</ele>
        <time>2021-08-25T08:18:13Z</time>
      </trkpt>
      <trkpt lat="45.80499" lon="2.99051">
        <ele>977.1</ele>
        <time>2021-08-25T08:18:22Z</time>
      </trkpt>
      <trkpt lat="45.80498" lon="2.99053">
        <ele>977</ele>
        <time>2021-08-25T08:18:23Z</time>
      </trkpt>
      <trkpt lat="45.80492" lon="2.99072">
        <ele>976.3</ele>
        <time>2021-08-25T08:18:32Z</time>
      </trkpt>
      <trkpt lat="45.80491" lon="2.99074">
        <ele>976</ele>
        <time>2021-08-25T08:18:33Z</time>
      </trkpt>
      <trkpt lat="45.80485" lon="2.99084">
        <ele>975</ele>
        <time>2021-08-25T08:18:38Z</time>
      </trkpt>
      <trkpt lat="45.80482" lon="2.99092">
        <ele>974.7</ele>
        <time>2021-08-25T08:18:42Z</time>
      </trkpt>
      <trkpt lat="45.80481" lon="2.99095">
        <ele>974.6</ele>
        <time>2021-08-25T08:18:43Z</time>
      </trkpt>
      <trkpt lat="45.80477" lon="2.99118">
        <ele>972.3</ele>
        <time>2021-08-25T08:18:55Z</time>
      </trkpt>
      <trkpt lat="45.80477" lon="2.99119">
        <ele>972.6</ele>
        <time>2021-08-25T08:18:56Z</time>
      </trkpt>
      <trkpt lat="45.80472" lon="2.99121">
        <ele>972.6</ele>
        <time>2021-08-25T08:18:59Z</time>
      </trkpt>
      <trkpt lat="45.80461" lon="2.99124">
        <ele>973.7</ele>
        <time>2021-08-25T08:19:05Z</time>
      </trkpt>
      <trkpt lat="45.80459" lon="2.99124">
        <ele>973.9</ele>
        <time>2021-08-25T08:19:06Z</time>
      </trkpt>
      <trkpt lat="45.80454" lon="2.99123">
        <ele>973.9</ele>
        <time>2021-08-25T08:19:09Z</time>
      </trkpt>
      <trkpt lat="45.80445" lon="2.99116">
        <ele>974.8</ele>
        <time>2021-08-25T08:19:15Z</time>
      </trkpt>
      <trkpt lat="45.80443" lon="2.99115">
        <ele>975</ele>
        <time>2021-08-25T08:19:16Z</time>
      </trkpt>
      <trkpt lat="45.80438" lon="2.99108">
        <ele>975.3</ele>
        <time>2021-08-25T08:19:20Z</time>
      </trkpt>
      <trkpt lat="45.80434" lon="2.991">
        <ele>975.8</ele>
        <time>2021-08-25T08:19:25Z</time>
      </trkpt>
      <trkpt lat="45.80433" lon="2.99098">
        <ele>976</ele>
        <time>2021-08-25T08:19:26Z</time>
      </trkpt>
      <trkpt lat="45.8043" lon="2.99092">
        <ele>976.7</ele>
        <time>2021-08-25T08:19:29Z</time>
      </trkpt>
      <trkpt lat="45.80427" lon="2.99079">
        <ele>976.8</ele>
        <time>2021-08-25T08:19:35Z</time>
      </trkpt>
      <trkpt lat="45.80427" lon="2.99076">
        <ele>976.9</ele>
        <time>2021-08-25T08:19:36Z</time>
      </trkpt>
      <trkpt lat="45.80426" lon="2.99064">
        <ele>976.9</ele>
        <time>2021-08-25T08:19:41Z</time>
      </trkpt>
      <trkpt lat="45.80424" lon="2.99055">
        <ele>976.3</ele>
        <time>2021-08-25T08:19:45Z</time>
      </trkpt>
      <trkpt lat="45.80424" lon="2.99053">
        <ele>976.3</ele>
        <time>2021-08-25T08:19:46Z</time>
      </trkpt>
      <trkpt lat="45.80421" lon="2.99034">
        <ele>974.5</ele>
        <time>2021-08-25T08:19:55Z</time>
      </trkpt>
      <trkpt lat="45.80421" lon="2.99031">
        <ele>974.2</ele>
        <time>2021-08-25T08:19:56Z</time>
      </trkpt>
      <trkpt lat="45.80418" lon="2.9901">
        <ele>974.1</ele>
        <time>2021-08-25T08:20:05Z</time>
      </trkpt>
      <trkpt lat="45.80418" lon="2.99008">
        <ele>974</ele>
        <time>2021-08-25T08:20:06Z</time>
      </trkpt>
      <trkpt lat="45.80415" lon="2.98987">
        <ele>973.1</ele>
        <time>2021-08-25T08:20:16Z</time>
      </trkpt>
      <trkpt lat="45.80414" lon="2.98984">
        <ele>972.9</ele>
        <time>2021-08-25T08:20:17Z</time>
      </trkpt>
      <trkpt lat="45.80412" lon="2.98974">
        <ele>972.8</ele>
        <time>2021-08-25T08:20:21Z</time>
      </trkpt>
      <trkpt lat="45.80411" lon="2.98961">
        <ele>972.6</ele>
        <time>2021-08-25T08:20:27Z</time>
      </trkpt>
      <trkpt lat="45.80411" lon="2.98959">
        <ele>972.4</ele>
        <time>2021-08-25T08:20:28Z</time>
      </trkpt>
      <trkpt lat="45.8041" lon="2.98949">
        <ele>972.3</ele>
        <time>2021-08-25T08:20:32Z</time>
      </trkpt>
      <trkpt lat="45.80406" lon="2.98939">
        <ele>971.8</ele>
        <time>2021-08-25T08:20:37Z</time>
      </trkpt>
      <trkpt lat="45.80406" lon="2.98937">
        <ele>971.5</ele>
        <time>2021-08-25T08:20:38Z</time>
      </trkpt>
      <trkpt lat="45.80403" lon="2.98927">
        <ele>970.3</ele>
        <time>2021-08-25T08:20:43Z</time>
      </trkpt>
      <trkpt lat="45.80399" lon="2.9892">
        <ele>969.7</ele>
        <time>2021-08-25T08:20:47Z</time>
      </trkpt>
      <trkpt lat="45.80398" lon="2.98918">
        <ele>969.6</ele>
        <time>2021-08-25T08:20:48Z</time>
      </trkpt>
      <trkpt lat="45.80385" lon="2.98908">
        <ele>969.6</ele>
        <time>2021-08-25T08:20:57Z</time>
      </trkpt>
      <trkpt lat="45.80384" lon="2.98907">
        <ele>969.7</ele>
        <time>2021-08-25T08:20:58Z</time>
      </trkpt>
      <trkpt lat="45.80377" lon="2.98893">
        <ele>971.2</ele>
        <time>2021-08-25T08:21:09Z</time>
      </trkpt>
      <trkpt lat="45.80374" lon="2.98889">
        <ele>971.8</ele>
        <time>2021-08-25T08:21:12Z</time>
      </trkpt>
      <trkpt lat="45.80373" lon="2.98888">
        <ele>972</ele>
        <time>2021-08-25T08:21:13Z</time>
      </trkpt>
      <trkpt lat="45.80372" lon="2.98883">
        <ele>972.4</ele>
        <time>2021-08-25T08:21:16Z</time>
      </trkpt>
      <trkpt lat="45.80372" lon="2.98865">
        <ele>973.7</ele>
        <time>2021-08-25T08:21:26Z</time>
      </trkpt>
      <trkpt lat="45.80372" lon="2.98863">
        <ele>973.7</ele>
        <time>2021-08-25T08:21:27Z</time>
      </trkpt>
      <trkpt lat="45.80372" lon="2.98852">
        <ele>974</ele>
        <time>2021-08-25T08:21:32Z</time>
      </trkpt>
      <trkpt lat="45.80375" lon="2.98844">
        <ele>974.2</ele>
        <time>2021-08-25T08:21:36Z</time>
      </trkpt>
      <trkpt lat="45.80375" lon="2.98841">
        <ele>974.2</ele>
        <time>2021-08-25T08:21:37Z</time>
      </trkpt>
      <trkpt lat="45.80377" lon="2.98832">
        <ele>974.4</ele>
        <time>2021-08-25T08:21:41Z</time>
      </trkpt>
      <trkpt lat="45.80377" lon="2.98819">
        <ele>974.4</ele>
        <time>2021-08-25T08:21:47Z</time>
      </trkpt>
      <trkpt lat="45.80377" lon="2.98818">
        <ele>974.1</ele>
        <time>2021-08-25T08:21:48Z</time>
      </trkpt>
      <trkpt lat="45.80368" lon="2.98797">
        <ele>975.3</ele>
        <time>2021-08-25T08:22:01Z</time>
      </trkpt>
      <trkpt lat="45.80367" lon="2.98795">
        <ele>975.3</ele>
        <time>2021-08-25T08:22:02Z</time>
      </trkpt>
      <trkpt lat="45.80364" lon="2.98779">
        <ele>976.1</ele>
        <time>2021-08-25T08:22:11Z</time>
      </trkpt>
      <trkpt lat="45.80364" lon="2.98771">
        <ele>976</ele>
        <time>2021-08-25T08:22:14Z</time>
      </trkpt>
      <trkpt lat="45.80365" lon="2.98769">
        <ele>975.9</ele>
        <time>2021-08-25T08:22:15Z</time>
      </trkpt>
      <trkpt lat="45.80373" lon="2.98761">
        <ele>975.6</ele>
        <time>2021-08-25T08:22:21Z</time>
      </trkpt>
      <trkpt lat="45.80377" lon="2.98758">
        <ele>976.2</ele>
        <time>2021-08-25T08:22:24Z</time>
      </trkpt>
      <trkpt lat="45.80378" lon="2.98758">
        <ele>976.4</ele>
        <time>2021-08-25T08:22:25Z</time>
      </trkpt>
      <trkpt lat="45.80381" lon="2.98756">
        <ele>976.6</ele>
        <time>2021-08-25T08:22:28Z</time>
      </trkpt>
      <trkpt lat="45.80391" lon="2.98756">
        <ele>976.7</ele>
        <time>2021-08-25T08:22:36Z</time>
      </trkpt>
      <trkpt lat="45.80396" lon="2.98753">
        <ele>977.4</ele>
        <time>2021-08-25T08:22:40Z</time>
      </trkpt>
      <trkpt lat="45.80398" lon="2.98753">
        <ele>977.3</ele>
        <time>2021-08-25T08:22:41Z</time>
      </trkpt>
      <trkpt lat="45.8041" lon="2.98743">
        <ele>977.3</ele>
        <time>2021-08-25T08:22:50Z</time>
      </trkpt>
      <trkpt lat="45.80411" lon="2.98742">
        <ele>977.6</ele>
        <time>2021-08-25T08:22:51Z</time>
      </trkpt>
      <trkpt lat="45.80417" lon="2.98737">
        <ele>978.8</ele>
        <time>2021-08-25T08:22:56Z</time>
      </trkpt>
      <trkpt lat="45.80422" lon="2.98731">
        <ele>979.9</ele>
        <time>2021-08-25T08:23:00Z</time>
      </trkpt>
      <trkpt lat="45.80423" lon="2.9873">
        <ele>980.5</ele>
        <time>2021-08-25T08:23:01Z</time>
      </trkpt>
      <trkpt lat="45.80425" lon="2.98726">
        <ele>981.3</ele>
        <time>2021-08-25T08:23:03Z</time>
      </trkpt>
      <trkpt lat="45.80433" lon="2.98708">
        <ele>983.5</ele>
        <time>2021-08-25T08:23:15Z</time>
      </trkpt>
      <trkpt lat="45.80433" lon="2.98707">
        <ele>983.4</ele>
        <time>2021-08-25T08:23:16Z</time>
      </trkpt>
      <trkpt lat="45.80436" lon="2.98705">
        <ele>982.6</ele>
        <time>2021-08-25T08:23:20Z</time>
      </trkpt>
      <trkpt lat="45.80443" lon="2.98704">
        <ele>982.5</ele>
        <time>2021-08-25T08:24:01Z</time>
      </trkpt>
    </trkseg>
  </trk>
</gpx>